<?xml version='1.0' encoding='UTF-8'?><gpx version="1.1" creator="JPX - https://github.com/jenetics/jpx" xmlns="http://www.topografix.com/GPX/1/1"><trk><trkseg><trkpt lat="49.7095688599063" lon="19.976288302483148"><ele>403.0</ele><time>2026-04-16T07:36:20Z</time></trkpt><trkpt lat="49.709479511761884" lon="19.976323047781612"><ele>403.0</ele><time>2026-04-16T07:36:22Z</time></trkpt><trkpt lat="49.709369603784" lon="19.976435570815507"><ele>403.0</ele><time>2026-04-16T07:36:24Z</time></trkpt><trkpt lat="49.70930262820056" lon="19.976486118401645"><ele>403.0</ele><time>2026-04-16T07:36:26Z</time></trkpt><trkpt lat="49.709239409148935" lon="19.976603893163535"><ele>403.0</ele><time>2026-04-16T07:36:28Z</time></trkpt><trkpt lat="49.70920826229344" lon="19.976758800256682"><ele>408.0</ele><time>2026-04-16T07:36:30Z</time></trkpt><trkpt lat="49.70920937114238" lon="19.97690219307876"><ele>413.0</ele><time>2026-04-16T07:36:31.999Z</time></trkpt><trkpt lat="49.70919430945205" lon="19.977017211327496"><ele>417.99999999999994</ele><time>2026-04-16T07:36:32.999Z</time></trkpt><trkpt lat="49.70917212930598" lon="19.97715933468216"><ele>423.0</ele><time>2026-04-16T07:36:34.999Z</time></trkpt><trkpt lat="49.70911730514446" lon="19.977303212059848"><ele>428.0</ele><time>2026-04-16T07:36:36.999Z</time></trkpt><trkpt lat="49.70905362967765" lon="19.977448038940643"><ele>430.4</ele><time>2026-04-16T07:36:38.999Z</time></trkpt><trkpt lat="49.70899065341169" lon="19.977588727181537"><ele>432.79999999999995</ele><time>2026-04-16T07:36:40.999Z</time></trkpt><trkpt lat="49.708952590632855" lon="19.97766771048004"><ele>435.2</ele><time>2026-04-16T07:36:41.999Z</time></trkpt><trkpt lat="49.708884178197344" lon="19.97780909175583"><ele>437.6</ele><time>2026-04-16T07:36:43.999Z</time></trkpt><trkpt lat="49.70883355805973" lon="19.977959189292914"><ele>440.0</ele><time>2026-04-16T07:36:45.999Z</time></trkpt><trkpt lat="49.708776717674255" lon="19.978096526762066"><ele>440.0</ele><time>2026-04-16T07:36:47.999Z</time></trkpt><trkpt lat="49.70872017449487" lon="19.978253719719312"><ele>440.0</ele><time>2026-04-16T07:36:49.999Z</time></trkpt><trkpt lat="49.7086541178523" lon="19.97840583776929"><ele>440.0</ele><time>2026-04-16T07:36:51.999Z</time></trkpt><trkpt lat="49.70859920684505" lon="19.978535487173275"><ele>440.0</ele><time>2026-04-16T07:36:53.999Z</time></trkpt><trkpt lat="49.708559503289514" lon="19.97868059410098"><ele>440.0</ele><time>2026-04-16T07:36:55.999Z</time></trkpt><trkpt lat="49.708497846638" lon="19.978814869265797"><ele>444.8</ele><time>2026-04-16T07:36:57.999Z</time></trkpt><trkpt lat="49.70845354018415" lon="19.97897738235899"><ele>449.6</ele><time>2026-04-16T07:36:59.999Z</time></trkpt><trkpt lat="49.70839090518059" lon="19.97912609936077"><ele>454.4</ele><time>2026-04-16T07:37:01.999Z</time></trkpt><trkpt lat="49.708329106147524" lon="19.979239820312365"><ele>459.2</ele><time>2026-04-16T07:37:03.999Z</time></trkpt><trkpt lat="49.708271335041964" lon="19.979385429524747"><ele>464.0</ele><time>2026-04-16T07:37:05.999Z</time></trkpt><trkpt lat="49.70822419474862" lon="19.97954154033819"><ele>464.6</ele><time>2026-04-16T07:37:07.999Z</time></trkpt><trkpt lat="49.70817295220102" lon="19.979703040674917"><ele>465.2</ele><time>2026-04-16T07:37:09.999Z</time></trkpt><trkpt lat="49.70813198540573" lon="19.979851914040903"><ele>465.80000000000007</ele><time>2026-04-16T07:37:11.999Z</time></trkpt><trkpt lat="49.70806918791088" lon="19.979983337014225"><ele>466.40000000000003</ele><time>2026-04-16T07:37:13.999Z</time></trkpt><trkpt lat="49.70799667224985" lon="19.980097359402823"><ele>467.0</ele><time>2026-04-16T07:37:15.999Z</time></trkpt><trkpt lat="49.70795008976142" lon="19.980211899455657"><ele>466.99999999999994</ele><time>2026-04-16T07:37:17.999Z</time></trkpt><trkpt lat="49.707925859024044" lon="19.980312933799237"><ele>467.0</ele><time>2026-04-16T07:37:19.999Z</time></trkpt><trkpt lat="49.707891136652464" lon="19.980420029175963"><ele>467.0</ele><time>2026-04-16T07:37:21.999Z</time></trkpt><trkpt lat="49.70785988424149" lon="19.980533286868475"><ele>467.0</ele><time>2026-04-16T07:37:23.998Z</time></trkpt><trkpt lat="49.70783757963888" lon="19.980629016828082"><ele>466.99999999999994</ele><time>2026-04-16T07:37:25.998Z</time></trkpt><trkpt lat="49.70781519189613" lon="19.980723609397156"><ele>467.0</ele><time>2026-04-16T07:37:27.998Z</time></trkpt><trkpt lat="49.70774672911084" lon="19.980849320883188"><ele>465.3333333333333</ele><time>2026-04-16T07:37:30.998Z</time></trkpt><trkpt lat="49.70770702665478" lon="19.98094844264249"><ele>463.66666666666663</ele><time>2026-04-16T07:37:32.998Z</time></trkpt><trkpt lat="49.707640061180335" lon="19.98104224989783"><ele>462.0</ele><time>2026-04-16T07:37:34.998Z</time></trkpt><trkpt lat="49.707602274502335" lon="19.9811641690674"><ele>460.33333333333337</ele><time>2026-04-16T07:37:36.998Z</time></trkpt><trkpt lat="49.70755531640992" lon="19.98126857646862"><ele>458.6666666666667</ele><time>2026-04-16T07:37:39.998Z</time></trkpt><trkpt lat="49.70752578577372" lon="19.981365458885065"><ele>457.0</ele><time>2026-04-16T07:37:41.998Z</time></trkpt><trkpt lat="49.7075384315503" lon="19.981480613792204"><ele>457.00000000000006</ele><time>2026-04-16T07:37:43.998Z</time></trkpt><trkpt lat="49.70750961443365" lon="19.98157978957962"><ele>457.0</ele><time>2026-04-16T07:37:44.998Z</time></trkpt><trkpt lat="49.707483910585495" lon="19.98167879440406"><ele>457.0</ele><time>2026-04-16T07:37:45.998Z</time></trkpt><trkpt lat="49.707468941630545" lon="19.98177347237898"><ele>457.0</ele><time>2026-04-16T07:37:46.998Z</time></trkpt><trkpt lat="49.707446377739394" lon="19.981900737318945"><ele>457.00000000000006</ele><time>2026-04-16T07:37:48.998Z</time></trkpt><trkpt lat="49.70739845777035" lon="19.982015484150086"><ele>457.0</ele><time>2026-04-16T07:37:50.998Z</time></trkpt><trkpt lat="49.70736900241154" lon="19.98217114238592"><ele>457.1666666666667</ele><time>2026-04-16T07:37:52.998Z</time></trkpt><trkpt lat="49.70732175980944" lon="19.982307163659918"><ele>457.33333333333337</ele><time>2026-04-16T07:37:54.998Z</time></trkpt><trkpt lat="49.707263824012124" lon="19.98245167165553"><ele>457.5</ele><time>2026-04-16T07:37:57Z</time></trkpt><trkpt lat="49.707235801743224" lon="19.982541826367065"><ele>457.66666666666663</ele><time>2026-04-16T07:37:58Z</time></trkpt><trkpt lat="49.707182371509866" lon="19.98262380241742"><ele>457.8333333333333</ele><time>2026-04-16T07:38:00Z</time></trkpt><trkpt lat="49.70710657266562" lon="19.98268295454682"><ele>458.0</ele><time>2026-04-16T07:38:02Z</time></trkpt><trkpt lat="49.70701919718406" lon="19.98269563575626"><ele>457.99999999999994</ele><time>2026-04-16T07:38:04Z</time></trkpt><trkpt lat="49.70694060068057" lon="19.982707100028072"><ele>458.0</ele><time>2026-04-16T07:38:05Z</time></trkpt><trkpt lat="49.706855940552806" lon="19.98274743881659"><ele>458.0</ele><time>2026-04-16T07:38:07Z</time></trkpt><trkpt lat="49.70676955652369" lon="19.982757086525943"><ele>458.0</ele><time>2026-04-16T07:38:09Z</time></trkpt><trkpt lat="49.70669714354475" lon="19.982737995067538"><ele>457.99999999999994</ele><time>2026-04-16T07:38:10Z</time></trkpt><trkpt lat="49.70663316377289" lon="19.982720560235396"><ele>458.0</ele><time>2026-04-16T07:38:11Z</time></trkpt><trkpt lat="49.70655717046829" lon="19.982764378191614"><ele>459.49999999999994</ele><time>2026-04-16T07:38:12Z</time></trkpt><trkpt lat="49.706486082364506" lon="19.982789463694637"><ele>461.0</ele><time>2026-04-16T07:38:14Z</time></trkpt><trkpt lat="49.706422850655336" lon="19.9828086365991"><ele>462.5</ele><time>2026-04-16T07:38:17Z</time></trkpt><trkpt lat="49.706312763343035" lon="19.982817187011705"><ele>464.0</ele><time>2026-04-16T07:38:19Z</time></trkpt><trkpt lat="49.70621568691634" lon="19.98280721878759"><ele>465.49999999999994</ele><time>2026-04-16T07:38:22Z</time></trkpt><trkpt lat="49.70615104608542" lon="19.982812657332104"><ele>467.0</ele><time>2026-04-16T07:38:25Z</time></trkpt><trkpt lat="49.70606410143292" lon="19.98269863484342"><ele>467.66666666666663</ele><time>2026-04-16T07:38:27Z</time></trkpt><trkpt lat="49.70597147560393" lon="19.982689903515237"><ele>468.3333333333333</ele><time>2026-04-16T07:38:30.999Z</time></trkpt><trkpt lat="49.705921486887064" lon="19.982780120687494"><ele>469.0</ele><time>2026-04-16T07:38:32.999Z</time></trkpt><trkpt lat="49.70584874818118" lon="19.98280195049225"><ele>469.66666666666663</ele><time>2026-04-16T07:38:36.999Z</time></trkpt><trkpt lat="49.70576804410147" lon="19.982818003761803"><ele>470.3333333333333</ele><time>2026-04-16T07:38:42.999Z</time></trkpt><trkpt lat="49.70569696901097" lon="19.98286474253532"><ele>471.0</ele><time>2026-04-16T07:38:46.999Z</time></trkpt><trkpt lat="49.70561552759794" lon="19.982867125940892"><ele>471.0</ele><time>2026-04-16T07:38:52.999Z</time></trkpt><trkpt lat="49.7055487535578" lon="19.982868076354162"><ele>471.0</ele><time>2026-04-16T07:38:56.999Z</time></trkpt><trkpt lat="49.70548295987361" lon="19.98283434334848"><ele>471.0</ele><time>2026-04-16T07:39:00.999Z</time></trkpt><trkpt lat="49.70544520739552" lon="19.98293268224724"><ele>471.0</ele><time>2026-04-16T07:39:04.999Z</time></trkpt><trkpt lat="49.70536227281139" lon="19.982965094608346"><ele>471.0</ele><time>2026-04-16T07:39:07.999Z</time></trkpt><trkpt lat="49.705295470526046" lon="19.982990738385467"><ele>471.0</ele><time>2026-04-16T07:39:09.999Z</time></trkpt><trkpt lat="49.70518592795731" lon="19.98296661554707"><ele>471.1666666666667</ele><time>2026-04-16T07:39:17.999Z</time></trkpt><trkpt lat="49.70511590950571" lon="19.983018746562628"><ele>471.33333333333337</ele><time>2026-04-16T07:39:20.999Z</time></trkpt><trkpt lat="49.70500408225267" lon="19.983019561996194"><ele>471.5</ele><time>2026-04-16T07:39:22.998Z</time></trkpt><trkpt lat="49.70493851864689" lon="19.983064141537756"><ele>471.6666666666667</ele><time>2026-04-16T07:39:24.998Z</time></trkpt><trkpt lat="49.704852374771384" lon="19.983076540398468"><ele>471.83333333333337</ele><time>2026-04-16T07:39:27.998Z</time></trkpt><trkpt lat="49.704784989770495" lon="19.983105747475253"><ele>472.0</ele><time>2026-04-16T07:39:31.998Z</time></trkpt><trkpt lat="49.70471499289779" lon="19.983091964669804"><ele>472.00000000000006</ele><time>2026-04-16T07:39:34.998Z</time></trkpt><trkpt lat="49.70464263905271" lon="19.983091604033014"><ele>472.0</ele><time>2026-04-16T07:39:38.998Z</time></trkpt><trkpt lat="49.704568541990696" lon="19.983046745615706"><ele>472.0</ele><time>2026-04-16T07:39:40.998Z</time></trkpt><trkpt lat="49.70448764438194" lon="19.983081938225617"><ele>472.0</ele><time>2026-04-16T07:39:42.998Z</time></trkpt><trkpt lat="49.70441042712127" lon="19.98314707874526"><ele>472.00000000000006</ele><time>2026-04-16T07:39:46.998Z</time></trkpt><trkpt lat="49.704353600338074" lon="19.983218102502462"><ele>472.0</ele><time>2026-04-16T07:39:50.998Z</time></trkpt><trkpt lat="49.70429753354284" lon="19.983262743362044"><ele>473.6666666666667</ele><time>2026-04-16T07:39:53.998Z</time></trkpt><trkpt lat="49.704352808820055" lon="19.983337139930455"><ele>475.33333333333337</ele><time>2026-04-16T07:39:58.998Z</time></trkpt><trkpt lat="49.704267696150595" lon="19.98332507092804"><ele>477.0</ele><time>2026-04-16T07:40:04Z</time></trkpt><trkpt lat="49.70420185432569" lon="19.98335292153248"><ele>478.66666666666663</ele><time>2026-04-16T07:40:10Z</time></trkpt><trkpt lat="49.70411864065226" lon="19.983337804265027"><ele>480.3333333333333</ele><time>2026-04-16T07:40:13Z</time></trkpt><trkpt lat="49.70400797312507" lon="19.98333965932456"><ele>482.0</ele><time>2026-04-16T07:40:16Z</time></trkpt><trkpt lat="49.703931552467886" lon="19.983385084022004"><ele>484.8333333333333</ele><time>2026-04-16T07:40:20Z</time></trkpt><trkpt lat="49.703877237196956" lon="19.983452340271434"><ele>487.66666666666663</ele><time>2026-04-16T07:40:22Z</time></trkpt><trkpt lat="49.70382622597332" lon="19.983542780110014"><ele>490.5</ele><time>2026-04-16T07:40:24Z</time></trkpt><trkpt lat="49.70375042295748" lon="19.983623890028227"><ele>493.33333333333337</ele><time>2026-04-16T07:40:28Z</time></trkpt><trkpt lat="49.70367365580097" lon="19.983650138963345"><ele>496.1666666666667</ele><time>2026-04-16T07:40:33Z</time></trkpt><trkpt lat="49.70361847840355" lon="19.983584428277865"><ele>499.0</ele><time>2026-04-16T07:40:37Z</time></trkpt><trkpt lat="49.7035402513766" lon="19.98368185354016"><ele>499.28571428571433</ele><time>2026-04-16T07:40:39.999Z</time></trkpt><trkpt lat="49.70349857603925" lon="19.983588029293163"><ele>499.57142857142856</ele><time>2026-04-16T07:40:42.999Z</time></trkpt><trkpt lat="49.70344015150159" lon="19.983658778108534"><ele>499.8571428571429</ele><time>2026-04-16T07:40:53.999Z</time></trkpt><trkpt lat="49.70339403870602" lon="19.983749215024908"><ele>500.14285714285717</ele><time>2026-04-16T07:40:56.999Z</time></trkpt><trkpt lat="49.70335468312251" lon="19.98383869189688"><ele>500.42857142857144</ele><time>2026-04-16T07:40:59.999Z</time></trkpt><trkpt lat="49.70332501883626" lon="19.98392838043934"><ele>500.7142857142857</ele><time>2026-04-16T07:41:03.999Z</time></trkpt><trkpt lat="49.70325539352291" lon="19.98389439965649"><ele>501.0</ele><time>2026-04-16T07:41:06.999Z</time></trkpt><trkpt lat="49.70319244407414" lon="19.98388527496895"><ele>501.0</ele><time>2026-04-16T07:41:10.999Z</time></trkpt><trkpt lat="49.70314022187067" lon="19.984004337888404"><ele>501.0</ele><time>2026-04-16T07:41:13.999Z</time></trkpt><trkpt lat="49.70306599664617" lon="19.984013732683287"><ele>501.0</ele><time>2026-04-16T07:41:15.999Z</time></trkpt><trkpt lat="49.70302682078295" lon="19.98413091189265"><ele>501.0</ele><time>2026-04-16T07:41:18.999Z</time></trkpt><trkpt lat="49.70295592484249" lon="19.98414780639097"><ele>501.0</ele><time>2026-04-16T07:41:20.999Z</time></trkpt><trkpt lat="49.702869876936894" lon="19.98416627015236"><ele>501.0</ele><time>2026-04-16T07:41:23.999Z</time></trkpt><trkpt lat="49.70280444031263" lon="19.98415358884303"><ele>503.6666666666667</ele><time>2026-04-16T07:41:24.999Z</time></trkpt><trkpt lat="49.70279362550803" lon="19.984261348851245"><ele>506.33333333333337</ele><time>2026-04-16T07:41:26.999Z</time></trkpt><trkpt lat="49.70283203549636" lon="19.984416829259988"><ele>509.0</ele><time>2026-04-16T07:41:28.999Z</time></trkpt><trkpt lat="49.702849528411264" lon="19.984533542132677"><ele>511.6666666666667</ele><time>2026-04-16T07:41:29.999Z</time></trkpt><trkpt lat="49.70287157706892" lon="19.984686743854482"><ele>514.3333333333334</ele><time>2026-04-16T07:41:31.999Z</time></trkpt><trkpt lat="49.702930741797736" lon="19.98479395725488"><ele>517.0</ele><time>2026-04-16T07:41:33.999Z</time></trkpt><trkpt lat="49.70297665826574" lon="19.984867022901412"><ele>517.0</ele><time>2026-04-16T07:41:34.998Z</time></trkpt><trkpt lat="49.70303002914296" lon="19.98492803762949"><ele>517.0</ele><time>2026-04-16T07:41:35.998Z</time></trkpt><trkpt lat="49.7030686400076" lon="19.985006305756954"><ele>517.0</ele><time>2026-04-16T07:41:36.998Z</time></trkpt><trkpt lat="49.70312645796962" lon="19.985164992243565"><ele>517.0</ele><time>2026-04-16T07:41:38.998Z</time></trkpt><trkpt lat="49.70313762265181" lon="19.985268382368073"><ele>517.0</ele><time>2026-04-16T07:41:39.998Z</time></trkpt><trkpt lat="49.70315860103095" lon="19.98544490393174"><ele>517.0</ele><time>2026-04-16T07:41:41.998Z</time></trkpt><trkpt lat="49.70311841039367" lon="19.985534575914553"><ele>519.6</ele><time>2026-04-16T07:41:43.998Z</time></trkpt><trkpt lat="49.703152270179366" lon="19.985714787466552"><ele>522.2</ele><time>2026-04-16T07:41:45.998Z</time></trkpt><trkpt lat="49.70316572570237" lon="19.985869252626834"><ele>524.8</ele><time>2026-04-16T07:41:47.998Z</time></trkpt><trkpt lat="49.703173474246306" lon="19.985988447209756"><ele>527.4</ele><time>2026-04-16T07:41:48.998Z</time></trkpt><trkpt lat="49.703168142348346" lon="19.986103850654597"><ele>530.0</ele><time>2026-04-16T07:41:49.998Z</time></trkpt><trkpt lat="49.70316599233332" lon="19.986247221788783"><ele>530.1428571428571</ele><time>2026-04-16T07:41:51.998Z</time></trkpt><trkpt lat="49.70318675157183" lon="19.986430989860477"><ele>530.2857142857142</ele><time>2026-04-16T07:41:53.998Z</time></trkpt><trkpt lat="49.703194280228836" lon="19.986528089242196"><ele>530.4285714285714</ele><time>2026-04-16T07:41:54.998Z</time></trkpt><trkpt lat="49.70318379178714" lon="19.98663516538664"><ele>530.5714285714286</ele><time>2026-04-16T07:41:55.998Z</time></trkpt><trkpt lat="49.703206949410266" lon="19.98672824376415"><ele>530.7142857142858</ele><time>2026-04-16T07:41:56.998Z</time></trkpt><trkpt lat="49.703185470725614" lon="19.986825493925323"><ele>530.8571428571429</ele><time>2026-04-16T07:41:59.998Z</time></trkpt><trkpt lat="49.70321348608838" lon="19.98691440313708"><ele>531.0</ele><time>2026-04-16T07:42:01.998Z</time></trkpt><trkpt lat="49.70323718052059" lon="19.987096128586252"><ele>531.0</ele><time>2026-04-16T07:42:03.998Z</time></trkpt><trkpt lat="49.70323605036791" lon="19.98725566904362"><ele>531.0</ele><time>2026-04-16T07:42:05.998Z</time></trkpt><trkpt lat="49.70321974791649" lon="19.987359334303395"><ele>531.0</ele><time>2026-04-16T07:42:06.998Z</time></trkpt><trkpt lat="49.70320805784331" lon="19.98754534186107"><ele>531.0</ele><time>2026-04-16T07:42:09Z</time></trkpt><trkpt lat="49.70317640312833" lon="19.987647300995828"><ele>531.0</ele><time>2026-04-16T07:42:11Z</time></trkpt><trkpt lat="49.70315377564672" lon="19.987739087044506"><ele>531.0</ele><time>2026-04-16T07:42:13Z</time></trkpt><trkpt lat="49.70315016147598" lon="19.987861045293993"><ele>529.5</ele><time>2026-04-16T07:42:15Z</time></trkpt><trkpt lat="49.70312992376331" lon="19.987969079741273"><ele>528.0</ele><time>2026-04-16T07:42:19Z</time></trkpt><trkpt lat="49.70306380940303" lon="19.988064026504645"><ele>526.5</ele><time>2026-04-16T07:42:22Z</time></trkpt><trkpt lat="49.703041152322214" lon="19.98816822696022"><ele>525.0</ele><time>2026-04-16T07:42:26Z</time></trkpt><trkpt lat="49.70298423124087" lon="19.988287404838186"><ele>523.5</ele><time>2026-04-16T07:42:28Z</time></trkpt><trkpt lat="49.70299159326807" lon="19.98841844234541"><ele>522.0</ele><time>2026-04-16T07:42:30Z</time></trkpt><trkpt lat="49.70296222340911" lon="19.988564247716866"><ele>521.0</ele><time>2026-04-16T07:42:32Z</time></trkpt><trkpt lat="49.70295718556473" lon="19.98867507870492"><ele>520.0</ele><time>2026-04-16T07:42:33Z</time></trkpt><trkpt lat="49.70291133882153" lon="19.98881231870336"><ele>519.0</ele><time>2026-04-16T07:42:35Z</time></trkpt><trkpt lat="49.702886086381895" lon="19.988963476158663"><ele>518.0</ele><time>2026-04-16T07:42:36Z</time></trkpt><trkpt lat="49.70284724687241" lon="19.989150490472134"><ele>517.0</ele><time>2026-04-16T07:42:38Z</time></trkpt><trkpt lat="49.70284192018127" lon="19.989264208167967"><ele>516.3333333333334</ele><time>2026-04-16T07:42:39Z</time></trkpt><trkpt lat="49.70284431192168" lon="19.989467901938255"><ele>515.6666666666667</ele><time>2026-04-16T07:42:42Z</time></trkpt><trkpt lat="49.70290695029165" lon="19.989518853665366"><ele>515.0</ele><time>2026-04-16T07:43:20.999Z</time></trkpt><trkpt lat="49.70284425385456" lon="19.989489970924286"><ele>514.3333333333334</ele><time>2026-04-16T07:43:36.999Z</time></trkpt><trkpt lat="49.70279667999293" lon="19.98956234743134"><ele>513.6666666666666</ele><time>2026-04-16T07:45:07.999Z</time></trkpt><trkpt lat="49.70286543942541" lon="19.989542186173964"><ele>513.0</ele><time>2026-04-16T07:45:30.999Z</time></trkpt><trkpt lat="49.70281267471794" lon="19.989484457515868"><ele>513.0</ele><time>2026-04-16T07:49:39.999Z</time></trkpt><trkpt lat="49.70276282380871" lon="19.989550720357332"><ele>513.0</ele><time>2026-04-16T07:49:51.999Z</time></trkpt><trkpt lat="49.70288308624936" lon="19.989578862819144"><ele>513.0</ele><time>2026-04-16T07:50:14.998Z</time></trkpt><trkpt lat="49.70285154356624" lon="19.98967999807159"><ele>513.0</ele><time>2026-04-16T07:50:16.998Z</time></trkpt><trkpt lat="49.702862757321036" lon="19.989813904936597"><ele>513.0</ele><time>2026-04-16T07:50:18.998Z</time></trkpt><trkpt lat="49.702851783794884" lon="19.98995166438264"><ele>513.0</ele><time>2026-04-16T07:50:20.998Z</time></trkpt><trkpt lat="49.70284502931513" lon="19.990086264584633"><ele>512.6</ele><time>2026-04-16T07:50:22.998Z</time></trkpt><trkpt lat="49.70283249188956" lon="19.99022148190575"><ele>512.1999999999999</ele><time>2026-04-16T07:50:24.998Z</time></trkpt><trkpt lat="49.70283568811738" lon="19.990355744344644"><ele>511.8</ele><time>2026-04-16T07:50:25.998Z</time></trkpt><trkpt lat="49.702828512702574" lon="19.990546118741676"><ele>511.4</ele><time>2026-04-16T07:50:27.998Z</time></trkpt><trkpt lat="49.70282143712416" lon="19.99069203082331"><ele>511.0</ele><time>2026-04-16T07:50:29.998Z</time></trkpt><trkpt lat="49.70282127805624" lon="19.990835583879424"><ele>511.4</ele><time>2026-04-16T07:50:31.998Z</time></trkpt><trkpt lat="49.70281001037313" lon="19.991008486188523"><ele>511.8</ele><time>2026-04-16T07:50:34Z</time></trkpt><trkpt lat="49.702754710337274" lon="19.991159211943113"><ele>512.1999999999999</ele><time>2026-04-16T07:50:36Z</time></trkpt><trkpt lat="49.70275431663944" lon="19.991294381748602"><ele>512.6</ele><time>2026-04-16T07:50:38Z</time></trkpt><trkpt lat="49.70274074750948" lon="19.991438765208233"><ele>513.0</ele><time>2026-04-16T07:50:40Z</time></trkpt><trkpt lat="49.70270282917161" lon="19.991556194230064"><ele>512.5</ele><time>2026-04-16T07:50:42Z</time></trkpt><trkpt lat="49.70273147498157" lon="19.991665235556727"><ele>512.0</ele><time>2026-04-16T07:50:43Z</time></trkpt><trkpt lat="49.70275114487775" lon="19.991762494961435"><ele>511.5</ele><time>2026-04-16T07:50:44Z</time></trkpt><trkpt lat="49.70278731664436" lon="19.991906329941955"><ele>511.0</ele><time>2026-04-16T07:50:45Z</time></trkpt><trkpt lat="49.70280783161172" lon="19.99203258157552"><ele>510.5</ele><time>2026-04-16T07:50:47Z</time></trkpt><trkpt lat="49.70278618699663" lon="19.992125807445493"><ele>510.0</ele><time>2026-04-16T07:50:48Z</time></trkpt><trkpt lat="49.70277041828012" lon="19.99224816615807"><ele>510.0</ele><time>2026-04-16T07:50:50Z</time></trkpt><trkpt lat="49.70281750942576" lon="19.992363356050852"><ele>510.0</ele><time>2026-04-16T07:50:59Z</time></trkpt><trkpt lat="49.70287835275733" lon="19.992468666471876"><ele>510.0</ele><time>2026-04-16T07:51:02Z</time></trkpt><trkpt lat="49.70297399618231" lon="19.992584958715135"><ele>510.0</ele><time>2026-04-16T07:51:05Z</time></trkpt><trkpt lat="49.70308127502189" lon="19.992678446199694"><ele>510.0</ele><time>2026-04-16T07:51:08Z</time></trkpt><trkpt lat="49.703162789517314" lon="19.992710215523356"><ele>508.6666666666667</ele><time>2026-04-16T07:51:10Z</time></trkpt><trkpt lat="49.703217701999776" lon="19.992771488910034"><ele>507.33333333333337</ele><time>2026-04-16T07:51:12Z</time></trkpt><trkpt lat="49.703270757908605" lon="19.992856673019254"><ele>506.0</ele><time>2026-04-16T07:51:14Z</time></trkpt><trkpt lat="49.70333028031579" lon="19.992904747628202"><ele>504.6666666666667</ele><time>2026-04-16T07:51:15Z</time></trkpt><trkpt lat="49.70338565097588" lon="19.992997899705326"><ele>503.33333333333337</ele><time>2026-04-16T07:51:17.999Z</time></trkpt><trkpt lat="49.703458988074125" lon="19.993068635534247"><ele>502.0</ele><time>2026-04-16T07:51:20.999Z</time></trkpt><trkpt lat="49.70350533227678" lon="19.99318721837932"><ele>502.00000000000006</ele><time>2026-04-16T07:51:22.999Z</time></trkpt><trkpt lat="49.7035463440429" lon="19.99327482225392"><ele>502.0</ele><time>2026-04-16T07:51:24.999Z</time></trkpt><trkpt lat="49.70360472940528" lon="19.993376065862506"><ele>502.0</ele><time>2026-04-16T07:51:27.999Z</time></trkpt><trkpt lat="49.7036718901017" lon="19.993439224053567"><ele>502.0</ele><time>2026-04-16T07:51:29.999Z</time></trkpt><trkpt lat="49.70376229488361" lon="19.993527419676607"><ele>502.00000000000006</ele><time>2026-04-16T07:51:31.999Z</time></trkpt><trkpt lat="49.7038478457378" lon="19.99358554370116"><ele>502.0</ele><time>2026-04-16T07:51:33.999Z</time></trkpt><trkpt lat="49.70390030410724" lon="19.99365887078158"><ele>498.33333333333337</ele><time>2026-04-16T07:51:34.999Z</time></trkpt><trkpt lat="49.70396265394763" lon="19.993732080202435"><ele>494.6666666666667</ele><time>2026-04-16T07:51:35.999Z</time></trkpt><trkpt lat="49.704031936067246" lon="19.99380895562844"><ele>491.0</ele><time>2026-04-16T07:51:37.999Z</time></trkpt><trkpt lat="49.70409537263539" lon="19.99382552431905"><ele>487.33333333333337</ele><time>2026-04-16T07:51:38.999Z</time></trkpt><trkpt lat="49.7041707681222" lon="19.993907707140743"><ele>483.6666666666667</ele><time>2026-04-16T07:51:40.999Z</time></trkpt><trkpt lat="49.70425328794571" lon="19.993899665597237"><ele>480.0</ele><time>2026-04-16T07:51:42.999Z</time></trkpt><trkpt lat="49.704344976869685" lon="19.993875776370743"><ele>477.3333333333333</ele><time>2026-04-16T07:51:46.999Z</time></trkpt><trkpt lat="49.70445364087391" lon="19.99388102815899"><ele>474.66666666666663</ele><time>2026-04-16T07:51:48.999Z</time></trkpt><trkpt lat="49.70450460133197" lon="19.993963328940858"><ele>472.0</ele><time>2026-04-16T07:51:49.999Z</time></trkpt><trkpt lat="49.70459596371148" lon="19.993935084055313"><ele>469.3333333333333</ele><time>2026-04-16T07:51:52.999Z</time></trkpt><trkpt lat="49.704664827177865" lon="19.99394393739871"><ele>466.66666666666663</ele><time>2026-04-16T07:51:55.999Z</time></trkpt><trkpt lat="49.70476108103038" lon="19.99391921097293"><ele>464.0</ele><time>2026-04-16T07:51:57.999Z</time></trkpt><trkpt lat="49.70482201069083" lon="19.993837440789562"><ele>463.99999999999994</ele><time>2026-04-16T07:52:00.999Z</time></trkpt><trkpt lat="49.70486089633166" lon="19.99375118165581"><ele>464.0</ele><time>2026-04-16T07:52:02.999Z</time></trkpt><trkpt lat="49.70493581946234" lon="19.993711881330245"><ele>464.0</ele><time>2026-04-16T07:52:04.999Z</time></trkpt><trkpt lat="49.70503531190477" lon="19.993645325061376"><ele>464.0</ele><time>2026-04-16T07:52:07.999Z</time></trkpt><trkpt lat="49.70508690246238" lon="19.993561390736467"><ele>463.99999999999994</ele><time>2026-04-16T07:52:10.998Z</time></trkpt><trkpt lat="49.705117702203545" lon="19.993446935411942"><ele>464.0</ele><time>2026-04-16T07:52:13.998Z</time></trkpt><trkpt lat="49.705186623121485" lon="19.99344000495638"><ele>461.16666666666663</ele><time>2026-04-16T07:52:14.998Z</time></trkpt><trkpt lat="49.705266041749944" lon="19.993409766284"><ele>458.3333333333333</ele><time>2026-04-16T07:52:16.998Z</time></trkpt><trkpt lat="49.70535432085511" lon="19.99338936383754"><ele>455.5</ele><time>2026-04-16T07:52:18.998Z</time></trkpt><trkpt lat="49.70541944193471" lon="19.993364084322756"><ele>452.66666666666663</ele><time>2026-04-16T07:52:20.998Z</time></trkpt><trkpt lat="49.705507182586835" lon="19.993312226420272"><ele>449.8333333333333</ele><time>2026-04-16T07:52:23.998Z</time></trkpt><trkpt lat="49.70559263706267" lon="19.993318351716912"><ele>447.0</ele><time>2026-04-16T07:52:25.998Z</time></trkpt><trkpt lat="49.70566400817809" lon="19.99330189788705"><ele>447.0</ele><time>2026-04-16T07:52:27.998Z</time></trkpt><trkpt lat="49.705738801912695" lon="19.993336543212884"><ele>447.0</ele><time>2026-04-16T07:52:29.998Z</time></trkpt><trkpt lat="49.70580789098355" lon="19.993395615813373"><ele>447.0</ele><time>2026-04-16T07:52:32.998Z</time></trkpt><trkpt lat="49.705868656109736" lon="19.993475795956765"><ele>447.0</ele><time>2026-04-16T07:52:34.998Z</time></trkpt><trkpt lat="49.70589378882589" lon="19.993595965465897"><ele>447.0</ele><time>2026-04-16T07:52:36.998Z</time></trkpt><trkpt lat="49.70594427731213" lon="19.993690101206028"><ele>447.0</ele><time>2026-04-16T07:52:40Z</time></trkpt><trkpt lat="49.706014612086044" lon="19.993747321065843"><ele>444.5</ele><time>2026-04-16T07:52:42Z</time></trkpt><trkpt lat="49.70608490631239" lon="19.99380305334326"><ele>442.0</ele><time>2026-04-16T07:52:47Z</time></trkpt><trkpt lat="49.706123122664366" lon="19.993888215494515"><ele>439.5</ele><time>2026-04-16T07:52:50Z</time></trkpt><trkpt lat="49.70616500537169" lon="19.99400995683465"><ele>437.0</ele><time>2026-04-16T07:52:53Z</time></trkpt><trkpt lat="49.70621781873055" lon="19.9941224352377"><ele>434.5</ele><time>2026-04-16T07:52:55Z</time></trkpt><trkpt lat="49.70626470862902" lon="19.994244411269328"><ele>432.0</ele><time>2026-04-16T07:52:58Z</time></trkpt><trkpt lat="49.706325291792005" lon="19.994316590947463"><ele>432.0</ele><time>2026-04-16T07:53:01Z</time></trkpt><trkpt lat="49.70637161726489" lon="19.99440971671404"><ele>432.0</ele><time>2026-04-16T07:53:04Z</time></trkpt><trkpt lat="49.70629513532842" lon="19.99452318929097"><ele>432.0</ele><time>2026-04-16T07:53:24.999Z</time></trkpt><trkpt lat="49.706236406116105" lon="19.994592053633657"><ele>432.0</ele><time>2026-04-16T07:53:29.999Z</time></trkpt><trkpt lat="49.70615728818241" lon="19.994607147938282"><ele>432.0</ele><time>2026-04-16T07:53:33.999Z</time></trkpt><trkpt lat="49.70609344739087" lon="19.994606629906503"><ele>432.0</ele><time>2026-04-16T07:53:35.999Z</time></trkpt><trkpt lat="49.70603568337791" lon="19.994665926013642"><ele>433.6666666666667</ele><time>2026-04-16T07:53:43.999Z</time></trkpt><trkpt lat="49.70596908554376" lon="19.99467771289034"><ele>435.33333333333337</ele><time>2026-04-16T07:53:46.999Z</time></trkpt><trkpt lat="49.70588200635242" lon="19.9946344133946"><ele>437.0</ele><time>2026-04-16T07:53:49.999Z</time></trkpt><trkpt lat="49.705828439828146" lon="19.994568411267906"><ele>438.6666666666667</ele><time>2026-04-16T07:53:50.999Z</time></trkpt><trkpt lat="49.70574163280819" lon="19.994543471239616"><ele>440.33333333333337</ele><time>2026-04-16T07:53:54.999Z</time></trkpt><trkpt lat="49.70567347415622" lon="19.99455306531101"><ele>442.0</ele><time>2026-04-16T07:53:59.999Z</time></trkpt><trkpt lat="49.7055936918152" lon="19.994547231581347"><ele>442.00000000000006</ele><time>2026-04-16T07:54:03.999Z</time></trkpt><trkpt lat="49.705538517169366" lon="19.994632711100422"><ele>442.0</ele><time>2026-04-16T07:54:11.998Z</time></trkpt><trkpt lat="49.70547431643029" lon="19.994627184136515"><ele>442.0</ele><time>2026-04-16T07:54:14.998Z</time></trkpt><trkpt lat="49.70540667356358" lon="19.994629235336582"><ele>442.0</ele><time>2026-04-16T07:54:17.998Z</time></trkpt><trkpt lat="49.705340794124815" lon="19.994632165079548"><ele>442.0</ele><time>2026-04-16T07:54:23.998Z</time></trkpt><trkpt lat="49.70526463981897" lon="19.994643373317984"><ele>442.00000000000006</ele><time>2026-04-16T07:54:26.998Z</time></trkpt><trkpt lat="49.70519959322051" lon="19.994655547711876"><ele>442.0</ele><time>2026-04-16T07:54:32.998Z</time></trkpt><trkpt lat="49.70512586759986" lon="19.994675382750792"><ele>445.00000000000006</ele><time>2026-04-16T07:54:36.998Z</time></trkpt><trkpt lat="49.705045394837725" lon="19.99468869512349"><ele>448.0</ele><time>2026-04-16T07:54:38.998Z</time></trkpt><trkpt lat="49.70514978241284" lon="19.994762092361018"><ele>451.0</ele><time>2026-04-16T07:54:51Z</time></trkpt><trkpt lat="49.70507770889869" lon="19.99473276733315"><ele>454.0</ele><time>2026-04-16T07:54:53Z</time></trkpt><trkpt lat="49.705015346026414" lon="19.994699523796793"><ele>457.00000000000006</ele><time>2026-04-16T07:54:55Z</time></trkpt><trkpt lat="49.704945170401096" lon="19.99472755641719"><ele>460.0</ele><time>2026-04-16T07:55:03Z</time></trkpt><trkpt lat="49.70499855040707" lon="19.994806205606004"><ele>460.00000000000006</ele><time>2026-04-16T07:55:08Z</time></trkpt><trkpt lat="49.70501841326014" lon="19.994912826192667"><ele>460.0</ele><time>2026-04-16T07:55:13Z</time></trkpt><trkpt lat="49.70507637208955" lon="19.995004066692918"><ele>460.0</ele><time>2026-04-16T07:55:16Z</time></trkpt><trkpt lat="49.70504408222648" lon="19.995112510193202"><ele>460.0</ele><time>2026-04-16T07:55:18Z</time></trkpt><trkpt lat="49.7050205933606" lon="19.995248068654675"><ele>460.00000000000006</ele><time>2026-04-16T07:55:21Z</time></trkpt><trkpt lat="49.704986202133995" lon="19.99534543862477"><ele>460.0</ele><time>2026-04-16T07:55:23Z</time></trkpt><trkpt lat="49.705001202683825" lon="19.995447157825932"><ele>459.83333333333337</ele><time>2026-04-16T07:55:25Z</time></trkpt><trkpt lat="49.70501688071544" lon="19.995543137562226"><ele>459.6666666666667</ele><time>2026-04-16T07:55:27.999Z</time></trkpt><trkpt lat="49.704965490573585" lon="19.995636982065378"><ele>459.5</ele><time>2026-04-16T07:55:32.999Z</time></trkpt><trkpt lat="49.7049816495826" lon="19.995745607831537"><ele>459.33333333333337</ele><time>2026-04-16T07:55:39.999Z</time></trkpt><trkpt lat="49.70503302210921" lon="19.995923468518274"><ele>459.1666666666667</ele><time>2026-04-16T07:55:41.999Z</time></trkpt><trkpt lat="49.705061722282025" lon="19.99602327217032"><ele>459.0</ele><time>2026-04-16T07:55:42.999Z</time></trkpt><trkpt lat="49.70507762199417" lon="19.996153241764"><ele>459.5</ele><time>2026-04-16T07:55:44.999Z</time></trkpt><trkpt lat="49.70509835146272" lon="19.996262590185417"><ele>460.0</ele><time>2026-04-16T07:55:45.999Z</time></trkpt><trkpt lat="49.705102256750656" lon="19.99636583868196"><ele>460.5</ele><time>2026-04-16T07:55:47.999Z</time></trkpt><trkpt lat="49.70519944511177" lon="19.99644409587295"><ele>461.0</ele><time>2026-04-16T07:55:51.999Z</time></trkpt><trkpt lat="49.70527108170895" lon="19.996407397157135"><ele>461.5</ele><time>2026-04-16T07:55:52.999Z</time></trkpt><trkpt lat="49.70534370943646" lon="19.996393252955066"><ele>462.0</ele><time>2026-04-16T07:55:53.999Z</time></trkpt><trkpt lat="49.70543990275587" lon="19.99637882250217"><ele>459.0</ele><time>2026-04-16T07:55:55.999Z</time></trkpt><trkpt lat="49.70553017654889" lon="19.996368461757797"><ele>456.0</ele><time>2026-04-16T07:55:57.999Z</time></trkpt><trkpt lat="49.70561019380375" lon="19.996401010197424"><ele>453.0</ele><time>2026-04-16T07:55:59.999Z</time></trkpt><trkpt lat="49.705691980584156" lon="19.996479552438977"><ele>450.0</ele><time>2026-04-16T07:56:01.999Z</time></trkpt><trkpt lat="49.70573218703207" lon="19.99656032274823"><ele>447.0</ele><time>2026-04-16T07:56:03.999Z</time></trkpt><trkpt lat="49.70582024642772" lon="19.99659213334524"><ele>444.0</ele><time>2026-04-16T07:56:04.999Z</time></trkpt><trkpt lat="49.70590957376039" lon="19.996638957110484"><ele>444.6666666666667</ele><time>2026-04-16T07:56:06.999Z</time></trkpt><trkpt lat="49.70598358500692" lon="19.996681111868618"><ele>445.33333333333337</ele><time>2026-04-16T07:56:08.999Z</time></trkpt><trkpt lat="49.7060190294665" lon="19.996771899557015"><ele>446.0</ele><time>2026-04-16T07:56:11.999Z</time></trkpt><trkpt lat="49.70600920760105" lon="19.996868322097637"><ele>446.6666666666667</ele><time>2026-04-16T07:56:12.999Z</time></trkpt><trkpt lat="49.705980238676645" lon="19.99703495435549"><ele>447.33333333333337</ele><time>2026-04-16T07:56:14.999Z</time></trkpt><trkpt lat="49.70595281281906" lon="19.997145758496405"><ele>448.0</ele><time>2026-04-16T07:56:16.999Z</time></trkpt><trkpt lat="49.705972329552125" lon="19.997355750725095"><ele>447.4</ele><time>2026-04-16T07:56:18.998Z</time></trkpt><trkpt lat="49.70595984308822" lon="19.997504082423987"><ele>446.79999999999995</ele><time>2026-04-16T07:56:20.998Z</time></trkpt><trkpt lat="49.70596069976876" lon="19.997638449857476"><ele>446.2</ele><time>2026-04-16T07:56:22.998Z</time></trkpt><trkpt lat="49.7059397977626" lon="19.99779774738145"><ele>445.6</ele><time>2026-04-16T07:56:24.998Z</time></trkpt><trkpt lat="49.70597135774001" lon="19.997932742379273"><ele>445.0</ele><time>2026-04-16T07:56:25.998Z</time></trkpt><trkpt lat="49.705956207051315" lon="19.998076585472756"><ele>445.00000000000006</ele><time>2026-04-16T07:56:27.998Z</time></trkpt><trkpt lat="49.70589902541177" lon="19.998169388707453"><ele>445.0</ele><time>2026-04-16T07:56:29.998Z</time></trkpt><trkpt lat="49.705863462650335" lon="19.99827557499432"><ele>445.0</ele><time>2026-04-16T07:56:33.998Z</time></trkpt><trkpt lat="49.705813791886385" lon="19.99834202533467"><ele>445.0</ele><time>2026-04-16T07:56:37.998Z</time></trkpt><trkpt lat="49.705780591032024" lon="19.998449612503713"><ele>445.00000000000006</ele><time>2026-04-16T07:56:43.998Z</time></trkpt><trkpt lat="49.70571824791816" lon="19.998482555936484"><ele>445.0</ele><time>2026-04-16T07:56:46.998Z</time></trkpt><trkpt lat="49.705635904830245" lon="19.998505340649512"><ele>445.0</ele><time>2026-04-16T07:56:49.998Z</time></trkpt><trkpt lat="49.7055940620955" lon="19.998427924463865"><ele>445.0</ele><time>2026-04-16T07:56:54Z</time></trkpt><trkpt lat="49.70553092280354" lon="19.998399709485156"><ele>445.0</ele><time>2026-04-16T07:56:58Z</time></trkpt><trkpt lat="49.705457101278675" lon="19.99838994221642"><ele>445.0</ele><time>2026-04-16T07:57:03Z</time></trkpt><trkpt lat="49.70539564770573" lon="19.998367504701275"><ele>445.0</ele><time>2026-04-16T07:57:06Z</time></trkpt><trkpt lat="49.705333477030315" lon="19.998321845132235"><ele>445.0</ele><time>2026-04-16T07:57:17Z</time></trkpt><trkpt lat="49.7053094571703" lon="19.998229654843808"><ele>445.0</ele><time>2026-04-16T07:57:26Z</time></trkpt><trkpt lat="49.70521549234615" lon="19.998204558972546"><ele>446.83333333333337</ele><time>2026-04-16T07:57:39.999Z</time></trkpt><trkpt lat="49.70513273356915" lon="19.998121569733904"><ele>448.6666666666667</ele><time>2026-04-16T07:57:45.999Z</time></trkpt><trkpt lat="49.70508378911753" lon="19.99804751415305"><ele>450.5</ele><time>2026-04-16T07:57:47.999Z</time></trkpt><trkpt lat="49.70500139064021" lon="19.99802208950475"><ele>452.33333333333337</ele><time>2026-04-16T07:57:49.999Z</time></trkpt><trkpt lat="49.7049471652509" lon="19.997964444247042"><ele>454.1666666666667</ele><time>2026-04-16T07:57:50.999Z</time></trkpt><trkpt lat="49.70489053192065" lon="19.997872828969925"><ele>456.0</ele><time>2026-04-16T07:57:58.999Z</time></trkpt><trkpt lat="49.70479852155091" lon="19.997884782411383"><ele>456.0</ele><time>2026-04-16T07:58:00.999Z</time></trkpt><trkpt lat="49.70472874758469" lon="19.997883622864514"><ele>456.0</ele><time>2026-04-16T07:58:03.999Z</time></trkpt><trkpt lat="49.7046574577369" lon="19.99789446716101"><ele>456.0</ele><time>2026-04-16T07:58:20.999Z</time></trkpt><trkpt lat="49.704704542952264" lon="19.99797235689579"><ele>456.0</ele><time>2026-04-16T07:58:27.998Z</time></trkpt><trkpt lat="49.70474386858369" lon="19.998055090912075"><ele>456.0</ele><time>2026-04-16T07:58:31.998Z</time></trkpt><trkpt lat="49.704674122305654" lon="19.99795903205501"><ele>456.0</ele><time>2026-04-16T07:58:43.998Z</time></trkpt><trkpt lat="49.70462333574041" lon="19.997863270435992"><ele>456.0</ele><time>2026-04-16T07:59:00Z</time></trkpt><trkpt lat="49.70456078482634" lon="19.997804609707917"><ele>455.99999999999994</ele><time>2026-04-16T07:59:05Z</time></trkpt><trkpt lat="49.70449437490001" lon="19.997755580979355"><ele>456.0</ele><time>2026-04-16T07:59:10Z</time></trkpt><trkpt lat="49.70447365128332" lon="19.997859735737535"><ele>456.0</ele><time>2026-04-16T07:59:16Z</time></trkpt><trkpt lat="49.70443441869462" lon="19.99774014463226"><ele>455.99999999999994</ele><time>2026-04-16T07:59:22Z</time></trkpt><trkpt lat="49.70438476814079" lon="19.997802738020425"><ele>456.0</ele><time>2026-04-16T07:59:29Z</time></trkpt><trkpt lat="49.704391060007616" lon="19.997702890709323"><ele>456.0</ele><time>2026-04-16T08:00:06.999Z</time></trkpt><trkpt lat="49.704320157647985" lon="19.997648755707466"><ele>459.8333333333333</ele><time>2026-04-16T08:00:43.998Z</time></trkpt><trkpt lat="49.704403324738664" lon="19.99770178244534"><ele>463.66666666666663</ele><time>2026-04-16T08:00:52.998Z</time></trkpt><trkpt lat="49.704329646923306" lon="19.997696496972452"><ele>467.5</ele><time>2026-04-16T08:01:10Z</time></trkpt><trkpt lat="49.70427835522062" lon="19.997634171442087"><ele>471.3333333333333</ele><time>2026-04-16T08:01:14Z</time></trkpt><trkpt lat="49.70420010300172" lon="19.997690742900115"><ele>475.16666666666663</ele><time>2026-04-16T08:01:32Z</time></trkpt><trkpt lat="49.70414171229297" lon="19.997601913742862"><ele>479.0</ele><time>2026-04-16T08:01:39Z</time></trkpt><trkpt lat="49.70420518176806" lon="19.997581552718525"><ele>478.99999999999994</ele><time>2026-04-16T08:01:51.999Z</time></trkpt><trkpt lat="49.70412608895918" lon="19.997589260241522"><ele>479.0</ele><time>2026-04-16T08:01:55.999Z</time></trkpt><trkpt lat="49.7040627380777" lon="19.997486863551273"><ele>479.0</ele><time>2026-04-16T08:02:17.999Z</time></trkpt><trkpt lat="49.70399690835809" lon="19.99742547326269"><ele>479.0</ele><time>2026-04-16T08:02:27.999Z</time></trkpt><trkpt lat="49.70394626111634" lon="19.997324523813298"><ele>478.99999999999994</ele><time>2026-04-16T08:02:39.998Z</time></trkpt><trkpt lat="49.70387138608165" lon="19.997288503166523"><ele>479.0</ele><time>2026-04-16T08:02:50.998Z</time></trkpt><trkpt lat="49.70381475028049" lon="19.99735355372688"><ele>478.42857142857144</ele><time>2026-04-16T08:03:17Z</time></trkpt><trkpt lat="49.703812492126545" lon="19.997252749387023"><ele>477.8571428571429</ele><time>2026-04-16T08:03:39Z</time></trkpt><trkpt lat="49.7037594604998" lon="19.997184336086523"><ele>477.28571428571433</ele><time>2026-04-16T08:03:47Z</time></trkpt><trkpt lat="49.70366698667518" lon="19.997210926492215"><ele>476.7142857142857</ele><time>2026-04-16T08:04:00.999Z</time></trkpt><trkpt lat="49.703594383374956" lon="19.997200701932883"><ele>476.1428571428572</ele><time>2026-04-16T08:04:08.999Z</time></trkpt><trkpt lat="49.70353690808587" lon="19.997242308537533"><ele>475.5714285714286</ele><time>2026-04-16T08:04:17.999Z</time></trkpt><trkpt lat="49.7034692604003" lon="19.997216980340117"><ele>475.0</ele><time>2026-04-16T08:04:21.999Z</time></trkpt><trkpt lat="49.703428922387005" lon="19.99730121238077"><ele>476.83333333333337</ele><time>2026-04-16T08:04:31.999Z</time></trkpt><trkpt lat="49.70335283408983" lon="19.997311828649178"><ele>478.6666666666667</ele><time>2026-04-16T08:05:45Z</time></trkpt><trkpt lat="49.70329893500174" lon="19.997237232861124"><ele>480.5</ele><time>2026-04-16T08:05:49Z</time></trkpt><trkpt lat="49.70323519022244" lon="19.997181296705577"><ele>482.33333333333337</ele><time>2026-04-16T08:05:56.999Z</time></trkpt><trkpt lat="49.70314833343064" lon="19.997136966795"><ele>484.1666666666667</ele><time>2026-04-16T08:06:01.999Z</time></trkpt><trkpt lat="49.70307398610868" lon="19.997131715642382"><ele>486.0</ele><time>2026-04-16T08:06:05.999Z</time></trkpt><trkpt lat="49.70301061259709" lon="19.99712450743426"><ele>486.0</ele><time>2026-04-16T08:06:08.999Z</time></trkpt><trkpt lat="49.70292266949228" lon="19.997088288612293"><ele>486.0</ele><time>2026-04-16T08:06:14.999Z</time></trkpt><trkpt lat="49.70288753498544" lon="19.997173009844467"><ele>486.0</ele><time>2026-04-16T08:06:19.999Z</time></trkpt><trkpt lat="49.70290111296756" lon="19.99729373101608"><ele>486.0</ele><time>2026-04-16T08:06:26.999Z</time></trkpt><trkpt lat="49.70283717496214" lon="19.997265828290786"><ele>486.0</ele><time>2026-04-16T08:06:31.999Z</time></trkpt><trkpt lat="49.70275813026283" lon="19.9972701880039"><ele>486.0</ele><time>2026-04-16T08:06:37.999Z</time></trkpt><trkpt lat="49.702648952692535" lon="19.997239077787"><ele>487.5</ele><time>2026-04-16T08:06:44.998Z</time></trkpt><trkpt lat="49.702597854330094" lon="19.997301278682063"><ele>489.0</ele><time>2026-04-16T08:06:46.998Z</time></trkpt><trkpt lat="49.70248860533468" lon="19.99731382329563"><ele>490.5</ele><time>2026-04-16T08:06:49.998Z</time></trkpt><trkpt lat="49.70238594233671" lon="19.997333151321644"><ele>492.0</ele><time>2026-04-16T08:06:51.998Z</time></trkpt><trkpt lat="49.70231981903111" lon="19.99727240160312"><ele>493.5</ele><time>2026-04-16T08:06:54.998Z</time></trkpt><trkpt lat="49.70223213449595" lon="19.997277969007065"><ele>495.0</ele><time>2026-04-16T08:07:00.998Z</time></trkpt><trkpt lat="49.70214971908616" lon="19.997252239218643"><ele>494.99999999999994</ele><time>2026-04-16T08:07:04.998Z</time></trkpt><trkpt lat="49.70206908023359" lon="19.9972393878749"><ele>495.0</ele><time>2026-04-16T08:07:08.998Z</time></trkpt><trkpt lat="49.70200777062515" lon="19.997267955185677"><ele>494.99999999999994</ele><time>2026-04-16T08:07:30Z</time></trkpt><trkpt lat="49.70194329029219" lon="19.997272567120213"><ele>494.99999999999994</ele><time>2026-04-16T08:07:58.999Z</time></trkpt><trkpt lat="49.70187083521198" lon="19.997261973397226"><ele>495.0</ele><time>2026-04-16T08:08:04.999Z</time></trkpt><trkpt lat="49.701801756580316" lon="19.997304830178013"><ele>494.99999999999994</ele><time>2026-04-16T08:08:11.999Z</time></trkpt><trkpt lat="49.70173920330414" lon="19.997268258971356"><ele>494.99999999999994</ele><time>2026-04-16T08:08:17.999Z</time></trkpt><trkpt lat="49.70166174579512" lon="19.99728542434167"><ele>497.1666666666667</ele><time>2026-04-16T08:08:21.999Z</time></trkpt><trkpt lat="49.70160615057723" lon="19.997234778795402"><ele>499.33333333333337</ele><time>2026-04-16T08:08:22.999Z</time></trkpt><trkpt lat="49.70154946056985" lon="19.997345320285678"><ele>501.5</ele><time>2026-04-16T08:08:24.999Z</time></trkpt><trkpt lat="49.70148492678001" lon="19.997425932954428"><ele>503.6666666666667</ele><time>2026-04-16T08:08:30.999Z</time></trkpt><trkpt lat="49.70138916615188" lon="19.997424839619146"><ele>505.83333333333337</ele><time>2026-04-16T08:08:32.999Z</time></trkpt><trkpt lat="49.701320498697854" lon="19.997466209832307"><ele>508.0</ele><time>2026-04-16T08:08:34.999Z</time></trkpt><trkpt lat="49.701253594053995" lon="19.997440072648548"><ele>508.00000000000006</ele><time>2026-04-16T08:08:36.999Z</time></trkpt><trkpt lat="49.701187428377516" lon="19.997425516069757"><ele>508.0</ele><time>2026-04-16T08:08:40.999Z</time></trkpt><trkpt lat="49.70108984373124" lon="19.99746200541656"><ele>508.0</ele><time>2026-04-16T08:08:52.998Z</time></trkpt><trkpt lat="49.70102587921366" lon="19.99749542274005"><ele>508.0</ele><time>2026-04-16T08:09:06.998Z</time></trkpt><trkpt lat="49.700962820955155" lon="19.997540190405218"><ele>508.00000000000006</ele><time>2026-04-16T08:09:11.998Z</time></trkpt><trkpt lat="49.7008961530241" lon="19.997496607737535"><ele>508.0</ele><time>2026-04-16T08:09:18.998Z</time></trkpt><trkpt lat="49.700834376636" lon="19.997559091350716"><ele>512.0</ele><time>2026-04-16T08:09:32Z</time></trkpt><trkpt lat="49.70076005929274" lon="19.99758426800395"><ele>516.0</ele><time>2026-04-16T08:09:37Z</time></trkpt><trkpt lat="49.70066782171326" lon="19.99760776779678"><ele>520.0</ele><time>2026-04-16T08:09:44Z</time></trkpt><trkpt lat="49.70062174949687" lon="19.99767752446989"><ele>524.0</ele><time>2026-04-16T08:09:48Z</time></trkpt><trkpt lat="49.70056590747784" lon="19.997776081009143"><ele>528.0</ele><time>2026-04-16T08:09:56Z</time></trkpt><trkpt lat="49.70048453056615" lon="19.99778193907578"><ele>532.0</ele><time>2026-04-16T08:10:37.999Z</time></trkpt><trkpt lat="49.70039250180671" lon="19.9977914594776"><ele>532.0</ele><time>2026-04-16T08:10:42.999Z</time></trkpt><trkpt lat="49.7002620075613" lon="19.99773315908191"><ele>532.0</ele><time>2026-04-16T08:10:46.999Z</time></trkpt><trkpt lat="49.70023870113546" lon="19.997837675645545"><ele>532.0</ele><time>2026-04-16T08:10:51.999Z</time></trkpt><trkpt lat="49.70017349952854" lon="19.997853059783004"><ele>532.0</ele><time>2026-04-16T08:10:57.998Z</time></trkpt><trkpt lat="49.70009074426126" lon="19.997831641154864"><ele>532.0</ele><time>2026-04-16T08:11:01.998Z</time></trkpt><trkpt lat="49.69997459652205" lon="19.997846392521485"><ele>533.5</ele><time>2026-04-16T08:11:04.998Z</time></trkpt><trkpt lat="49.69990864136231" lon="19.997864766614374"><ele>535.0</ele><time>2026-04-16T08:11:05.998Z</time></trkpt><trkpt lat="49.699824519113385" lon="19.9978556917585"><ele>536.5</ele><time>2026-04-16T08:11:08.998Z</time></trkpt><trkpt lat="49.699724507584904" lon="19.997864855251205"><ele>538.0</ele><time>2026-04-16T08:11:14.998Z</time></trkpt><trkpt lat="49.6996629846255" lon="19.99788898624953"><ele>539.5</ele><time>2026-04-16T08:11:16.998Z</time></trkpt><trkpt lat="49.69958174520985" lon="19.997834663611805"><ele>541.0</ele><time>2026-04-16T08:11:20.998Z</time></trkpt><trkpt lat="49.69951625837802" lon="19.99793090474583"><ele>541.0</ele><time>2026-04-16T08:11:41Z</time></trkpt><trkpt lat="49.69942959602375" lon="19.99785776293221"><ele>541.0</ele><time>2026-04-16T08:11:43Z</time></trkpt><trkpt lat="49.69940584757112" lon="19.997720872472765"><ele>541.0</ele><time>2026-04-16T08:11:45Z</time></trkpt><trkpt lat="49.699342810426735" lon="19.997640777822223"><ele>541.0</ele><time>2026-04-16T08:11:47Z</time></trkpt><trkpt lat="49.699302426171286" lon="19.997543182069354"><ele>541.0</ele><time>2026-04-16T08:11:49Z</time></trkpt><trkpt lat="49.699243821397346" lon="19.997435196003877"><ele>541.0</ele><time>2026-04-16T08:11:54Z</time></trkpt><trkpt lat="49.6991881144752" lon="19.997364601290073"><ele>543.6666666666667</ele><time>2026-04-16T08:11:57Z</time></trkpt><trkpt lat="49.69911596491016" lon="19.997271595276217"><ele>546.3333333333334</ele><time>2026-04-16T08:12:01Z</time></trkpt><trkpt lat="49.699124819666146" lon="19.9971460929271"><ele>549.0</ele><time>2026-04-16T08:12:04Z</time></trkpt><trkpt lat="49.6990521642809" lon="19.99706813370134"><ele>551.6666666666666</ele><time>2026-04-16T08:12:07Z</time></trkpt><trkpt lat="49.69899670577352" lon="19.997145279374415"><ele>554.3333333333333</ele><time>2026-04-16T08:12:33.999Z</time></trkpt><trkpt lat="49.69899727808068" lon="19.99725216277405"><ele>557.0</ele><time>2026-04-16T08:12:45.999Z</time></trkpt><trkpt lat="49.699024499684604" lon="19.99734088926065"><ele>557.0</ele><time>2026-04-16T08:12:54.999Z</time></trkpt><trkpt lat="49.6990345269943" lon="19.99724156649203"><ele>557.0</ele><time>2026-04-16T08:13:03.998Z</time></trkpt><trkpt lat="49.699035030686176" lon="19.997126059745703"><ele>557.0</ele><time>2026-04-16T08:13:06.998Z</time></trkpt><trkpt lat="49.69907403008641" lon="19.997028659030427"><ele>557.0</ele><time>2026-04-16T08:13:12.998Z</time></trkpt><trkpt lat="49.69910112523179" lon="19.996916454123888"><ele>557.0</ele><time>2026-04-16T08:13:16.998Z</time></trkpt><trkpt lat="49.6990365276658" lon="19.99690442814295"><ele>557.0</ele><time>2026-04-16T08:13:29.998Z</time></trkpt><trkpt lat="49.69896115792548" lon="19.99692092910001"><ele>557.0</ele><time>2026-04-16T08:13:36.998Z</time></trkpt><trkpt lat="49.69889982387916" lon="19.996867970811994"><ele>557.0</ele><time>2026-04-16T08:13:39Z</time></trkpt><trkpt lat="49.69883718337658" lon="19.996891729698064"><ele>557.0</ele><time>2026-04-16T08:13:47Z</time></trkpt><trkpt lat="49.698849550768614" lon="19.996987300844218"><ele>557.0</ele><time>2026-04-16T08:13:55Z</time></trkpt><trkpt lat="49.698809990138514" lon="19.997081238933678"><ele>557.0</ele><time>2026-04-16T08:13:59Z</time></trkpt><trkpt lat="49.6988311817996" lon="19.99698054125111"><ele>557.0</ele><time>2026-04-16T08:14:10Z</time></trkpt><trkpt lat="49.69889348803198" lon="19.99692677736896"><ele>557.0</ele><time>2026-04-16T08:14:14Z</time></trkpt><trkpt lat="49.69894086465139" lon="19.99683466625419"><ele>557.0</ele><time>2026-04-16T08:14:17Z</time></trkpt><trkpt lat="49.69897252667898" lon="19.996742838198813"><ele>560.2857142857143</ele><time>2026-04-16T08:14:19.999Z</time></trkpt><trkpt lat="49.698962099118326" lon="19.99662170260058"><ele>563.5714285714286</ele><time>2026-04-16T08:14:26.999Z</time></trkpt><trkpt lat="49.698981534768045" lon="19.996503743385368"><ele>566.8571428571429</ele><time>2026-04-16T08:15:31.998Z</time></trkpt><trkpt lat="49.69904583274103" lon="19.996458484184583"><ele>570.1428571428571</ele><time>2026-04-16T08:15:37.998Z</time></trkpt><trkpt lat="49.69902917815424" lon="19.99656181066139"><ele>573.4285714285714</ele><time>2026-04-16T08:15:59Z</time></trkpt><trkpt lat="49.699077222076625" lon="19.996658268749385"><ele>576.7142857142858</ele><time>2026-04-16T08:16:06Z</time></trkpt><trkpt lat="49.699045810961685" lon="19.996563465205657"><ele>580.0</ele><time>2026-04-16T08:16:24.999Z</time></trkpt><trkpt lat="49.699009141397894" lon="19.99647056018393"><ele>580.0</ele><time>2026-04-16T08:16:34.999Z</time></trkpt><trkpt lat="49.69892878686813" lon="19.99638694520999"><ele>580.0</ele><time>2026-04-16T08:16:36.999Z</time></trkpt><trkpt lat="49.698904523561005" lon="19.996268765209848"><ele>580.0</ele><time>2026-04-16T08:16:38.999Z</time></trkpt><trkpt lat="49.698793617638266" lon="19.996291587790065"><ele>580.0</ele><time>2026-04-16T08:16:40.999Z</time></trkpt><trkpt lat="49.698727226529265" lon="19.996211496608222"><ele>580.0</ele><time>2026-04-16T08:16:43.999Z</time></trkpt><trkpt lat="49.69877037676415" lon="19.996117643097566"><ele>580.0</ele><time>2026-04-16T08:16:55.999Z</time></trkpt><trkpt lat="49.69883656578928" lon="19.996078172629012"><ele>580.0</ele><time>2026-04-16T08:17:22.998Z</time></trkpt><trkpt lat="49.69876436224162" lon="19.996080538788068"><ele>580.0</ele><time>2026-04-16T08:17:36.998Z</time></trkpt><trkpt lat="49.698724440885975" lon="19.996156302186993"><ele>580.0</ele><time>2026-04-16T08:18:07Z</time></trkpt><trkpt lat="49.69874403121016" lon="19.99625132890963"><ele>580.0</ele><time>2026-04-16T08:18:13Z</time></trkpt><trkpt lat="49.69880389003576" lon="19.996309163478063"><ele>580.0</ele><time>2026-04-16T08:18:18Z</time></trkpt><trkpt lat="49.69885373174276" lon="19.99638916152459"><ele>580.0</ele><time>2026-04-16T08:18:22Z</time></trkpt><trkpt lat="49.69891092239314" lon="19.9964462092917"><ele>580.0</ele><time>2026-04-16T08:18:27Z</time></trkpt><trkpt lat="49.69895563480064" lon="19.996597229853606"><ele>576.7142857142858</ele><time>2026-04-16T08:18:37.999Z</time></trkpt><trkpt lat="49.69898691052675" lon="19.996699804912282"><ele>573.4285714285714</ele><time>2026-04-16T08:18:43.999Z</time></trkpt><trkpt lat="49.699036417565765" lon="19.996806357158192"><ele>570.1428571428571</ele><time>2026-04-16T08:18:48.999Z</time></trkpt><trkpt lat="49.69906029212206" lon="19.996911769278967"><ele>566.8571428571429</ele><time>2026-04-16T08:19:03.999Z</time></trkpt><trkpt lat="49.69904466550704" lon="19.997020968077305"><ele>563.5714285714286</ele><time>2026-04-16T08:19:07.999Z</time></trkpt><trkpt lat="49.699084164667624" lon="19.99711908296521"><ele>560.2857142857143</ele><time>2026-04-16T08:19:14.999Z</time></trkpt><trkpt lat="49.69913684376546" lon="19.997191154449304"><ele>557.0</ele><time>2026-04-16T08:19:16.999Z</time></trkpt><trkpt lat="49.69918599118483" lon="19.99727201957898"><ele>557.0</ele><time>2026-04-16T08:19:19.999Z</time></trkpt><trkpt lat="49.69922115650639" lon="19.997355592657645"><ele>557.0</ele><time>2026-04-16T08:19:26.998Z</time></trkpt><trkpt lat="49.69926294726139" lon="19.99744642506547"><ele>557.0</ele><time>2026-04-16T08:19:32.998Z</time></trkpt><trkpt lat="49.69927259987826" lon="19.99755597180352"><ele>557.0</ele><time>2026-04-16T08:19:37.998Z</time></trkpt><trkpt lat="49.69928459398686" lon="19.99765878360329"><ele>557.0</ele><time>2026-04-16T08:19:39.998Z</time></trkpt><trkpt lat="49.699322256890355" lon="19.997767246041963"><ele>557.0</ele><time>2026-04-16T08:19:42.998Z</time></trkpt><trkpt lat="49.69933156247121" lon="19.99787749749488"><ele>557.0</ele><time>2026-04-16T08:19:48.998Z</time></trkpt><trkpt lat="49.69941146266803" lon="19.997966454821178"><ele>554.7142857142858</ele><time>2026-04-16T08:20:02Z</time></trkpt><trkpt lat="49.69949765811909" lon="19.99790667690675"><ele>552.4285714285714</ele><time>2026-04-16T08:20:05Z</time></trkpt><trkpt lat="49.69955976449409" lon="19.99796154755885"><ele>550.1428571428571</ele><time>2026-04-16T08:20:07Z</time></trkpt><trkpt lat="49.69962720331889" lon="19.99799911504974"><ele>547.8571428571429</ele><time>2026-04-16T08:20:09Z</time></trkpt><trkpt lat="49.69968359248142" lon="19.99806549288265"><ele>545.5714285714286</ele><time>2026-04-16T08:20:10Z</time></trkpt><trkpt lat="49.699751510037196" lon="19.998078108226107"><ele>543.2857142857143</ele><time>2026-04-16T08:20:12Z</time></trkpt><trkpt lat="49.69968986495622" lon="19.998051674311036"><ele>541.0</ele><time>2026-04-16T08:20:20Z</time></trkpt><trkpt lat="49.69960741851432" lon="19.998062994375484"><ele>541.0</ele><time>2026-04-16T08:20:23Z</time></trkpt><trkpt lat="49.699529546860695" lon="19.99802959332638"><ele>541.0</ele><time>2026-04-16T08:20:27Z</time></trkpt><trkpt lat="49.69946111020703" lon="19.997987347622868"><ele>541.0</ele><time>2026-04-16T08:20:32Z</time></trkpt><trkpt lat="49.6993795202214" lon="19.997963672525284"><ele>541.0</ele><time>2026-04-16T08:20:34.999Z</time></trkpt><trkpt lat="49.69927866986294" lon="19.99793422552773"><ele>541.0</ele><time>2026-04-16T08:20:51.999Z</time></trkpt><trkpt lat="49.6992326775999" lon="19.99803865945754"><ele>541.0</ele><time>2026-04-16T08:20:53.999Z</time></trkpt><trkpt lat="49.699184237188796" lon="19.998136128889865"><ele>543.0</ele><time>2026-04-16T08:20:55.999Z</time></trkpt><trkpt lat="49.699178777760615" lon="19.998244271840708"><ele>545.0</ele><time>2026-04-16T08:20:56.999Z</time></trkpt><trkpt lat="49.69914128571101" lon="19.998340212699663"><ele>547.0</ele><time>2026-04-16T08:20:57.999Z</time></trkpt><trkpt lat="49.699080592968755" lon="19.99847946277979"><ele>549.0</ele><time>2026-04-16T08:20:59.999Z</time></trkpt><trkpt lat="49.69901860588372" lon="19.998601793463674"><ele>551.0</ele><time>2026-04-16T08:21:01.999Z</time></trkpt><trkpt lat="49.69894743366153" lon="19.998669886893012"><ele>553.0</ele><time>2026-04-16T08:21:02.999Z</time></trkpt><trkpt lat="49.69888022806863" lon="19.998786040362713"><ele>556.1666666666667</ele><time>2026-04-16T08:21:04.999Z</time></trkpt><trkpt lat="49.69881016555929" lon="19.9988077022721"><ele>559.3333333333334</ele><time>2026-04-16T08:21:13.999Z</time></trkpt><trkpt lat="49.69873508157656" lon="19.99886013240464"><ele>562.5</ele><time>2026-04-16T08:21:17.999Z</time></trkpt><trkpt lat="49.69867365464937" lon="19.998895049359206"><ele>565.6666666666666</ele><time>2026-04-16T08:21:18.999Z</time></trkpt><trkpt lat="49.698634330996526" lon="19.99897912493268"><ele>568.8333333333333</ele><time>2026-04-16T08:21:20.999Z</time></trkpt><trkpt lat="49.69858169769765" lon="19.998909815070228"><ele>572.0</ele><time>2026-04-16T08:21:24.998Z</time></trkpt><trkpt lat="49.69853087234747" lon="19.999070577287224"><ele>573.8571428571428</ele><time>2026-04-16T08:21:26.998Z</time></trkpt><trkpt lat="49.69845535150849" lon="19.99911148929646"><ele>575.7142857142857</ele><time>2026-04-16T08:21:37.998Z</time></trkpt><trkpt lat="49.69843111313476" lon="19.9990183087651"><ele>577.5714285714286</ele><time>2026-04-16T08:21:45.998Z</time></trkpt><trkpt lat="49.69837064181389" lon="19.999046465811126"><ele>579.4285714285713</ele><time>2026-04-16T08:21:49.998Z</time></trkpt><trkpt lat="49.69832775375171" lon="19.998941149930925"><ele>581.2857142857142</ele><time>2026-04-16T08:21:55.998Z</time></trkpt><trkpt lat="49.6982638481374" lon="19.998942659697228"><ele>583.1428571428571</ele><time>2026-04-16T08:22:03Z</time></trkpt><trkpt lat="49.69819998397406" lon="19.998986141949203"><ele>585.0</ele><time>2026-04-16T08:22:05Z</time></trkpt><trkpt lat="49.698145681842306" lon="19.99904209394347"><ele>588.6666666666666</ele><time>2026-04-16T08:22:07Z</time></trkpt><trkpt lat="49.69815292285946" lon="19.999191845571392"><ele>592.3333333333334</ele><time>2026-04-16T08:22:10Z</time></trkpt><trkpt lat="49.69816990388629" lon="19.999321987789756"><ele>596.0</ele><time>2026-04-16T08:22:15Z</time></trkpt><trkpt lat="49.69810775928836" lon="19.999440475967937"><ele>599.6666666666667</ele><time>2026-04-16T08:22:19Z</time></trkpt><trkpt lat="49.698076941655515" lon="19.99952699998391"><ele>603.3333333333334</ele><time>2026-04-16T08:22:21Z</time></trkpt><trkpt lat="49.69810556492165" lon="19.99961615714469"><ele>607.0</ele><time>2026-04-16T08:22:41Z</time></trkpt><trkpt lat="49.69804353458006" lon="19.99959409465307"><ele>607.0</ele><time>2026-04-16T08:22:45.999Z</time></trkpt><trkpt lat="49.69804765561707" lon="19.999492754263166"><ele>607.0</ele><time>2026-04-16T08:22:52.999Z</time></trkpt><trkpt lat="49.698075826248626" lon="19.99962456923768"><ele>607.0</ele><time>2026-04-16T08:23:19.999Z</time></trkpt><trkpt lat="49.69814495236831" lon="19.999634246908016"><ele>607.0</ele><time>2026-04-16T08:23:24.999Z</time></trkpt><trkpt lat="49.69813957979065" lon="19.999734628909795"><ele>607.0</ele><time>2026-04-16T08:23:31.999Z</time></trkpt><trkpt lat="49.69814129894925" lon="19.999615126423045"><ele>607.0</ele><time>2026-04-16T08:23:37.998Z</time></trkpt><trkpt lat="49.698101367675136" lon="19.999498299272613"><ele>607.0</ele><time>2026-04-16T08:23:41.998Z</time></trkpt><trkpt lat="49.69803318475594" lon="19.999481878875244"><ele>607.0</ele><time>2026-04-16T08:24:15Z</time></trkpt><trkpt lat="49.697920149651246" lon="19.999523986184055"><ele>607.0</ele><time>2026-04-16T08:25:04.999Z</time></trkpt><trkpt lat="49.69784662364663" lon="19.999518071079777"><ele>607.0</ele><time>2026-04-16T08:25:31.999Z</time></trkpt><trkpt lat="49.69779477538375" lon="19.999587515831617"><ele>607.0</ele><time>2026-04-16T08:26:18Z</time></trkpt><trkpt lat="49.69777691225872" lon="19.999687317346783"><ele>607.0</ele><time>2026-04-16T08:26:23Z</time></trkpt><trkpt lat="49.697770121767164" lon="19.999794099668037"><ele>606.9999999999999</ele><time>2026-04-16T08:26:27Z</time></trkpt><trkpt lat="49.69779526837145" lon="19.999892832778798"><ele>607.0</ele><time>2026-04-16T08:26:34Z</time></trkpt><trkpt lat="49.697750029086286" lon="19.999820471952923"><ele>607.0</ele><time>2026-04-16T08:26:43Z</time></trkpt><trkpt lat="49.69770839454785" lon="19.999917638563954"><ele>607.0</ele><time>2026-04-16T08:26:47Z</time></trkpt><trkpt lat="49.69765707891359" lon="20.000020162263635"><ele>607.0</ele><time>2026-04-16T08:26:49Z</time></trkpt><trkpt lat="49.69761624031524" lon="20.000114722305515"><ele>606.9999999999999</ele><time>2026-04-16T08:26:51Z</time></trkpt><trkpt lat="49.69762111831294" lon="20.000215311339854"><ele>607.0</ele><time>2026-04-16T08:26:53Z</time></trkpt><trkpt lat="49.697593168973306" lon="20.000329177611913"><ele>606.1666666666667</ele><time>2026-04-16T08:26:55Z</time></trkpt><trkpt lat="49.69756833133969" lon="20.00048656961303"><ele>605.3333333333334</ele><time>2026-04-16T08:26:58.999Z</time></trkpt><trkpt lat="49.69755569620536" lon="20.00060006364336"><ele>604.5</ele><time>2026-04-16T08:27:01.999Z</time></trkpt><trkpt lat="49.69759852393495" lon="20.000716236075217"><ele>603.6666666666666</ele><time>2026-04-16T08:27:05.999Z</time></trkpt><trkpt lat="49.69754035307626" lon="20.000754154858104"><ele>602.8333333333333</ele><time>2026-04-16T08:27:16.999Z</time></trkpt><trkpt lat="49.69750831977838" lon="20.00062531515318"><ele>602.0</ele><time>2026-04-16T08:27:23.999Z</time></trkpt><trkpt lat="49.69743317704393" lon="20.000580333616682"><ele>602.0</ele><time>2026-04-16T08:27:26.999Z</time></trkpt><trkpt lat="49.69736980534656" lon="20.000514397602977"><ele>602.0</ele><time>2026-04-16T08:27:31.999Z</time></trkpt><trkpt lat="49.69729238501873" lon="20.000476519684366"><ele>602.0</ele><time>2026-04-16T08:27:33.999Z</time></trkpt><trkpt lat="49.69726308533306" lon="20.00057066529452"><ele>602.0</ele><time>2026-04-16T08:27:37.999Z</time></trkpt><trkpt lat="49.697196558141215" lon="20.00059212093541"><ele>602.0</ele><time>2026-04-16T08:27:45.999Z</time></trkpt><trkpt lat="49.69712328198407" lon="20.000547991827744"><ele>602.0</ele><time>2026-04-16T08:27:51.998Z</time></trkpt><trkpt lat="49.69707161320729" lon="20.00061709968476"><ele>602.0</ele><time>2026-04-16T08:27:54.998Z</time></trkpt><trkpt lat="49.69703515780058" lon="20.000741176766486"><ele>604.8333333333333</ele><time>2026-04-16T08:27:57.998Z</time></trkpt><trkpt lat="49.69699026356952" lon="20.000833615286453"><ele>607.6666666666666</ele><time>2026-04-16T08:28:00.998Z</time></trkpt><trkpt lat="49.6969376799722" lon="20.0009577992147"><ele>610.5</ele><time>2026-04-16T08:28:03.998Z</time></trkpt><trkpt lat="49.69691068073766" lon="20.001052607851037"><ele>613.3333333333334</ele><time>2026-04-16T08:28:05.998Z</time></trkpt><trkpt lat="49.69688205556383" lon="20.001163800098187"><ele>616.1666666666667</ele><time>2026-04-16T08:28:08.998Z</time></trkpt><trkpt lat="49.696878956760806" lon="20.001264551136867"><ele>619.0</ele><time>2026-04-16T08:28:10.998Z</time></trkpt><trkpt lat="49.69682969029003" lon="20.00135871543332"><ele>620.8333333333334</ele><time>2026-04-16T08:28:12.998Z</time></trkpt><trkpt lat="49.696805807863605" lon="20.001472482604147"><ele>622.6666666666667</ele><time>2026-04-16T08:28:14.998Z</time></trkpt><trkpt lat="49.696792897524446" lon="20.001581707581657"><ele>624.5</ele><time>2026-04-16T08:28:17.998Z</time></trkpt><trkpt lat="49.69674592930234" lon="20.001677362858036"><ele>626.3333333333334</ele><time>2026-04-16T08:28:19.998Z</time></trkpt><trkpt lat="49.69668666357156" lon="20.00177337448214"><ele>628.1666666666666</ele><time>2026-04-16T08:28:22Z</time></trkpt><trkpt lat="49.6966531493664" lon="20.00186093447967"><ele>630.0</ele><time>2026-04-16T08:28:25Z</time></trkpt><trkpt lat="49.69664258809251" lon="20.002002212856876"><ele>631.1666666666666</ele><time>2026-04-16T08:28:28Z</time></trkpt><trkpt lat="49.69658860245068" lon="20.002103781255528"><ele>632.3333333333334</ele><time>2026-04-16T08:28:31Z</time></trkpt><trkpt lat="49.6965270588027" lon="20.00219028731798"><ele>633.5</ele><time>2026-04-16T08:28:33Z</time></trkpt><trkpt lat="49.69649579819417" lon="20.00230481883614"><ele>634.6666666666667</ele><time>2026-04-16T08:28:35Z</time></trkpt><trkpt lat="49.69643520564146" lon="20.00235493402756"><ele>635.8333333333334</ele><time>2026-04-16T08:28:46Z</time></trkpt><trkpt lat="49.69645340331894" lon="20.00248300366127"><ele>637.0</ele><time>2026-04-16T08:28:50Z</time></trkpt><trkpt lat="49.6964714460824" lon="20.00260855778862"><ele>637.0</ele><time>2026-04-16T08:28:52Z</time></trkpt><trkpt lat="49.6964455795105" lon="20.002699737016695"><ele>637.0</ele><time>2026-04-16T08:28:58Z</time></trkpt><trkpt lat="49.696508962351174" lon="20.00274141044296"><ele>637.0</ele><time>2026-04-16T08:29:00.999Z</time></trkpt><trkpt lat="49.69644282385473" lon="20.002732372335466"><ele>637.0</ele><time>2026-04-16T08:29:05.999Z</time></trkpt><trkpt lat="49.69653029190776" lon="20.002685748269194"><ele>637.0</ele><time>2026-04-16T08:29:23.999Z</time></trkpt><trkpt lat="49.696573414398536" lon="20.002593480422153"><ele>637.0</ele><time>2026-04-16T08:29:33.999Z</time></trkpt><trkpt lat="49.69655198137059" lon="20.0024786230121"><ele>637.0</ele><time>2026-04-16T08:29:45.999Z</time></trkpt><trkpt lat="49.69654509005022" lon="20.002589201286295"><ele>638.8333333333334</ele><time>2026-04-16T08:30:00.998Z</time></trkpt><trkpt lat="49.69648714500434" lon="20.002524073760494"><ele>640.6666666666667</ele><time>2026-04-16T08:30:01.998Z</time></trkpt><trkpt lat="49.69637673153672" lon="20.0025918050915"><ele>642.5</ele><time>2026-04-16T08:30:03.998Z</time></trkpt><trkpt lat="49.69630370647458" lon="20.002607946546206"><ele>644.3333333333334</ele><time>2026-04-16T08:30:04.998Z</time></trkpt><trkpt lat="49.69622690152944" lon="20.002732621092186"><ele>646.1666666666666</ele><time>2026-04-16T08:30:05.998Z</time></trkpt><trkpt lat="49.69616573562159" lon="20.002773574436503"><ele>648.0</ele><time>2026-04-16T08:30:06.998Z</time></trkpt><trkpt lat="49.69608834344589" lon="20.00277788975266"><ele>655.4</ele><time>2026-04-16T08:30:07.998Z</time></trkpt><trkpt lat="49.696022221360714" lon="20.002770617799296"><ele>662.8</ele><time>2026-04-16T08:30:08.998Z</time></trkpt><trkpt lat="49.69592987431054" lon="20.0027712384168"><ele>670.2</ele><time>2026-04-16T08:30:10.998Z</time></trkpt><trkpt lat="49.69581481532337" lon="20.00277148875745"><ele>677.6</ele><time>2026-04-16T08:30:13.998Z</time></trkpt><trkpt lat="49.69572769432973" lon="20.002715530702513"><ele>685.0</ele><time>2026-04-16T08:30:15.998Z</time></trkpt><trkpt lat="49.69564709506482" lon="20.002771079948623"><ele>685.0</ele><time>2026-04-16T08:30:17.998Z</time></trkpt><trkpt lat="49.69556399198987" lon="20.0027355154383"><ele>685.0</ele><time>2026-04-16T08:30:30Z</time></trkpt><trkpt lat="49.69567973355778" lon="20.00272860775674"><ele>685.0</ele><time>2026-04-16T08:30:43Z</time></trkpt><trkpt lat="49.6956105540862" lon="20.00275515698327"><ele>685.0</ele><time>2026-04-16T08:30:46Z</time></trkpt><trkpt lat="49.695541599028125" lon="20.00280208852645"><ele>685.0</ele><time>2026-04-16T08:30:53Z</time></trkpt><trkpt lat="49.69559474617803" lon="20.00272835253678"><ele>685.0</ele><time>2026-04-16T08:31:14.999Z</time></trkpt><trkpt lat="49.69565885328068" lon="20.00272588057027"><ele>685.0</ele><time>2026-04-16T08:31:18.999Z</time></trkpt><trkpt lat="49.695663647593165" lon="20.002836657916777"><ele>685.0</ele><time>2026-04-16T08:31:30.999Z</time></trkpt><trkpt lat="49.69571840948165" lon="20.002905296676566"><ele>685.0</ele><time>2026-04-16T08:32:02.998Z</time></trkpt><trkpt lat="49.69578380640865" lon="20.002885422463216"><ele>685.0</ele><time>2026-04-16T08:32:09.998Z</time></trkpt><trkpt lat="49.69586096894916" lon="20.00285223225581"><ele>685.0</ele><time>2026-04-16T08:32:13.998Z</time></trkpt><trkpt lat="49.69593534116102" lon="20.002887096963693"><ele>685.0</ele><time>2026-04-16T08:32:17.998Z</time></trkpt><trkpt lat="49.6960029664684" lon="20.002906655206413"><ele>685.0</ele><time>2026-04-16T08:32:20.998Z</time></trkpt><trkpt lat="49.69607760661011" lon="20.00288458631921"><ele>678.8333333333334</ele><time>2026-04-16T08:32:23.998Z</time></trkpt><trkpt lat="49.69615221867949" lon="20.002912596131903"><ele>672.6666666666667</ele><time>2026-04-16T08:32:26.998Z</time></trkpt><trkpt lat="49.696238742771534" lon="20.00287072771625"><ele>666.5</ele><time>2026-04-16T08:32:29.998Z</time></trkpt><trkpt lat="49.69630888599079" lon="20.002820104290006"><ele>660.3333333333334</ele><time>2026-04-16T08:32:33Z</time></trkpt><trkpt lat="49.696345505531944" lon="20.002723008270806"><ele>654.1666666666666</ele><time>2026-04-16T08:32:37Z</time></trkpt><trkpt lat="49.69639571344453" lon="20.00266374163343"><ele>648.0</ele><time>2026-04-16T08:32:44Z</time></trkpt><trkpt lat="49.696466263654884" lon="20.002645686684897"><ele>648.0</ele><time>2026-04-16T08:32:50Z</time></trkpt><trkpt lat="49.6965341075792" lon="20.002624694849583"><ele>648.0</ele><time>2026-04-16T08:33:00Z</time></trkpt><trkpt lat="49.6965515569212" lon="20.002525796201063"><ele>648.0</ele><time>2026-04-16T08:33:07Z</time></trkpt><trkpt lat="49.69656751992841" lon="20.002429231697732"><ele>648.0</ele><time>2026-04-16T08:33:11Z</time></trkpt><trkpt lat="49.69660629964297" lon="20.00234293512731"><ele>648.0</ele><time>2026-04-16T08:33:16.999Z</time></trkpt><trkpt lat="49.696692335854216" lon="20.00228327119343"><ele>648.0</ele><time>2026-04-16T08:33:39.999Z</time></trkpt><trkpt lat="49.69662736641527" lon="20.002264099917834"><ele>648.0</ele><time>2026-04-16T08:33:41.999Z</time></trkpt><trkpt lat="49.696499861776395" lon="20.00228306471593"><ele>645.8</ele><time>2026-04-16T08:33:43.999Z</time></trkpt><trkpt lat="49.69640478376762" lon="20.00225521999041"><ele>643.5999999999999</ele><time>2026-04-16T08:33:44.999Z</time></trkpt><trkpt lat="49.69627750518579" lon="20.00222207948595"><ele>641.4000000000001</ele><time>2026-04-16T08:33:46.999Z</time></trkpt><trkpt lat="49.69617680233702" lon="20.00220149307137"><ele>639.2</ele><time>2026-04-16T08:33:48.999Z</time></trkpt><trkpt lat="49.696091586198" lon="20.0022221561941"><ele>637.0</ele><time>2026-04-16T08:33:50.999Z</time></trkpt><trkpt lat="49.69601688786647" lon="20.002160508661742"><ele>644.5</ele><time>2026-04-16T08:33:52.999Z</time></trkpt><trkpt lat="49.69593494055836" lon="20.002087994360014"><ele>652.0</ele><time>2026-04-16T08:33:54.999Z</time></trkpt><trkpt lat="49.695894104295405" lon="20.002013468680367"><ele>659.5</ele><time>2026-04-16T08:33:58.999Z</time></trkpt><trkpt lat="49.69583158709773" lon="20.001990522628752"><ele>667.0</ele><time>2026-04-16T08:35:41.999Z</time></trkpt><trkpt lat="49.69573134274202" lon="20.001997395737376"><ele>674.5</ele><time>2026-04-16T08:37:25.999Z</time></trkpt><trkpt lat="49.695660090960516" lon="20.002018349006487"><ele>682.0</ele><time>2026-04-16T08:37:28.999Z</time></trkpt><trkpt lat="49.695717605966834" lon="20.002059115093857"><ele>682.0</ele><time>2026-04-16T08:37:38.999Z</time></trkpt><trkpt lat="49.69577766854516" lon="20.002000745173916"><ele>682.0</ele><time>2026-04-16T08:37:47.999Z</time></trkpt><trkpt lat="49.69589070132122" lon="20.002000923042175"><ele>682.0</ele><time>2026-04-16T08:37:50.999Z</time></trkpt><trkpt lat="49.695960353914856" lon="20.002025824095625"><ele>682.0</ele><time>2026-04-16T08:37:59.999Z</time></trkpt><trkpt lat="49.69602304063401" lon="20.001982715165234"><ele>682.0</ele><time>2026-04-16T08:38:04.999Z</time></trkpt><trkpt lat="49.69608939260695" lon="20.00197898241669"><ele>682.0</ele><time>2026-04-16T08:38:10.999Z</time></trkpt><trkpt lat="49.6959767455083" lon="20.001953110848984"><ele>682.0</ele><time>2026-04-16T08:38:12.999Z</time></trkpt><trkpt lat="49.69589461888673" lon="20.00196770510342"><ele>682.0</ele><time>2026-04-16T08:38:15.998Z</time></trkpt><trkpt lat="49.69597956085236" lon="20.00193059295905"><ele>682.0</ele><time>2026-04-16T08:38:33.998Z</time></trkpt><trkpt lat="49.69606038701641" lon="20.001982792144567"><ele>682.0</ele><time>2026-04-16T08:38:44.998Z</time></trkpt><trkpt lat="49.695973663311854" lon="20.00196869262061"><ele>682.0</ele><time>2026-04-16T08:38:48.998Z</time></trkpt><trkpt lat="49.69590980054259" lon="20.00197902959525"><ele>682.0</ele><time>2026-04-16T08:38:57Z</time></trkpt><trkpt lat="49.69583391861819" lon="20.001939756138324"><ele>682.0</ele><time>2026-04-16T08:39:00Z</time></trkpt><trkpt lat="49.69576839545991" lon="20.00192669114735"><ele>682.0</ele><time>2026-04-16T08:39:17Z</time></trkpt><trkpt lat="49.69573179458122" lon="20.002032648424063"><ele>682.0</ele><time>2026-04-16T08:39:20Z</time></trkpt><trkpt lat="49.695859735020925" lon="20.00187819636529"><ele>682.0</ele><time>2026-04-16T08:39:39.999Z</time></trkpt><trkpt lat="49.695921454221164" lon="20.001854027331742"><ele>682.0</ele><time>2026-04-16T08:39:43.999Z</time></trkpt><trkpt lat="49.69587762712156" lon="20.00192670766303"><ele>682.0</ele><time>2026-04-16T08:39:48.999Z</time></trkpt><trkpt lat="49.69597322363196" lon="20.001983029305435"><ele>682.0</ele><time>2026-04-16T08:40:18.999Z</time></trkpt><trkpt lat="49.695980282240136" lon="20.002087864074618"><ele>682.0</ele><time>2026-04-16T08:40:36.998Z</time></trkpt><trkpt lat="49.69591343333579" lon="20.002128616328903"><ele>682.0</ele><time>2026-04-16T08:40:39.998Z</time></trkpt><trkpt lat="49.69584638248196" lon="20.00212757486365"><ele>682.0</ele><time>2026-04-16T08:40:42.998Z</time></trkpt><trkpt lat="49.695779146383224" lon="20.00207148877118"><ele>682.0</ele><time>2026-04-16T08:40:59Z</time></trkpt><trkpt lat="49.69581839710749" lon="20.001990785966772"><ele>682.0</ele><time>2026-04-16T08:41:07Z</time></trkpt><trkpt lat="49.695752081029795" lon="20.00198784081098"><ele>682.0</ele><time>2026-04-16T08:41:21Z</time></trkpt><trkpt lat="49.695689516026455" lon="20.00197676381719"><ele>682.0</ele><time>2026-04-16T08:41:29Z</time></trkpt><trkpt lat="49.695753458753174" lon="20.00197787918515"><ele>682.0</ele><time>2026-04-16T08:41:44.999Z</time></trkpt><trkpt lat="49.69567153442321" lon="20.001978467501438"><ele>682.0</ele><time>2026-04-16T08:41:56.999Z</time></trkpt><trkpt lat="49.69557196170528" lon="20.002044686334507"><ele>682.0</ele><time>2026-04-16T08:41:59.999Z</time></trkpt><trkpt lat="49.69552629145025" lon="20.002112990913826"><ele>682.0</ele><time>2026-04-16T08:42:02.999Z</time></trkpt><trkpt lat="49.69562306470161" lon="20.002088098196268"><ele>682.0</ele><time>2026-04-16T08:42:05.999Z</time></trkpt><trkpt lat="49.69572434184845" lon="20.002074448039345"><ele>682.0</ele><time>2026-04-16T08:42:09.999Z</time></trkpt><trkpt lat="49.69573107477014" lon="20.00196910631439"><ele>682.0</ele><time>2026-04-16T08:42:15.999Z</time></trkpt><trkpt lat="49.69578336900464" lon="20.00203485944607"><ele>682.0</ele><time>2026-04-16T08:42:19.999Z</time></trkpt><trkpt lat="49.69585484385576" lon="20.002042068200478"><ele>682.0</ele><time>2026-04-16T08:42:33.998Z</time></trkpt><trkpt lat="49.69578356786248" lon="20.002034572786556"><ele>682.0</ele><time>2026-04-16T08:42:38.998Z</time></trkpt><trkpt lat="49.69573911317555" lon="20.00210605330167"><ele>682.0</ele><time>2026-04-16T08:42:42.998Z</time></trkpt><trkpt lat="49.695696493031384" lon="20.002194504926642"><ele>682.0</ele><time>2026-04-16T08:42:51.998Z</time></trkpt><trkpt lat="49.695775657360144" lon="20.00213354665022"><ele>682.0</ele><time>2026-04-16T08:42:56.998Z</time></trkpt><trkpt lat="49.69572656297878" lon="20.002224576234674"><ele>682.0</ele><time>2026-04-16T08:43:31Z</time></trkpt><trkpt lat="49.695796028620535" lon="20.00224179911851"><ele>682.0</ele><time>2026-04-16T08:43:33Z</time></trkpt><trkpt lat="49.69572487836942" lon="20.002167440619"><ele>682.0</ele><time>2026-04-16T08:43:47.999Z</time></trkpt><trkpt lat="49.69565856743264" lon="20.002149140177647"><ele>682.0</ele><time>2026-04-16T08:43:50.999Z</time></trkpt><trkpt lat="49.69560405923136" lon="20.002063160177833"><ele>682.0</ele><time>2026-04-16T08:43:59.999Z</time></trkpt><trkpt lat="49.69563369582888" lon="20.00215511160985"><ele>682.0</ele><time>2026-04-16T08:44:08.999Z</time></trkpt><trkpt lat="49.69574922987118" lon="20.002122206325854"><ele>682.0</ele><time>2026-04-16T08:44:16.999Z</time></trkpt><trkpt lat="49.69581849389429" lon="20.002144913842788"><ele>682.0</ele><time>2026-04-16T08:44:29.999Z</time></trkpt><trkpt lat="49.695844933119595" lon="20.002054869394748"><ele>682.0</ele><time>2026-04-16T08:44:43.998Z</time></trkpt><trkpt lat="49.69578509404234" lon="20.00212366602211"><ele>682.0</ele><time>2026-04-16T08:45:18Z</time></trkpt><trkpt lat="49.69579624218076" lon="20.002015706433745"><ele>682.0</ele><time>2026-04-16T08:45:28Z</time></trkpt><trkpt lat="49.695845093576196" lon="20.001932037527524"><ele>682.0</ele><time>2026-04-16T08:45:31Z</time></trkpt><trkpt lat="49.69580171258496" lon="20.00209381142891"><ele>682.0</ele><time>2026-04-16T08:45:49.999Z</time></trkpt><trkpt lat="49.69583981369243" lon="20.0020002738514"><ele>682.0</ele><time>2026-04-16T08:46:11.999Z</time></trkpt><trkpt lat="49.695856560590634" lon="20.001879008728068"><ele>682.0</ele><time>2026-04-16T08:46:15.999Z</time></trkpt><trkpt lat="49.69592278829561" lon="20.001889768829937"><ele>682.0</ele><time>2026-04-16T08:46:22.999Z</time></trkpt><trkpt lat="49.695845177619674" lon="20.001911967533474"><ele>682.0</ele><time>2026-04-16T08:46:25.999Z</time></trkpt><trkpt lat="49.69587521363769" lon="20.00202971515477"><ele>682.0</ele><time>2026-04-16T08:46:56.998Z</time></trkpt><trkpt lat="49.69580823018576" lon="20.001920342276968"><ele>682.0</ele><time>2026-04-16T08:47:25Z</time></trkpt><trkpt lat="49.69585493534561" lon="20.001986043004106"><ele>682.0</ele><time>2026-04-16T08:47:42Z</time></trkpt><trkpt lat="49.69589617394322" lon="20.0020691103045"><ele>682.0</ele><time>2026-04-16T08:47:52Z</time></trkpt><trkpt lat="49.69594870614563" lon="20.002133982019764"><ele>682.0</ele><time>2026-04-16T08:48:03.999Z</time></trkpt><trkpt lat="49.69600835402812" lon="20.002175599883618"><ele>682.0</ele><time>2026-04-16T08:48:14.999Z</time></trkpt><trkpt lat="49.6960810822027" lon="20.002167815769678"><ele>682.0</ele><time>2026-04-16T08:48:27.999Z</time></trkpt><trkpt lat="49.69614094778477" lon="20.002223945607962"><ele>682.0</ele><time>2026-04-16T08:48:32.999Z</time></trkpt><trkpt lat="49.69620802400808" lon="20.002242700006686"><ele>674.5</ele><time>2026-04-16T08:48:44.999Z</time></trkpt><trkpt lat="49.696271799742625" lon="20.00225738865476"><ele>667.0</ele><time>2026-04-16T08:48:47.998Z</time></trkpt><trkpt lat="49.696354965003785" lon="20.00228850403929"><ele>659.5</ele><time>2026-04-16T08:48:50.998Z</time></trkpt><trkpt lat="49.696451291639285" lon="20.002334310016845"><ele>652.0</ele><time>2026-04-16T08:48:53.998Z</time></trkpt><trkpt lat="49.69652230071933" lon="20.002307908576423"><ele>644.5</ele><time>2026-04-16T08:48:55.998Z</time></trkpt><trkpt lat="49.69660426881285" lon="20.002304824839694"><ele>637.0</ele><time>2026-04-16T08:48:59.998Z</time></trkpt><trkpt lat="49.69659005948768" lon="20.00240118672282"><ele>637.0</ele><time>2026-04-16T08:49:06.998Z</time></trkpt><trkpt lat="49.696538039190514" lon="20.00247897163878"><ele>637.0</ele><time>2026-04-16T08:49:10.998Z</time></trkpt><trkpt lat="49.696517358708185" lon="20.002580421405405"><ele>637.0</ele><time>2026-04-16T08:49:15.998Z</time></trkpt><trkpt lat="49.696440580592586" lon="20.00260841860653"><ele>637.0</ele><time>2026-04-16T08:49:30Z</time></trkpt><trkpt lat="49.696319820947444" lon="20.002695307084366"><ele>637.0</ele><time>2026-04-16T08:49:32Z</time></trkpt><trkpt lat="49.69621400724526" lon="20.00276587192143"><ele>639.2</ele><time>2026-04-16T08:49:34Z</time></trkpt><trkpt lat="49.696146383961775" lon="20.002774544346032"><ele>641.4000000000001</ele><time>2026-04-16T08:49:35Z</time></trkpt><trkpt lat="49.696034362081114" lon="20.002786374779614"><ele>643.5999999999999</ele><time>2026-04-16T08:49:36Z</time></trkpt><trkpt lat="49.695943370843125" lon="20.00276748384764"><ele>645.8</ele><time>2026-04-16T08:49:38Z</time></trkpt><trkpt lat="49.695827362734285" lon="20.00270548079691"><ele>648.0</ele><time>2026-04-16T08:49:40Z</time></trkpt><trkpt lat="49.69568435835173" lon="20.002685267464198"><ele>653.2857142857143</ele><time>2026-04-16T08:49:42Z</time></trkpt><trkpt lat="49.69559433955041" lon="20.002699099636523"><ele>658.5714285714286</ele><time>2026-04-16T08:49:44Z</time></trkpt><trkpt lat="49.69555149326331" lon="20.002772529645817"><ele>663.8571428571429</ele><time>2026-04-16T08:49:45Z</time></trkpt><trkpt lat="49.69548749832279" lon="20.002808138464996"><ele>669.1428571428571</ele><time>2026-04-16T08:49:46Z</time></trkpt><trkpt lat="49.69557348218029" lon="20.002792779226553"><ele>674.4285714285714</ele><time>2026-04-16T08:49:48Z</time></trkpt><trkpt lat="49.69553348250428" lon="20.002874385422757"><ele>679.7142857142857</ele><time>2026-04-16T08:50:05.999Z</time></trkpt><trkpt lat="49.695585352477394" lon="20.002804528804592"><ele>685.0</ele><time>2026-04-16T08:50:44.999Z</time></trkpt><trkpt lat="49.69563613720278" lon="20.002735399802415"><ele>685.0</ele><time>2026-04-16T08:50:59.998Z</time></trkpt><trkpt lat="49.69570249613626" lon="20.00274745746337"><ele>685.0</ele><time>2026-04-16T08:51:04.998Z</time></trkpt><trkpt lat="49.69576417831834" lon="20.002802087543188"><ele>685.0</ele><time>2026-04-16T08:51:14.998Z</time></trkpt><trkpt lat="49.69583337921133" lon="20.0027627067289"><ele>685.0</ele><time>2026-04-16T08:51:18.998Z</time></trkpt><trkpt lat="49.69590642100941" lon="20.002748666056224"><ele>685.0</ele><time>2026-04-16T08:51:21.998Z</time></trkpt><trkpt lat="49.695995384847414" lon="20.00279972354162"><ele>685.0</ele><time>2026-04-16T08:51:24.998Z</time></trkpt><trkpt lat="49.6960788562227" lon="20.002805947726003"><ele>678.8333333333334</ele><time>2026-04-16T08:51:27Z</time></trkpt><trkpt lat="49.696149713621054" lon="20.00276203228218"><ele>672.6666666666667</ele><time>2026-04-16T08:51:29Z</time></trkpt><trkpt lat="49.696228766105676" lon="20.002695541193965"><ele>666.5</ele><time>2026-04-16T08:51:32Z</time></trkpt><trkpt lat="49.69631616678653" lon="20.002684895563682"><ele>660.3333333333334</ele><time>2026-04-16T08:51:34Z</time></trkpt><trkpt lat="49.696385943842714" lon="20.002644605753748"><ele>654.1666666666666</ele><time>2026-04-16T08:51:38Z</time></trkpt><trkpt lat="49.69647085205232" lon="20.002589905816432"><ele>648.0</ele><time>2026-04-16T08:51:42Z</time></trkpt><trkpt lat="49.69653846211503" lon="20.00258457394448"><ele>648.0</ele><time>2026-04-16T08:51:44Z</time></trkpt><trkpt lat="49.69658307450332" lon="20.002504600096334"><ele>648.0</ele><time>2026-04-16T08:52:10.999Z</time></trkpt><trkpt lat="49.69664694239766" lon="20.002561019639842"><ele>648.0</ele><time>2026-04-16T08:52:57.999Z</time></trkpt><trkpt lat="49.69654976499747" lon="20.002570039949767"><ele>648.0</ele><time>2026-04-16T08:52:59.999Z</time></trkpt><trkpt lat="49.696466071166704" lon="20.002585990749804"><ele>648.0</ele><time>2026-04-16T08:53:01.998Z</time></trkpt><trkpt lat="49.69639032928608" lon="20.00264585117389"><ele>648.0</ele><time>2026-04-16T08:53:02.998Z</time></trkpt><trkpt lat="49.69631927684741" lon="20.00268906323051"><ele>648.0</ele><time>2026-04-16T08:53:03.998Z</time></trkpt><trkpt lat="49.69618039154051" lon="20.002754835598335"><ele>648.0</ele><time>2026-04-16T08:53:05.998Z</time></trkpt><trkpt lat="49.696087412315336" lon="20.002752503972776"><ele>648.0</ele><time>2026-04-16T08:53:06.998Z</time></trkpt><trkpt lat="49.696015111487455" lon="20.002762961330134"><ele>648.0</ele><time>2026-04-16T08:53:07.998Z</time></trkpt><trkpt lat="49.69587345207191" lon="20.002765746188064"><ele>654.1666666666666</ele><time>2026-04-16T08:53:09.998Z</time></trkpt><trkpt lat="49.695781562919265" lon="20.00280944506976"><ele>660.3333333333334</ele><time>2026-04-16T08:53:11.998Z</time></trkpt><trkpt lat="49.69571419677815" lon="20.00279983368196"><ele>666.5</ele><time>2026-04-16T08:53:12.998Z</time></trkpt><trkpt lat="49.69563237942575" lon="20.002831665554172"><ele>672.6666666666667</ele><time>2026-04-16T08:53:14.998Z</time></trkpt><trkpt lat="49.695542307090996" lon="20.002867475370383"><ele>678.8333333333334</ele><time>2026-04-16T08:53:16.998Z</time></trkpt><trkpt lat="49.695471578693166" lon="20.002923945848977"><ele>685.0</ele><time>2026-04-16T08:53:19.998Z</time></trkpt><trkpt lat="49.69544642276532" lon="20.003015127026043"><ele>685.0</ele><time>2026-04-16T08:53:22.998Z</time></trkpt><trkpt lat="49.69549898631856" lon="20.003074916230513"><ele>685.0</ele><time>2026-04-16T08:56:15Z</time></trkpt><trkpt lat="49.695551008173396" lon="20.00313647857895"><ele>685.0</ele><time>2026-04-16T08:56:21Z</time></trkpt><trkpt lat="49.69562504686603" lon="20.00315066550236"><ele>685.0</ele><time>2026-04-16T08:56:25.999Z</time></trkpt><trkpt lat="49.69569353910927" lon="20.00316221208176"><ele>685.0</ele><time>2026-04-16T08:56:27.999Z</time></trkpt><trkpt lat="49.69575920841685" lon="20.003187929226584"><ele>685.0</ele><time>2026-04-16T08:56:31.999Z</time></trkpt><trkpt lat="49.6958376751426" lon="20.003212813806375"><ele>685.0</ele><time>2026-04-16T08:56:33.999Z</time></trkpt><trkpt lat="49.695917088005615" lon="20.003256558237517"><ele>685.0</ele><time>2026-04-16T08:56:35.999Z</time></trkpt><trkpt lat="49.696008670639024" lon="20.003253478317806"><ele>685.0</ele><time>2026-04-16T08:56:37.999Z</time></trkpt><trkpt lat="49.696079738229635" lon="20.003177216216447"><ele>685.0</ele><time>2026-04-16T08:56:39.999Z</time></trkpt><trkpt lat="49.696159869936665" lon="20.003222611373232"><ele>685.0</ele><time>2026-04-16T08:56:41.999Z</time></trkpt><trkpt lat="49.69620856502417" lon="20.003146247630458"><ele>685.0</ele><time>2026-04-16T08:56:55.999Z</time></trkpt><trkpt lat="49.6962436236433" lon="20.003064519171087"><ele>685.0</ele><time>2026-04-16T08:56:59.999Z</time></trkpt><trkpt lat="49.69620071557965" lon="20.002959822748956"><ele>685.0</ele><time>2026-04-16T08:57:43.998Z</time></trkpt><trkpt lat="49.69624689868217" lon="20.00303955862065"><ele>685.0</ele><time>2026-04-16T08:58:17Z</time></trkpt><trkpt lat="49.696201906121296" lon="20.003120819570995"><ele>685.0</ele><time>2026-04-16T08:58:19Z</time></trkpt><trkpt lat="49.696102647288065" lon="20.00323043555114"><ele>685.0</ele><time>2026-04-16T08:58:21Z</time></trkpt><trkpt lat="49.69602674828521" lon="20.003270092835653"><ele>685.0</ele><time>2026-04-16T08:58:22Z</time></trkpt><trkpt lat="49.69594446612886" lon="20.003282036932394"><ele>685.0</ele><time>2026-04-16T08:58:23Z</time></trkpt><trkpt lat="49.695859473325804" lon="20.00324496392429"><ele>685.0</ele><time>2026-04-16T08:58:24Z</time></trkpt><trkpt lat="49.69576471532447" lon="20.00319252298228"><ele>685.0</ele><time>2026-04-16T08:58:26Z</time></trkpt><trkpt lat="49.695728093519186" lon="20.003103082386108"><ele>685.0</ele><time>2026-04-16T08:58:27.999Z</time></trkpt><trkpt lat="49.69563195949863" lon="20.003059018568884"><ele>685.0</ele><time>2026-04-16T08:58:29.999Z</time></trkpt><trkpt lat="49.6955526873005" lon="20.003103356534762"><ele>685.0</ele><time>2026-04-16T08:58:32.999Z</time></trkpt><trkpt lat="49.695480386845034" lon="20.00316206795859"><ele>685.0</ele><time>2026-04-16T08:58:35.999Z</time></trkpt><trkpt lat="49.69539914234112" lon="20.003161050536225"><ele>685.0</ele><time>2026-04-16T08:58:37.999Z</time></trkpt><trkpt lat="49.69533600853513" lon="20.003186039382637"><ele>685.0</ele><time>2026-04-16T08:58:39.999Z</time></trkpt><trkpt lat="49.69539016443176" lon="20.003127943085207"><ele>685.0</ele><time>2026-04-16T08:59:31.998Z</time></trkpt><trkpt lat="49.695324321755336" lon="20.003135529249853"><ele>685.0</ele><time>2026-04-16T09:00:15Z</time></trkpt><trkpt lat="49.69525812425876" lon="20.003148213545142"><ele>685.0</ele><time>2026-04-16T09:00:31.999Z</time></trkpt><trkpt lat="49.69519412744006" lon="20.003148154496156"><ele>685.0</ele><time>2026-04-16T09:02:31Z</time></trkpt><trkpt lat="49.69524928965294" lon="20.003053303296078"><ele>685.0</ele><time>2026-04-16T09:05:11.999Z</time></trkpt><trkpt lat="49.695352322842716" lon="20.00303647600412"><ele>685.0</ele><time>2026-04-16T09:05:27.999Z</time></trkpt><trkpt lat="49.695285495430824" lon="20.003063803751758"><ele>685.0</ele><time>2026-04-16T09:05:34.998Z</time></trkpt><trkpt lat="49.69521088253255" lon="20.00303226348309"><ele>685.0</ele><time>2026-04-16T09:05:50.998Z</time></trkpt><trkpt lat="49.695281233868975" lon="20.00302777022868"><ele>685.0</ele><time>2026-04-16T09:05:59.998Z</time></trkpt><trkpt lat="49.69519359430027" lon="20.00307506632808"><ele>685.0</ele><time>2026-04-16T09:06:17Z</time></trkpt><trkpt lat="49.695203699269015" lon="20.00296412706083"><ele>685.0</ele><time>2026-04-16T09:06:31Z</time></trkpt><trkpt lat="49.6952663058895" lon="20.002857994738907"><ele>685.0</ele><time>2026-04-16T09:06:38Z</time></trkpt><trkpt lat="49.69522029696564" lon="20.00295548880761"><ele>685.0</ele><time>2026-04-16T09:06:50.999Z</time></trkpt><trkpt lat="49.6951970964644" lon="20.003052830949432"><ele>685.0</ele><time>2026-04-16T09:06:54.999Z</time></trkpt><trkpt lat="49.695165402416535" lon="20.00313766503556"><ele>685.0</ele><time>2026-04-16T09:06:59.999Z</time></trkpt><trkpt lat="49.69521406472948" lon="20.003075684676894"><ele>685.0</ele><time>2026-04-16T09:07:12.999Z</time></trkpt><trkpt lat="49.695295500378336" lon="20.00305467127395"><ele>685.0</ele><time>2026-04-16T09:07:35.999Z</time></trkpt><trkpt lat="49.69536537442484" lon="20.003001066851386"><ele>685.0</ele><time>2026-04-16T09:07:58.998Z</time></trkpt><trkpt lat="49.695442099828334" lon="20.002971320394337"><ele>685.0</ele><time>2026-04-16T09:08:07.998Z</time></trkpt><trkpt lat="49.69551061391733" lon="20.002928061243754"><ele>685.0</ele><time>2026-04-16T09:08:34Z</time></trkpt><trkpt lat="49.695571214658685" lon="20.002897338896286"><ele>685.0</ele><time>2026-04-16T09:08:39Z</time></trkpt><trkpt lat="49.69563686389053" lon="20.002848932347266"><ele>685.0</ele><time>2026-04-16T09:08:48Z</time></trkpt><trkpt lat="49.69571491315165" lon="20.00282996480489"><ele>685.0</ele><time>2026-04-16T09:08:52.999Z</time></trkpt><trkpt lat="49.69578542379722" lon="20.002838701078637"><ele>685.0</ele><time>2026-04-16T09:08:57.999Z</time></trkpt><trkpt lat="49.69585382356738" lon="20.00279777692673"><ele>685.0</ele><time>2026-04-16T09:09:00.999Z</time></trkpt><trkpt lat="49.695936821164956" lon="20.00277580068702"><ele>685.0</ele><time>2026-04-16T09:09:02.999Z</time></trkpt><trkpt lat="49.69601472417394" lon="20.002792734350653"><ele>685.0</ele><time>2026-04-16T09:09:06.999Z</time></trkpt><trkpt lat="49.696095041605645" lon="20.002816615031062"><ele>685.0</ele><time>2026-04-16T09:09:09.999Z</time></trkpt><trkpt lat="49.69618605777257" lon="20.002793272053367"><ele>685.0</ele><time>2026-04-16T09:09:12.999Z</time></trkpt><trkpt lat="49.696244503370025" lon="20.0027467413023"><ele>685.0</ele><time>2026-04-16T09:09:13.999Z</time></trkpt><trkpt lat="49.6963056743086" lon="20.002722041924287"><ele>685.0</ele><time>2026-04-16T09:09:15.999Z</time></trkpt><trkpt lat="49.696377103859405" lon="20.002716521599766"><ele>679.7142857142857</ele><time>2026-04-16T09:09:19.999Z</time></trkpt><trkpt lat="49.69644273131359" lon="20.002674004063316"><ele>674.4285714285714</ele><time>2026-04-16T09:09:41.999Z</time></trkpt><trkpt lat="49.69649648022196" lon="20.002623074749"><ele>669.1428571428571</ele><time>2026-04-16T09:09:46.998Z</time></trkpt><trkpt lat="49.69655977144504" lon="20.002570251395163"><ele>663.8571428571429</ele><time>2026-04-16T09:09:51.998Z</time></trkpt><trkpt lat="49.696594189580686" lon="20.002443419088614"><ele>658.5714285714286</ele><time>2026-04-16T09:09:55.998Z</time></trkpt><trkpt lat="49.69660998178625" lon="20.002321821325797"><ele>653.2857142857143</ele><time>2026-04-16T09:09:58.998Z</time></trkpt><trkpt lat="49.69662568694072" lon="20.00221672227786"><ele>648.0</ele><time>2026-04-16T09:10:36Z</time></trkpt><trkpt lat="49.69656659753923" lon="20.002305653195062"><ele>648.0</ele><time>2026-04-16T09:10:47Z</time></trkpt><trkpt lat="49.696501814118236" lon="20.002361180504376"><ele>648.0</ele><time>2026-04-16T09:10:55Z</time></trkpt><trkpt lat="49.69648528163852" lon="20.00245610754298"><ele>648.0</ele><time>2026-04-16T09:10:57Z</time></trkpt><trkpt lat="49.696445984480256" lon="20.00256644828051"><ele>648.0</ele><time>2026-04-16T09:10:59Z</time></trkpt><trkpt lat="49.69642132880828" lon="20.002679041633872"><ele>648.0</ele><time>2026-04-16T09:11:01Z</time></trkpt><trkpt lat="49.69635111287555" lon="20.002764196337765"><ele>648.0</ele><time>2026-04-16T09:11:02.999Z</time></trkpt><trkpt lat="49.69631748661708" lon="20.002872621231983"><ele>648.0</ele><time>2026-04-16T09:11:04.999Z</time></trkpt><trkpt lat="49.69627729360275" lon="20.003012005240684"><ele>648.0</ele><time>2026-04-16T09:11:07.999Z</time></trkpt><trkpt lat="49.696236829329386" lon="20.003096418575925"><ele>648.0</ele><time>2026-04-16T09:11:09.999Z</time></trkpt><trkpt lat="49.69618703250162" lon="20.00319460358226"><ele>648.0</ele><time>2026-04-16T09:11:12.999Z</time></trkpt><trkpt lat="49.69617711112673" lon="20.003353804199303"><ele>648.0</ele><time>2026-04-16T09:11:14.999Z</time></trkpt><trkpt lat="49.69618929391959" lon="20.003512065074432"><ele>651.3333333333334</ele><time>2026-04-16T09:11:16.999Z</time></trkpt><trkpt lat="49.696182437913365" lon="20.003610430518616"><ele>654.6666666666666</ele><time>2026-04-16T09:11:18.999Z</time></trkpt><trkpt lat="49.696200319092576" lon="20.003736675364948"><ele>658.0</ele><time>2026-04-16T09:11:20.999Z</time></trkpt><trkpt lat="49.696182214695355" lon="20.003842298517064"><ele>661.3333333333333</ele><time>2026-04-16T09:11:22.999Z</time></trkpt><trkpt lat="49.696193188302495" lon="20.003972693035177"><ele>664.6666666666666</ele><time>2026-04-16T09:11:25.999Z</time></trkpt><trkpt lat="49.69622463227624" lon="20.004132465605352"><ele>668.0</ele><time>2026-04-16T09:11:27.999Z</time></trkpt><trkpt lat="49.69623274957785" lon="20.00423231853493"><ele>671.3333333333333</ele><time>2026-04-16T09:11:28.999Z</time></trkpt><trkpt lat="49.69621158253134" lon="20.004336764914022"><ele>674.6666666666666</ele><time>2026-04-16T09:11:31.999Z</time></trkpt><trkpt lat="49.69624627014721" lon="20.004426587139083"><ele>678.0</ele><time>2026-04-16T09:11:34.999Z</time></trkpt><trkpt lat="49.69622644997614" lon="20.00455936890643"><ele>681.3333333333334</ele><time>2026-04-16T09:11:41.999Z</time></trkpt><trkpt lat="49.69620823493815" lon="20.00467167606558"><ele>684.6666666666667</ele><time>2026-04-16T09:11:44.999Z</time></trkpt><trkpt lat="49.69619600435056" lon="20.004825321513504"><ele>688.0</ele><time>2026-04-16T09:11:47.999Z</time></trkpt><trkpt lat="49.696171795828555" lon="20.004947893500614"><ele>690.8571428571429</ele><time>2026-04-16T09:11:50.999Z</time></trkpt><trkpt lat="49.696148911960094" lon="20.00507154458622"><ele>693.7142857142858</ele><time>2026-04-16T09:11:55.998Z</time></trkpt><trkpt lat="49.696123147704974" lon="20.005171470759027"><ele>696.5714285714287</ele><time>2026-04-16T09:11:58.998Z</time></trkpt><trkpt lat="49.69610340234366" lon="20.005287316899338"><ele>699.4285714285714</ele><time>2026-04-16T09:12:01.998Z</time></trkpt><trkpt lat="49.69607390733451" lon="20.005382957245512"><ele>702.2857142857142</ele><time>2026-04-16T09:12:03.998Z</time></trkpt><trkpt lat="49.696017381717226" lon="20.00544714516076"><ele>705.1428571428572</ele><time>2026-04-16T09:12:06.998Z</time></trkpt><trkpt lat="49.69596594602467" lon="20.005522687875743"><ele>708.0</ele><time>2026-04-16T09:12:08.998Z</time></trkpt><trkpt lat="49.695908459918996" lon="20.00556658246325"><ele>708.5</ele><time>2026-04-16T09:12:11.998Z</time></trkpt><trkpt lat="49.69585950635714" lon="20.005638247418034"><ele>709.0</ele><time>2026-04-16T09:12:13.998Z</time></trkpt><trkpt lat="49.69578218705056" lon="20.00570713293232"><ele>709.5</ele><time>2026-04-16T09:12:15.998Z</time></trkpt><trkpt lat="49.695725487794235" lon="20.005775799931"><ele>710.0</ele><time>2026-04-16T09:12:17.998Z</time></trkpt><trkpt lat="49.695632726381476" lon="20.005818259944327"><ele>710.5</ele><time>2026-04-16T09:12:19.998Z</time></trkpt><trkpt lat="49.695634114229854" lon="20.005925914046344"><ele>711.0</ele><time>2026-04-16T09:12:21.998Z</time></trkpt><trkpt lat="49.69556495240642" lon="20.00597592146233"><ele>711.0</ele><time>2026-04-16T09:12:22.998Z</time></trkpt><trkpt lat="49.695502159202924" lon="20.006024911652087"><ele>711.0</ele><time>2026-04-16T09:12:25.998Z</time></trkpt><trkpt lat="49.69543876988306" lon="20.006014811240817"><ele>711.0</ele><time>2026-04-16T09:12:30Z</time></trkpt><trkpt lat="49.69540630198349" lon="20.005914809657646"><ele>711.0</ele><time>2026-04-16T09:12:34Z</time></trkpt><trkpt lat="49.69534170279899" lon="20.005862976652644"><ele>711.0</ele><time>2026-04-16T09:12:39Z</time></trkpt><trkpt lat="49.69530340509797" lon="20.005764319950675"><ele>711.0</ele><time>2026-04-16T09:12:43Z</time></trkpt><trkpt lat="49.69526845992949" lon="20.00566480431634"><ele>711.0</ele><time>2026-04-16T09:12:46Z</time></trkpt><trkpt lat="49.6952625557544" lon="20.005566856640023"><ele>713.5714285714286</ele><time>2026-04-16T09:12:49Z</time></trkpt><trkpt lat="49.69519748126971" lon="20.005519007716334"><ele>716.1428571428571</ele><time>2026-04-16T09:12:54Z</time></trkpt><trkpt lat="49.69514872154774" lon="20.005582331594493"><ele>718.7142857142858</ele><time>2026-04-16T09:12:58Z</time></trkpt><trkpt lat="49.69510769805733" lon="20.00566256983184"><ele>721.2857142857142</ele><time>2026-04-16T09:13:00Z</time></trkpt><trkpt lat="49.69504856818053" lon="20.005759451165936"><ele>723.8571428571428</ele><time>2026-04-16T09:13:03Z</time></trkpt><trkpt lat="49.69499248987682" lon="20.005836779461283"><ele>726.4285714285714</ele><time>2026-04-16T09:13:06Z</time></trkpt><trkpt lat="49.69493291919207" lon="20.005932980526854"><ele>729.0</ele><time>2026-04-16T09:13:19.999Z</time></trkpt><trkpt lat="49.69486470098791" lon="20.00601588866955"><ele>730.1666666666666</ele><time>2026-04-16T09:13:21.999Z</time></trkpt><trkpt lat="49.694750274437" lon="20.006043265077814"><ele>731.3333333333334</ele><time>2026-04-16T09:13:23.999Z</time></trkpt><trkpt lat="49.69468765546634" lon="20.00607239219086"><ele>732.5</ele><time>2026-04-16T09:13:25.999Z</time></trkpt><trkpt lat="49.69462942191146" lon="20.00615759772883"><ele>733.6666666666667</ele><time>2026-04-16T09:13:27.999Z</time></trkpt><trkpt lat="49.69454708192964" lon="20.00617046009803"><ele>734.8333333333334</ele><time>2026-04-16T09:13:30.999Z</time></trkpt><trkpt lat="49.69459857710804" lon="20.00611436857085"><ele>736.0</ele><time>2026-04-16T09:14:33Z</time></trkpt><trkpt lat="49.69453257066069" lon="20.006103039455766"><ele>736.0</ele><time>2026-04-16T09:14:48Z</time></trkpt><trkpt lat="49.69460014539018" lon="20.00605359509271"><ele>736.0</ele><time>2026-04-16T09:14:53Z</time></trkpt><trkpt lat="49.69468556252068" lon="20.00604807856607"><ele>736.0</ele><time>2026-04-16T09:14:58Z</time></trkpt><trkpt lat="49.69477905036002" lon="20.005977256928087"><ele>736.0</ele><time>2026-04-16T09:15:04Z</time></trkpt><trkpt lat="49.694848979444906" lon="20.00591447782948"><ele>736.0</ele><time>2026-04-16T09:15:06Z</time></trkpt><trkpt lat="49.69488689842612" lon="20.005811984344362"><ele>736.0</ele><time>2026-04-16T09:15:08Z</time></trkpt><trkpt lat="49.694942193387924" lon="20.00574936853157"><ele>736.0</ele><time>2026-04-16T09:15:10Z</time></trkpt><trkpt lat="49.695002262036255" lon="20.00569819496739"><ele>736.0</ele><time>2026-04-16T09:15:12Z</time></trkpt><trkpt lat="49.69498272119139" lon="20.00584510824868"><ele>736.0</ele><time>2026-04-16T09:15:24.999Z</time></trkpt><trkpt lat="49.69491544427754" lon="20.006039393601473"><ele>736.0</ele><time>2026-04-16T09:15:26.999Z</time></trkpt><trkpt lat="49.69480463820602" lon="20.006106009536413"><ele>736.0</ele><time>2026-04-16T09:15:28.999Z</time></trkpt><trkpt lat="49.69472087341705" lon="20.00611995309867"><ele>736.0</ele><time>2026-04-16T09:15:30.999Z</time></trkpt><trkpt lat="49.6946465682684" lon="20.006171873326526"><ele>736.0</ele><time>2026-04-16T09:15:32.999Z</time></trkpt><trkpt lat="49.6946282655186" lon="20.006074129202748"><ele>736.0</ele><time>2026-04-16T09:15:43.999Z</time></trkpt><trkpt lat="49.694676185144274" lon="20.006004348669236"><ele>736.0</ele><time>2026-04-16T09:15:52.999Z</time></trkpt><trkpt lat="49.694727707405114" lon="20.00606848506749"><ele>736.0</ele><time>2026-04-16T09:15:57.999Z</time></trkpt><trkpt lat="49.694783271716496" lon="20.0060139250949"><ele>736.0</ele><time>2026-04-16T09:16:20.998Z</time></trkpt><trkpt lat="49.69485059352318" lon="20.00592544581081"><ele>736.0</ele><time>2026-04-16T09:16:23.998Z</time></trkpt><trkpt lat="49.694922393439576" lon="20.00588170466866"><ele>734.8333333333334</ele><time>2026-04-16T09:16:26.998Z</time></trkpt><trkpt lat="49.69496099962646" lon="20.0057961618298"><ele>733.6666666666667</ele><time>2026-04-16T09:16:30.998Z</time></trkpt><trkpt lat="49.69499703896328" lon="20.005700123286598"><ele>732.5</ele><time>2026-04-16T09:16:33.998Z</time></trkpt><trkpt lat="49.69506012764966" lon="20.005635694321924"><ele>731.3333333333334</ele><time>2026-04-16T09:16:34.998Z</time></trkpt><trkpt lat="49.69512272734763" lon="20.005596085435005"><ele>730.1666666666666</ele><time>2026-04-16T09:16:39Z</time></trkpt><trkpt lat="49.695223352944616" lon="20.005632920038902"><ele>729.0</ele><time>2026-04-16T09:16:41Z</time></trkpt><trkpt lat="49.69526644961601" lon="20.005708755143143"><ele>728.5</ele><time>2026-04-16T09:16:43Z</time></trkpt><trkpt lat="49.69530624295459" lon="20.00582329944058"><ele>728.0</ele><time>2026-04-16T09:16:46Z</time></trkpt><trkpt lat="49.69535267976536" lon="20.005915370391165"><ele>727.5</ele><time>2026-04-16T09:16:48Z</time></trkpt><trkpt lat="49.69536729714913" lon="20.006020765220896"><ele>727.0</ele><time>2026-04-16T09:16:50Z</time></trkpt><trkpt lat="49.695364183943894" lon="20.00615745602095"><ele>726.5</ele><time>2026-04-16T09:16:53Z</time></trkpt><trkpt lat="49.69542560296762" lon="20.006280112307135"><ele>726.0</ele><time>2026-04-16T09:17:01Z</time></trkpt><trkpt lat="49.695498684641" lon="20.006374751271977"><ele>726.0</ele><time>2026-04-16T09:17:04Z</time></trkpt><trkpt lat="49.695540874197754" lon="20.00646169836093"><ele>726.0</ele><time>2026-04-16T09:17:05Z</time></trkpt><trkpt lat="49.695601330500416" lon="20.006572073207014"><ele>726.0</ele><time>2026-04-16T09:17:07Z</time></trkpt><trkpt lat="49.695655024329746" lon="20.006625549587657"><ele>726.0</ele><time>2026-04-16T09:17:09Z</time></trkpt><trkpt lat="49.695689896608364" lon="20.00678554928574"><ele>726.0</ele><time>2026-04-16T09:17:12Z</time></trkpt><trkpt lat="49.69570700208392" lon="20.00689041108291"><ele>726.0</ele><time>2026-04-16T09:17:14Z</time></trkpt><trkpt lat="49.69567274466358" lon="20.00699002844902"><ele>729.1666666666666</ele><time>2026-04-16T09:17:17Z</time></trkpt><trkpt lat="49.695681469068795" lon="20.00714961478905"><ele>732.3333333333334</ele><time>2026-04-16T09:17:19.999Z</time></trkpt><trkpt lat="49.6957198516336" lon="20.00724305181338"><ele>735.5</ele><time>2026-04-16T09:17:21.999Z</time></trkpt><trkpt lat="49.69573434662283" lon="20.00735410121413"><ele>738.6666666666667</ele><time>2026-04-16T09:17:23.999Z</time></trkpt><trkpt lat="49.695755089175904" lon="20.00745860012995"><ele>741.8333333333334</ele><time>2026-04-16T09:17:27.999Z</time></trkpt><trkpt lat="49.69578436915181" lon="20.00757421301448"><ele>745.0</ele><time>2026-04-16T09:17:30.999Z</time></trkpt><trkpt lat="49.69578125204425" lon="20.007695213978703"><ele>747.8333333333334</ele><time>2026-04-16T09:17:34.999Z</time></trkpt><trkpt lat="49.695834783971115" lon="20.0077948172824"><ele>750.6666666666667</ele><time>2026-04-16T09:17:37.999Z</time></trkpt><trkpt lat="49.6958754772755" lon="20.007919029755573"><ele>753.5</ele><time>2026-04-16T09:17:40.999Z</time></trkpt><trkpt lat="49.695907895749386" lon="20.008008154339656"><ele>756.3333333333334</ele><time>2026-04-16T09:17:42.999Z</time></trkpt><trkpt lat="49.6959646789296" lon="20.00809056499473"><ele>759.1666666666666</ele><time>2026-04-16T09:17:45.999Z</time></trkpt><trkpt lat="49.6960319437325" lon="20.008113267224644"><ele>762.0</ele><time>2026-04-16T09:18:08.998Z</time></trkpt><trkpt lat="49.696098932026075" lon="20.00803483531981"><ele>762.0</ele><time>2026-04-16T09:18:16.998Z</time></trkpt><trkpt lat="49.69618546539615" lon="20.0079609429913"><ele>762.0</ele><time>2026-04-16T09:18:20.998Z</time></trkpt><trkpt lat="49.69624922842892" lon="20.00793071760641"><ele>762.0</ele><time>2026-04-16T09:18:24.998Z</time></trkpt><trkpt lat="49.696313828185836" lon="20.007862447981086"><ele>762.0</ele><time>2026-04-16T09:18:27.998Z</time></trkpt><trkpt lat="49.69639367180166" lon="20.00780681599628"><ele>762.0</ele><time>2026-04-16T09:18:30.998Z</time></trkpt><trkpt lat="49.69644342112284" lon="20.007739838959697"><ele>762.0</ele><time>2026-04-16T09:18:34.998Z</time></trkpt><trkpt lat="49.69650642395486" lon="20.007647344235675"><ele>762.0</ele><time>2026-04-16T09:18:37.998Z</time></trkpt><trkpt lat="49.696552941697405" lon="20.007551510618562"><ele>762.0</ele><time>2026-04-16T09:18:40.998Z</time></trkpt><trkpt lat="49.69660710652886" lon="20.00750125574127"><ele>762.0</ele><time>2026-04-16T09:18:45Z</time></trkpt><trkpt lat="49.696655051237016" lon="20.007417604403845"><ele>762.0</ele><time>2026-04-16T09:18:48Z</time></trkpt><trkpt lat="49.696700457374654" lon="20.007313167337255"><ele>762.0</ele><time>2026-04-16T09:18:51Z</time></trkpt><trkpt lat="49.69674900080399" lon="20.007181188928293"><ele>762.0</ele><time>2026-04-16T09:19:21Z</time></trkpt><trkpt lat="49.696709599210955" lon="20.007260246793315"><ele>762.0</ele><time>2026-04-16T09:19:35.999Z</time></trkpt><trkpt lat="49.69666697287992" lon="20.007391830589647"><ele>762.0</ele><time>2026-04-16T09:19:39.999Z</time></trkpt><trkpt lat="49.69660982874946" lon="20.007462256713094"><ele>762.0</ele><time>2026-04-16T09:19:41.999Z</time></trkpt><trkpt lat="49.696585176512734" lon="20.007551960362935"><ele>762.0</ele><time>2026-04-16T09:19:44.999Z</time></trkpt><trkpt lat="49.69654309786258" lon="20.00763400406808"><ele>762.0</ele><time>2026-04-16T09:19:48.999Z</time></trkpt><trkpt lat="49.69654614176589" lon="20.007756852866116"><ele>762.0</ele><time>2026-04-16T09:19:55.999Z</time></trkpt><trkpt lat="49.696580117467406" lon="20.007839405723896"><ele>762.0</ele><time>2026-04-16T09:19:58.999Z</time></trkpt><trkpt lat="49.696521751923726" lon="20.007920977340945"><ele>762.0</ele><time>2026-04-16T09:20:35.998Z</time></trkpt><trkpt lat="49.69647395234258" lon="20.007988321440433"><ele>762.0</ele><time>2026-04-16T09:20:39.998Z</time></trkpt><trkpt lat="49.69645268861542" lon="20.008082112997833"><ele>762.0</ele><time>2026-04-16T09:20:44.998Z</time></trkpt><trkpt lat="49.6964340473676" lon="20.008207625549208"><ele>762.0</ele><time>2026-04-16T09:20:47.998Z</time></trkpt><trkpt lat="49.69649654272892" lon="20.008276853600684"><ele>762.0</ele><time>2026-04-16T09:20:52Z</time></trkpt><trkpt lat="49.69655631987526" lon="20.00831000875624"><ele>762.0</ele><time>2026-04-16T09:20:55Z</time></trkpt><trkpt lat="49.696636724642104" lon="20.008306273152762"><ele>762.0</ele><time>2026-04-16T09:20:58Z</time></trkpt><trkpt lat="49.696730077553184" lon="20.008324357770842"><ele>762.0</ele><time>2026-04-16T09:21:02Z</time></trkpt><trkpt lat="49.69680776277547" lon="20.00832756127357"><ele>762.0</ele><time>2026-04-16T09:21:04Z</time></trkpt><trkpt lat="49.69689357323174" lon="20.00830819716323"><ele>762.0</ele><time>2026-04-16T09:21:07Z</time></trkpt><trkpt lat="49.696968456457704" lon="20.008279256986135"><ele>762.0</ele><time>2026-04-16T09:21:09Z</time></trkpt><trkpt lat="49.6970264121513" lon="20.008217057961325"><ele>762.0</ele><time>2026-04-16T09:21:12Z</time></trkpt><trkpt lat="49.69709552678334" lon="20.00818395257388"><ele>762.0</ele><time>2026-04-16T09:21:19Z</time></trkpt><trkpt lat="49.697169286802726" lon="20.00822690632076"><ele>759.8571428571428</ele><time>2026-04-16T09:21:24Z</time></trkpt><trkpt lat="49.69720935146677" lon="20.008305080235058"><ele>757.7142857142858</ele><time>2026-04-16T09:21:30.999Z</time></trkpt><trkpt lat="49.6971976888961" lon="20.00840338473076"><ele>755.5714285714286</ele><time>2026-04-16T09:21:35.999Z</time></trkpt><trkpt lat="49.69724841715378" lon="20.00847364236952"><ele>753.4285714285713</ele><time>2026-04-16T09:21:39.999Z</time></trkpt><trkpt lat="49.69732014137615" lon="20.008441167068913"><ele>751.2857142857142</ele><time>2026-04-16T09:21:42.999Z</time></trkpt><trkpt lat="49.6974176401792" lon="20.008376666252286"><ele>749.1428571428571</ele><time>2026-04-16T09:21:46.999Z</time></trkpt><trkpt lat="49.69748095619007" lon="20.008382850888108"><ele>747.0</ele><time>2026-04-16T09:21:50.999Z</time></trkpt><trkpt lat="49.69749727683566" lon="20.008282393897588"><ele>747.0</ele><time>2026-04-16T09:22:14.999Z</time></trkpt><trkpt lat="49.69745658136836" lon="20.00819815227697"><ele>747.0</ele><time>2026-04-16T09:22:17.998Z</time></trkpt><trkpt lat="49.69751447900338" lon="20.008256890879817"><ele>747.0</ele><time>2026-04-16T09:22:44.998Z</time></trkpt><trkpt lat="49.69757326156909" lon="20.008348132324954"><ele>747.0</ele><time>2026-04-16T09:22:48.998Z</time></trkpt><trkpt lat="49.69750335474213" lon="20.00830615778763"><ele>747.0</ele><time>2026-04-16T09:23:15Z</time></trkpt><trkpt lat="49.697503280914" lon="20.008146437155673"><ele>747.0</ele><time>2026-04-16T09:23:26Z</time></trkpt><trkpt lat="49.69755982476508" lon="20.00806493903516"><ele>746.9999999999999</ele><time>2026-04-16T09:23:28Z</time></trkpt><trkpt lat="49.69751967074261" lon="20.008199264624704"><ele>747.0</ele><time>2026-04-16T09:23:45.999Z</time></trkpt><trkpt lat="49.697578445732354" lon="20.008253731886708"><ele>747.0</ele><time>2026-04-16T09:24:35.998Z</time></trkpt><trkpt lat="49.697513710088636" lon="20.008224730818686"><ele>747.0</ele><time>2026-04-16T09:24:50.998Z</time></trkpt><trkpt lat="49.69748509845814" lon="20.008333435155073"><ele>747.0</ele><time>2026-04-16T09:24:58.998Z</time></trkpt><trkpt lat="49.697442495967145" lon="20.008409390049106"><ele>746.9999999999999</ele><time>2026-04-16T09:25:23Z</time></trkpt><trkpt lat="49.69738648227874" lon="20.008349595527307"><ele>747.0</ele><time>2026-04-16T09:25:28Z</time></trkpt><trkpt lat="49.69732464848477" lon="20.008243489633955"><ele>747.0</ele><time>2026-04-16T09:25:31Z</time></trkpt><trkpt lat="49.697387518059" lon="20.00825165161721"><ele>747.0</ele><time>2026-04-16T09:25:58.999Z</time></trkpt><trkpt lat="49.69749239684939" lon="20.008303653849307"><ele>747.0</ele><time>2026-04-16T09:26:07.999Z</time></trkpt><trkpt lat="49.69757233036075" lon="20.008268031835396"><ele>747.0</ele><time>2026-04-16T09:26:27.999Z</time></trkpt><trkpt lat="49.69747777954444" lon="20.008288403290123"><ele>747.0</ele><time>2026-04-16T09:26:33.999Z</time></trkpt><trkpt lat="49.69747293061899" lon="20.008399001327568"><ele>747.0</ele><time>2026-04-16T09:26:37.998Z</time></trkpt><trkpt lat="49.69753435779684" lon="20.008441535195175"><ele>746.9999999999999</ele><time>2026-04-16T09:26:58.998Z</time></trkpt><trkpt lat="49.69749003928768" lon="20.00836292112664"><ele>747.0</ele><time>2026-04-16T09:27:25Z</time></trkpt><trkpt lat="49.69740711082344" lon="20.008392116310535"><ele>747.0</ele><time>2026-04-16T09:27:29Z</time></trkpt><trkpt lat="49.697355727003" lon="20.008457608847507"><ele>747.0</ele><time>2026-04-16T09:27:36Z</time></trkpt><trkpt lat="49.69729090619262" lon="20.008488056186504"><ele>747.0</ele><time>2026-04-16T09:27:43Z</time></trkpt><trkpt lat="49.697295679940176" lon="20.008363947521083"><ele>746.9999999999999</ele><time>2026-04-16T09:27:48.999Z</time></trkpt><trkpt lat="49.697227028250225" lon="20.008294406368353"><ele>747.0</ele><time>2026-04-16T09:27:53.999Z</time></trkpt><trkpt lat="49.69721508471656" lon="20.00816931506059"><ele>746.1666666666666</ele><time>2026-04-16T09:27:56.999Z</time></trkpt><trkpt lat="49.697175875822666" lon="20.00805469027072"><ele>745.3333333333334</ele><time>2026-04-16T09:28:06.999Z</time></trkpt><trkpt lat="49.697107929509315" lon="20.008034492673453"><ele>744.5</ele><time>2026-04-16T09:28:10.999Z</time></trkpt><trkpt lat="49.69703386605885" lon="20.008052689823316"><ele>743.6666666666667</ele><time>2026-04-16T09:28:13.999Z</time></trkpt><trkpt lat="49.696996423563654" lon="20.008132209923374"><ele>742.8333333333334</ele><time>2026-04-16T09:28:20.999Z</time></trkpt><trkpt lat="49.69693464987166" lon="20.008213471383844"><ele>742.0</ele><time>2026-04-16T09:28:24.999Z</time></trkpt><trkpt lat="49.69683531495725" lon="20.00822314412248"><ele>745.3333333333334</ele><time>2026-04-16T09:28:28.999Z</time></trkpt><trkpt lat="49.69675106994828" lon="20.008238543112004"><ele>748.6666666666667</ele><time>2026-04-16T09:28:32.999Z</time></trkpt><trkpt lat="49.696640562888106" lon="20.008252909690313"><ele>752.0</ele><time>2026-04-16T09:28:34.999Z</time></trkpt><trkpt lat="49.69655344597002" lon="20.008233964814508"><ele>755.3333333333334</ele><time>2026-04-16T09:28:37.999Z</time></trkpt><trkpt lat="49.69651604744959" lon="20.008149878862294"><ele>758.6666666666666</ele><time>2026-04-16T09:28:41.998Z</time></trkpt><trkpt lat="49.69650142785242" lon="20.008046654268217"><ele>762.0</ele><time>2026-04-16T09:28:43.998Z</time></trkpt><trkpt lat="49.69646541470222" lon="20.007954224793117"><ele>762.0</ele><time>2026-04-16T09:28:45.998Z</time></trkpt><trkpt lat="49.69648815190875" lon="20.007834713019953"><ele>762.0</ele><time>2026-04-16T09:28:49.998Z</time></trkpt><trkpt lat="49.69654335838204" lon="20.007744187349434"><ele>762.0</ele><time>2026-04-16T09:28:52.998Z</time></trkpt><trkpt lat="49.6965847713548" lon="20.00766647128201"><ele>762.0</ele><time>2026-04-16T09:28:54.998Z</time></trkpt><trkpt lat="49.69663418573941" lon="20.007588409543295"><ele>762.0</ele><time>2026-04-16T09:28:57.998Z</time></trkpt><trkpt lat="49.69667281448516" lon="20.00748550787387"><ele>762.0</ele><time>2026-04-16T09:29:00.998Z</time></trkpt><trkpt lat="49.6967370626342" lon="20.007380982506675"><ele>759.3333333333334</ele><time>2026-04-16T09:29:02.998Z</time></trkpt><trkpt lat="49.69675723559183" lon="20.00726054509217"><ele>756.6666666666666</ele><time>2026-04-16T09:29:05.998Z</time></trkpt><trkpt lat="49.69678280820748" lon="20.007167882639525"><ele>754.0</ele><time>2026-04-16T09:29:09.998Z</time></trkpt><trkpt lat="49.69683186910892" lon="20.007078612617615"><ele>751.3333333333333</ele><time>2026-04-16T09:29:12.998Z</time></trkpt><trkpt lat="49.69686588695834" lon="20.00696188232665"><ele>748.6666666666666</ele><time>2026-04-16T09:29:16Z</time></trkpt><trkpt lat="49.69690550478147" lon="20.006869030076864"><ele>746.0</ele><time>2026-04-16T09:29:18Z</time></trkpt><trkpt lat="49.696942196777876" lon="20.00676968262651"><ele>741.5</ele><time>2026-04-16T09:29:20Z</time></trkpt><trkpt lat="49.6969691927543" lon="20.00665305387744"><ele>737.0</ele><time>2026-04-16T09:29:23Z</time></trkpt><trkpt lat="49.696999349929065" lon="20.00649403243716"><ele>732.5</ele><time>2026-04-16T09:29:25Z</time></trkpt><trkpt lat="49.69704116829682" lon="20.00640881517818"><ele>728.0</ele><time>2026-04-16T09:29:28Z</time></trkpt><trkpt lat="49.69707019686986" lon="20.006268961164235"><ele>723.5</ele><time>2026-04-16T09:29:30Z</time></trkpt><trkpt lat="49.69708733259458" lon="20.006174129319696"><ele>719.0</ele><time>2026-04-16T09:29:32Z</time></trkpt><trkpt lat="49.69715212830416" lon="20.006016107683923"><ele>719.0</ele><time>2026-04-16T09:29:35Z</time></trkpt><trkpt lat="49.697174465974705" lon="20.005922622126803"><ele>719.0</ele><time>2026-04-16T09:29:37Z</time></trkpt><trkpt lat="49.69715409656629" lon="20.005824875929918"><ele>719.0</ele><time>2026-04-16T09:29:40Z</time></trkpt><trkpt lat="49.69718812303121" lon="20.005686824581076"><ele>719.0</ele><time>2026-04-16T09:29:42Z</time></trkpt><trkpt lat="49.697231781160006" lon="20.005596691057278"><ele>719.0</ele><time>2026-04-16T09:29:44Z</time></trkpt><trkpt lat="49.69728181395781" lon="20.00546553662973"><ele>719.0</ele><time>2026-04-16T09:29:47Z</time></trkpt><trkpt lat="49.69730658821824" lon="20.005368132073084"><ele>717.0</ele><time>2026-04-16T09:29:50Z</time></trkpt><trkpt lat="49.69731855387647" lon="20.00527145420326"><ele>715.0</ele><time>2026-04-16T09:29:53Z</time></trkpt><trkpt lat="49.697331426988804" lon="20.00511453178842"><ele>713.0</ele><time>2026-04-16T09:29:55.999Z</time></trkpt><trkpt lat="49.697424461372634" lon="20.005026055941745"><ele>711.0</ele><time>2026-04-16T09:29:57.999Z</time></trkpt><trkpt lat="49.697491033396126" lon="20.004970047447937"><ele>709.0</ele><time>2026-04-16T09:30:01.999Z</time></trkpt><trkpt lat="49.69757795797271" lon="20.004947074707413"><ele>707.0</ele><time>2026-04-16T09:30:05.999Z</time></trkpt><trkpt lat="49.69765027417504" lon="20.004875953282163"><ele>703.8</ele><time>2026-04-16T09:30:07.999Z</time></trkpt><trkpt lat="49.6977031170208" lon="20.004811345751833"><ele>700.6</ele><time>2026-04-16T09:30:08.999Z</time></trkpt><trkpt lat="49.697779304926044" lon="20.004687175065612"><ele>697.4</ele><time>2026-04-16T09:30:10.999Z</time></trkpt><trkpt lat="49.697841592199424" lon="20.004546519272996"><ele>694.1999999999999</ele><time>2026-04-16T09:30:12.999Z</time></trkpt><trkpt lat="49.69793449895421" lon="20.004460729609413"><ele>691.0</ele><time>2026-04-16T09:30:14.999Z</time></trkpt><trkpt lat="49.6979774678743" lon="20.004332129346526"><ele>687.5999999999999</ele><time>2026-04-16T09:30:16.999Z</time></trkpt><trkpt lat="49.69806411284069" lon="20.004242311608472"><ele>684.2</ele><time>2026-04-16T09:30:18.999Z</time></trkpt><trkpt lat="49.69814948139449" lon="20.004141453792442"><ele>680.8</ele><time>2026-04-16T09:30:20.999Z</time></trkpt><trkpt lat="49.69820320165885" lon="20.004051802623"><ele>677.4000000000001</ele><time>2026-04-16T09:30:22.999Z</time></trkpt><trkpt lat="49.69829539454024" lon="20.004009628871042"><ele>674.0</ele><time>2026-04-16T09:30:24.999Z</time></trkpt><trkpt lat="49.69834415851113" lon="20.00394406205481"><ele>673.0</ele><time>2026-04-16T09:30:25.999Z</time></trkpt><trkpt lat="49.69842895214948" lon="20.003854682982873"><ele>672.0</ele><time>2026-04-16T09:30:27.999Z</time></trkpt><trkpt lat="49.698501284122386" lon="20.00376200219907"><ele>671.0</ele><time>2026-04-16T09:30:30.999Z</time></trkpt><trkpt lat="49.69857656913388" lon="20.003729161588033"><ele>670.0</ele><time>2026-04-16T09:30:32.999Z</time></trkpt><trkpt lat="49.69871173273432" lon="20.003612339410374"><ele>669.0</ele><time>2026-04-16T09:30:34.999Z</time></trkpt><trkpt lat="49.69880140279029" lon="20.003574364504946"><ele>665.1666666666666</ele><time>2026-04-16T09:30:36.999Z</time></trkpt><trkpt lat="49.69887476597825" lon="20.003579314945082"><ele>661.3333333333334</ele><time>2026-04-16T09:30:39.999Z</time></trkpt><trkpt lat="49.698955192937106" lon="20.003587215806327"><ele>657.5</ele><time>2026-04-16T09:30:41.999Z</time></trkpt><trkpt lat="49.69905490491123" lon="20.003577509934786"><ele>653.6666666666667</ele><time>2026-04-16T09:30:43.999Z</time></trkpt><trkpt lat="49.69913634198971" lon="20.00361909930668"><ele>649.8333333333334</ele><time>2026-04-16T09:30:46.998Z</time></trkpt><trkpt lat="49.69920230383272" lon="20.003607973499587"><ele>646.0</ele><time>2026-04-16T09:30:48.998Z</time></trkpt><trkpt lat="49.699336784828674" lon="20.003631844286883"><ele>646.0</ele><time>2026-04-16T09:30:51.998Z</time></trkpt><trkpt lat="49.69941356545122" lon="20.00366322420868"><ele>646.0</ele><time>2026-04-16T09:30:57.998Z</time></trkpt><trkpt lat="49.699491518000066" lon="20.00368020057542"><ele>646.0</ele><time>2026-04-16T09:30:59.998Z</time></trkpt><trkpt lat="49.699554336402095" lon="20.00371960210364"><ele>646.0</ele><time>2026-04-16T09:31:02.998Z</time></trkpt><trkpt lat="49.69964416300698" lon="20.003754685464774"><ele>646.0</ele><time>2026-04-16T09:31:07.998Z</time></trkpt><trkpt lat="49.699717042885865" lon="20.003756909481954"><ele>646.0</ele><time>2026-04-16T09:31:09.998Z</time></trkpt><trkpt lat="49.699779662157255" lon="20.003779938487423"><ele>642.5714285714287</ele><time>2026-04-16T09:31:11.998Z</time></trkpt><trkpt lat="49.699817926045384" lon="20.00386528347235"><ele>639.1428571428571</ele><time>2026-04-16T09:31:14.998Z</time></trkpt><trkpt lat="49.699886114774614" lon="20.00394187994661"><ele>635.7142857142858</ele><time>2026-04-16T09:31:19.998Z</time></trkpt><trkpt lat="49.6999484911" lon="20.003995986236898"><ele>632.2857142857143</ele><time>2026-04-16T09:31:22Z</time></trkpt><trkpt lat="49.700014041327634" lon="20.00396054231419"><ele>628.8571428571429</ele><time>2026-04-16T09:31:25Z</time></trkpt><trkpt lat="49.700058025476835" lon="20.003883280930403"><ele>625.4285714285714</ele><time>2026-04-16T09:31:30Z</time></trkpt><trkpt lat="49.700125954962786" lon="20.003877262424457"><ele>622.0</ele><time>2026-04-16T09:31:35Z</time></trkpt><trkpt lat="49.70020276245941" lon="20.00385241241348"><ele>616.8000000000001</ele><time>2026-04-16T09:31:39Z</time></trkpt><trkpt lat="49.70036914132665" lon="20.003840704208873"><ele>611.6</ele><time>2026-04-16T09:31:42Z</time></trkpt><trkpt lat="49.70042241049451" lon="20.003909872884496"><ele>606.4000000000001</ele><time>2026-04-16T09:31:44Z</time></trkpt><trkpt lat="49.70049770706904" lon="20.00398266739269"><ele>601.2</ele><time>2026-04-16T09:31:47Z</time></trkpt><trkpt lat="49.70057453642669" lon="20.004007584356774"><ele>596.0</ele><time>2026-04-16T09:31:50Z</time></trkpt><trkpt lat="49.70063973943632" lon="20.003994733185316"><ele>596.0</ele><time>2026-04-16T09:31:52Z</time></trkpt><trkpt lat="49.70072040147526" lon="20.00401276348557"><ele>596.0</ele><time>2026-04-16T09:31:54Z</time></trkpt><trkpt lat="49.700768992814325" lon="20.00408821899874"><ele>596.0</ele><time>2026-04-16T09:31:57Z</time></trkpt><trkpt lat="49.7008178915255" lon="20.004169178273404"><ele>596.0</ele><time>2026-04-16T09:32:00.999Z</time></trkpt><trkpt lat="49.700882713413534" lon="20.004172811964175"><ele>596.0</ele><time>2026-04-16T09:32:02.999Z</time></trkpt><trkpt lat="49.700956718581054" lon="20.004160765231035"><ele>596.0</ele><time>2026-04-16T09:32:04.999Z</time></trkpt><trkpt lat="49.701071114036694" lon="20.004170985292472"><ele>588.6666666666666</ele><time>2026-04-16T09:32:07.999Z</time></trkpt><trkpt lat="49.70116177642866" lon="20.004213796895996"><ele>581.3333333333333</ele><time>2026-04-16T09:32:10.999Z</time></trkpt><trkpt lat="49.701254395447975" lon="20.00423249821734"><ele>574.0</ele><time>2026-04-16T09:32:12.999Z</time></trkpt><trkpt lat="49.70133347748102" lon="20.00428576520811"><ele>566.6666666666666</ele><time>2026-04-16T09:32:15.999Z</time></trkpt><trkpt lat="49.701410380945674" lon="20.004348684484288"><ele>559.3333333333334</ele><time>2026-04-16T09:32:17.999Z</time></trkpt><trkpt lat="49.70147813588692" lon="20.004422270003598"><ele>552.0</ele><time>2026-04-16T09:32:19.999Z</time></trkpt><trkpt lat="49.70158348106144" lon="20.00446338399904"><ele>552.0</ele><time>2026-04-16T09:32:21.999Z</time></trkpt><trkpt lat="49.70159267283917" lon="20.00456368712116"><ele>552.0</ele><time>2026-04-16T09:32:23.999Z</time></trkpt><trkpt lat="49.701700797542756" lon="20.00463955093487"><ele>552.0</ele><time>2026-04-16T09:32:27.999Z</time></trkpt><trkpt lat="49.701769609361016" lon="20.00475207829878"><ele>552.0</ele><time>2026-04-16T09:32:29.999Z</time></trkpt><trkpt lat="49.701875747564195" lon="20.00471914548373"><ele>552.0</ele><time>2026-04-16T09:32:31.999Z</time></trkpt><trkpt lat="49.70196035715845" lon="20.004822280443374"><ele>548.5</ele><time>2026-04-16T09:32:32.999Z</time></trkpt><trkpt lat="49.70202257065771" lon="20.004869716339975"><ele>545.0</ele><time>2026-04-16T09:32:35.999Z</time></trkpt><trkpt lat="49.70211288212534" lon="20.004881675158497"><ele>541.5</ele><time>2026-04-16T09:32:37.999Z</time></trkpt><trkpt lat="49.702189379525876" lon="20.004899478211584"><ele>538.0</ele><time>2026-04-16T09:32:38.999Z</time></trkpt><trkpt lat="49.70225561145622" lon="20.00492788162274"><ele>534.5</ele><time>2026-04-16T09:32:39.999Z</time></trkpt><trkpt lat="49.7023439526155" lon="20.004951088400865"><ele>531.0</ele><time>2026-04-16T09:32:41.999Z</time></trkpt><trkpt lat="49.702427967794776" lon="20.004984320686912"><ele>531.0</ele><time>2026-04-16T09:32:43.999Z</time></trkpt><trkpt lat="49.70250393503667" lon="20.004977266630654"><ele>531.0</ele><time>2026-04-16T09:32:45.999Z</time></trkpt><trkpt lat="49.702597061629994" lon="20.004995452399527"><ele>531.0</ele><time>2026-04-16T09:32:48.999Z</time></trkpt><trkpt lat="49.70267147204102" lon="20.00500618516187"><ele>531.0</ele><time>2026-04-16T09:32:52.998Z</time></trkpt><trkpt lat="49.702747184879186" lon="20.00497998883021"><ele>531.0</ele><time>2026-04-16T09:32:58.998Z</time></trkpt><trkpt lat="49.702810032644486" lon="20.004931924697953"><ele>531.0</ele><time>2026-04-16T09:33:02.998Z</time></trkpt><trkpt lat="49.702897695192355" lon="20.00492617127588"><ele>525.3333333333334</ele><time>2026-04-16T09:33:12.998Z</time></trkpt><trkpt lat="49.70281727045538" lon="20.004933538731585"><ele>519.6666666666666</ele><time>2026-04-16T09:33:24.998Z</time></trkpt><trkpt lat="49.70285615307029" lon="20.005044240682157"><ele>514.0</ele><time>2026-04-16T09:33:29Z</time></trkpt><trkpt lat="49.70290340139744" lon="20.004908377375322"><ele>508.3333333333333</ele><time>2026-04-16T09:33:48Z</time></trkpt><trkpt lat="49.702842866668206" lon="20.004938629836793"><ele>502.66666666666663</ele><time>2026-04-16T09:34:03Z</time></trkpt><trkpt lat="49.70289623052729" lon="20.0050150771564"><ele>497.0</ele><time>2026-04-16T09:34:09.999Z</time></trkpt><trkpt lat="49.70301856077991" lon="20.00507030261164"><ele>495.3333333333333</ele><time>2026-04-16T09:34:11.999Z</time></trkpt><trkpt lat="49.703059040288636" lon="20.005163240521085"><ele>493.66666666666663</ele><time>2026-04-16T09:34:13.999Z</time></trkpt><trkpt lat="49.70308697822889" lon="20.005256832603685"><ele>492.0</ele><time>2026-04-16T09:34:18.999Z</time></trkpt><trkpt lat="49.70315501425547" lon="20.00531231021369"><ele>490.33333333333337</ele><time>2026-04-16T09:34:24.999Z</time></trkpt><trkpt lat="49.70323612800503" lon="20.005302865908416"><ele>488.6666666666667</ele><time>2026-04-16T09:34:26.999Z</time></trkpt><trkpt lat="49.70329654634516" lon="20.005340898691554"><ele>487.0</ele><time>2026-04-16T09:34:28.999Z</time></trkpt><trkpt lat="49.7033749729159" lon="20.005408220569144"><ele>487.00000000000006</ele><time>2026-04-16T09:34:31.999Z</time></trkpt><trkpt lat="49.70342940610915" lon="20.00546996168041"><ele>487.0</ele><time>2026-04-16T09:34:33.999Z</time></trkpt><trkpt lat="49.703420637370165" lon="20.005567569346614"><ele>487.0</ele><time>2026-04-16T09:34:36.999Z</time></trkpt><trkpt lat="49.70348350239706" lon="20.005554033283122"><ele>487.0</ele><time>2026-04-16T09:34:40.999Z</time></trkpt><trkpt lat="49.7035849492555" lon="20.005580579698986"><ele>487.00000000000006</ele><time>2026-04-16T09:34:43.999Z</time></trkpt><trkpt lat="49.703611643766315" lon="20.005689226583367"><ele>487.0</ele><time>2026-04-16T09:34:46.999Z</time></trkpt><trkpt lat="49.7036194075821" lon="20.00584006409564"><ele>480.33333333333337</ele><time>2026-04-16T09:34:49.999Z</time></trkpt><trkpt lat="49.70365684671019" lon="20.005920165608845"><ele>473.6666666666667</ele><time>2026-04-16T09:34:51.999Z</time></trkpt><trkpt lat="49.70370454770647" lon="20.006044629506384"><ele>467.0</ele><time>2026-04-16T09:34:54.999Z</time></trkpt><trkpt lat="49.70376367431227" lon="20.00611892359265"><ele>460.33333333333337</ele><time>2026-04-16T09:34:57.999Z</time></trkpt><trkpt lat="49.70381261260417" lon="20.006185017334975"><ele>453.6666666666667</ele><time>2026-04-16T09:35:00.998Z</time></trkpt><trkpt lat="49.703868531914" lon="20.00627301764785"><ele>447.0</ele><time>2026-04-16T09:35:03.998Z</time></trkpt><trkpt lat="49.70388456353425" lon="20.006383536376884"><ele>447.0</ele><time>2026-04-16T09:35:07.998Z</time></trkpt><trkpt lat="49.70387449786451" lon="20.00648716270566"><ele>447.0</ele><time>2026-04-16T09:35:12.998Z</time></trkpt><trkpt lat="49.7038567543709" lon="20.006616153177635"><ele>447.0</ele><time>2026-04-16T09:35:15.998Z</time></trkpt><trkpt lat="49.70381386826742" lon="20.00676399102685"><ele>447.0</ele><time>2026-04-16T09:35:18.998Z</time></trkpt><trkpt lat="49.70378009887198" lon="20.00690492641594"><ele>447.0</ele><time>2026-04-16T09:35:20.998Z</time></trkpt><trkpt lat="49.70375036496576" lon="20.007032037657837"><ele>447.0</ele><time>2026-04-16T09:35:22.998Z</time></trkpt><trkpt lat="49.703715533660294" lon="20.007134008093015"><ele>446.5</ele><time>2026-04-16T09:35:24.998Z</time></trkpt><trkpt lat="49.70369404054567" lon="20.007265891729524"><ele>446.0</ele><time>2026-04-16T09:35:26.998Z</time></trkpt><trkpt lat="49.70366497284943" lon="20.007374089568334"><ele>445.5</ele><time>2026-04-16T09:35:28.998Z</time></trkpt><trkpt lat="49.70362300498802" lon="20.00747565242488"><ele>445.0</ele><time>2026-04-16T09:35:30.998Z</time></trkpt><trkpt lat="49.70357835420598" lon="20.007620968100984"><ele>444.5</ele><time>2026-04-16T09:35:33Z</time></trkpt><trkpt lat="49.70354080631416" lon="20.007759215794515"><ele>444.0</ele><time>2026-04-16T09:35:35Z</time></trkpt><trkpt lat="49.70349691502071" lon="20.00790404671491"><ele>447.0</ele><time>2026-04-16T09:35:37Z</time></trkpt><trkpt lat="49.70345662417497" lon="20.008047905282353"><ele>450.0</ele><time>2026-04-16T09:35:39Z</time></trkpt><trkpt lat="49.70343086620784" lon="20.008207483686572"><ele>453.0</ele><time>2026-04-16T09:35:41Z</time></trkpt><trkpt lat="49.70341642150583" lon="20.008396369865874"><ele>456.0</ele><time>2026-04-16T09:35:43Z</time></trkpt><trkpt lat="49.70340821833957" lon="20.008494998845567"><ele>459.0</ele><time>2026-04-16T09:35:44Z</time></trkpt><trkpt lat="49.70340073718862" lon="20.008593798763485"><ele>459.0</ele><time>2026-04-16T09:35:45Z</time></trkpt><trkpt lat="49.703388033660055" lon="20.008693714596088"><ele>459.0</ele><time>2026-04-16T09:35:46Z</time></trkpt><trkpt lat="49.703373791566584" lon="20.00885768462008"><ele>459.0</ele><time>2026-04-16T09:35:48Z</time></trkpt><trkpt lat="49.70335398059764" lon="20.00899728950526"><ele>459.0</ele><time>2026-04-16T09:35:50Z</time></trkpt><trkpt lat="49.70329413293117" lon="20.009041771159193"><ele>459.0</ele><time>2026-04-16T09:35:52Z</time></trkpt><trkpt lat="49.703224325230906" lon="20.009093225045575"><ele>459.0</ele><time>2026-04-16T09:35:55Z</time></trkpt><trkpt lat="49.70321129615823" lon="20.009204294092328"><ele>458.6</ele><time>2026-04-16T09:35:58Z</time></trkpt><trkpt lat="49.703209167213984" lon="20.009332114053034"><ele>458.2</ele><time>2026-04-16T09:36:01Z</time></trkpt><trkpt lat="49.70323245681991" lon="20.009432190029326"><ele>457.80000000000007</ele><time>2026-04-16T09:36:02Z</time></trkpt><trkpt lat="49.70324154566335" lon="20.009600023464984"><ele>457.40000000000003</ele><time>2026-04-16T09:36:04Z</time></trkpt><trkpt lat="49.70322027039827" lon="20.009747182099876"><ele>457.0</ele><time>2026-04-16T09:36:06Z</time></trkpt><trkpt lat="49.703184720913555" lon="20.00992714389942"><ele>455.6</ele><time>2026-04-16T09:36:08Z</time></trkpt><trkpt lat="49.70315488812105" lon="20.01001325389914"><ele>454.20000000000005</ele><time>2026-04-16T09:36:09Z</time></trkpt><trkpt lat="49.703107859406025" lon="20.010173280058826"><ele>452.8</ele><time>2026-04-16T09:36:11Z</time></trkpt><trkpt lat="49.703067041021264" lon="20.01025049653494"><ele>451.4</ele><time>2026-04-16T09:36:11.999Z</time></trkpt><trkpt lat="49.703010208198805" lon="20.010387591821033"><ele>450.0</ele><time>2026-04-16T09:36:13.999Z</time></trkpt><trkpt lat="49.70295678610197" lon="20.010530934799007"><ele>450.0</ele><time>2026-04-16T09:36:15.999Z</time></trkpt><trkpt lat="49.70289962205369" lon="20.01066907962024"><ele>450.0</ele><time>2026-04-16T09:36:17.999Z</time></trkpt><trkpt lat="49.70282418070807" lon="20.01079695369487"><ele>450.0</ele><time>2026-04-16T09:36:19.999Z</time></trkpt><trkpt lat="49.70279131888372" lon="20.01091118318591"><ele>450.0</ele><time>2026-04-16T09:36:21.999Z</time></trkpt><trkpt lat="49.70272427793751" lon="20.010997803250497"><ele>450.0</ele><time>2026-04-16T09:36:26.999Z</time></trkpt><trkpt lat="49.70264274252085" lon="20.011047263042016"><ele>455.0</ele><time>2026-04-16T09:36:32.999Z</time></trkpt><trkpt lat="49.702561692544805" lon="20.011082393341265"><ele>460.0</ele><time>2026-04-16T09:36:36.999Z</time></trkpt><trkpt lat="49.702476429778805" lon="20.011138055683947"><ele>465.0</ele><time>2026-04-16T09:36:39.999Z</time></trkpt><trkpt lat="49.702413789743666" lon="20.01122337456821"><ele>470.0</ele><time>2026-04-16T09:36:51.999Z</time></trkpt><trkpt lat="49.70232424551675" lon="20.01127722849896"><ele>475.0</ele><time>2026-04-16T09:36:53.999Z</time></trkpt><trkpt lat="49.70224287187598" lon="20.011340793181596"><ele>480.0</ele><time>2026-04-16T09:36:55.999Z</time></trkpt><trkpt lat="49.702164400022085" lon="20.01144986383001"><ele>480.0</ele><time>2026-04-16T09:36:57.999Z</time></trkpt><trkpt lat="49.70207260288392" lon="20.01157259578146"><ele>480.0</ele><time>2026-04-16T09:36:59.999Z</time></trkpt><trkpt lat="49.701997824284426" lon="20.011698735678575"><ele>480.0</ele><time>2026-04-16T09:37:01.999Z</time></trkpt><trkpt lat="49.701952362876696" lon="20.011848701440787"><ele>480.0</ele><time>2026-04-16T09:37:03.998Z</time></trkpt><trkpt lat="49.70192334047102" lon="20.01198952218844"><ele>480.0</ele><time>2026-04-16T09:37:05.998Z</time></trkpt><trkpt lat="49.701884799148864" lon="20.012110896465273"><ele>481.0</ele><time>2026-04-16T09:37:07.998Z</time></trkpt><trkpt lat="49.70183066117104" lon="20.01220034564326"><ele>482.0</ele><time>2026-04-16T09:37:09.998Z</time></trkpt><trkpt lat="49.70176389141836" lon="20.01232483689164"><ele>483.0</ele><time>2026-04-16T09:37:11.998Z</time></trkpt><trkpt lat="49.70174418655858" lon="20.012436822316403"><ele>484.0</ele><time>2026-04-16T09:37:13.998Z</time></trkpt><trkpt lat="49.7017298261017" lon="20.012546131357894"><ele>485.0</ele><time>2026-04-16T09:37:15.998Z</time></trkpt><trkpt lat="49.7017165133857" lon="20.012642179055753"><ele>486.0</ele><time>2026-04-16T09:37:17.998Z</time></trkpt><trkpt lat="49.70169619986719" lon="20.012753172677325"><ele>486.0</ele><time>2026-04-16T09:37:21.998Z</time></trkpt><trkpt lat="49.701751683548046" lon="20.012858985702845"><ele>486.0</ele><time>2026-04-16T09:37:26.998Z</time></trkpt><trkpt lat="49.701822134976695" lon="20.01292605414316"><ele>486.0</ele><time>2026-04-16T09:37:30.998Z</time></trkpt><trkpt lat="49.701880586642226" lon="20.01296984255726"><ele>486.0</ele><time>2026-04-16T09:37:33.998Z</time></trkpt><trkpt lat="49.701950026023106" lon="20.01302450533033"><ele>486.0</ele><time>2026-04-16T09:37:40Z</time></trkpt><trkpt lat="49.70200885049088" lon="20.013084731531816"><ele>486.0</ele><time>2026-04-16T09:37:45Z</time></trkpt><trkpt lat="49.70209002355432" lon="20.01311546319523"><ele>480.8333333333333</ele><time>2026-04-16T09:37:48Z</time></trkpt><trkpt lat="49.702126901052296" lon="20.013204866257873"><ele>475.66666666666663</ele><time>2026-04-16T09:37:51Z</time></trkpt><trkpt lat="49.70216800800039" lon="20.013310365876205"><ele>470.5</ele><time>2026-04-16T09:37:54Z</time></trkpt><trkpt lat="49.702202399391645" lon="20.013428763408353"><ele>465.3333333333333</ele><time>2026-04-16T09:37:56Z</time></trkpt><trkpt lat="49.70219325674407" lon="20.013535991643675"><ele>460.16666666666663</ele><time>2026-04-16T09:37:58Z</time></trkpt><trkpt lat="49.70214097536025" lon="20.013667105305856"><ele>455.0</ele><time>2026-04-16T09:38:00Z</time></trkpt><trkpt lat="49.702074646445155" lon="20.013812267222505"><ele>454.4</ele><time>2026-04-16T09:38:02Z</time></trkpt><trkpt lat="49.70200331724479" lon="20.013967074787736"><ele>453.8</ele><time>2026-04-16T09:38:04Z</time></trkpt><trkpt lat="49.70195654567891" lon="20.01413895877804"><ele>453.20000000000005</ele><time>2026-04-16T09:38:06Z</time></trkpt><trkpt lat="49.70192538040476" lon="20.014226149723367"><ele>452.6</ele><time>2026-04-16T09:38:07Z</time></trkpt><trkpt lat="49.70186860749886" lon="20.01438498284194"><ele>452.0</ele><time>2026-04-16T09:38:09Z</time></trkpt><trkpt lat="49.70181002058014" lon="20.014543184603763"><ele>452.0</ele><time>2026-04-16T09:38:11Z</time></trkpt><trkpt lat="49.701782517073774" lon="20.014631209319504"><ele>452.00000000000006</ele><time>2026-04-16T09:38:12Z</time></trkpt><trkpt lat="49.70172360510624" lon="20.014797799985327"><ele>452.00000000000006</ele><time>2026-04-16T09:38:14Z</time></trkpt><trkpt lat="49.70165116293296" lon="20.014950811451786"><ele>452.0</ele><time>2026-04-16T09:38:16Z</time></trkpt><trkpt lat="49.70157430839823" lon="20.01512880442049"><ele>452.0</ele><time>2026-04-16T09:38:17.999Z</time></trkpt><trkpt lat="49.701538477104805" lon="20.015234198131203"><ele>452.0</ele><time>2026-04-16T09:38:19.999Z</time></trkpt><trkpt lat="49.701562381776185" lon="20.015384911408468"><ele>452.00000000000006</ele><time>2026-04-16T09:38:21.999Z</time></trkpt><trkpt lat="49.70156733870945" lon="20.015498207725333"><ele>452.00000000000006</ele><time>2026-04-16T09:38:22.999Z</time></trkpt><trkpt lat="49.70154285951398" lon="20.01566877556316"><ele>452.0</ele><time>2026-04-16T09:38:24.999Z</time></trkpt><trkpt lat="49.70150903257954" lon="20.015839851552943"><ele>452.0</ele><time>2026-04-16T09:38:26.999Z</time></trkpt><trkpt lat="49.701451367822756" lon="20.0160035591302"><ele>450.40000000000003</ele><time>2026-04-16T09:38:28.999Z</time></trkpt><trkpt lat="49.7013857369991" lon="20.01613148292719"><ele>448.80000000000007</ele><time>2026-04-16T09:38:30.999Z</time></trkpt><trkpt lat="49.701312633256" lon="20.016235605993675"><ele>447.2</ele><time>2026-04-16T09:38:32.999Z</time></trkpt><trkpt lat="49.701225901738496" lon="20.016312774679072"><ele>445.6</ele><time>2026-04-16T09:38:34.999Z</time></trkpt><trkpt lat="49.701127879294916" lon="20.016319921001692"><ele>444.0</ele><time>2026-04-16T09:38:37.999Z</time></trkpt><trkpt lat="49.701058380323644" lon="20.016304107334587"><ele>447.4</ele><time>2026-04-16T09:38:39.999Z</time></trkpt><trkpt lat="49.700955689652865" lon="20.01629122158678"><ele>450.79999999999995</ele><time>2026-04-16T09:38:42.999Z</time></trkpt><trkpt lat="49.70087429117769" lon="20.016285889701383"><ele>454.20000000000005</ele><time>2026-04-16T09:38:44.999Z</time></trkpt><trkpt lat="49.700781861946105" lon="20.016292370114765"><ele>457.6</ele><time>2026-04-16T09:38:46.999Z</time></trkpt><trkpt lat="49.70069063823419" lon="20.016303979826183"><ele>461.0</ele><time>2026-04-16T09:38:48.999Z</time></trkpt><trkpt lat="49.70058928718734" lon="20.01632301450469"><ele>461.0</ele><time>2026-04-16T09:38:50.999Z</time></trkpt><trkpt lat="49.70046428981719" lon="20.016339611228652"><ele>461.0</ele><time>2026-04-16T09:38:52.999Z</time></trkpt><trkpt lat="49.70039939606291" lon="20.016340544597067"><ele>461.0</ele><time>2026-04-16T09:38:53.999Z</time></trkpt><trkpt lat="49.70028811290677" lon="20.016342147696296"><ele>461.0</ele><time>2026-04-16T09:38:55.999Z</time></trkpt><trkpt lat="49.700170855256026" lon="20.01636323458777"><ele>461.0</ele><time>2026-04-16T09:38:57.999Z</time></trkpt><trkpt lat="49.70004854518054" lon="20.016333487068465"><ele>463.16666666666663</ele><time>2026-04-16T09:38:59.999Z</time></trkpt><trkpt lat="49.699967665961246" lon="20.016322318204914"><ele>465.3333333333333</ele><time>2026-04-16T09:39:02.999Z</time></trkpt><trkpt lat="49.69987226370801" lon="20.0163325353808"><ele>467.5</ele><time>2026-04-16T09:39:04.999Z</time></trkpt><trkpt lat="49.69979949600844" lon="20.01631320482008"><ele>469.66666666666663</ele><time>2026-04-16T09:39:06.999Z</time></trkpt><trkpt lat="49.69973109786103" lon="20.016324886418694"><ele>471.8333333333333</ele><time>2026-04-16T09:39:07.999Z</time></trkpt><trkpt lat="49.69960664441508" lon="20.016367832094236"><ele>474.0</ele><time>2026-04-16T09:39:09.998Z</time></trkpt><trkpt lat="49.69949528924521" lon="20.016398704802413"><ele>476.2</ele><time>2026-04-16T09:39:11.998Z</time></trkpt><trkpt lat="49.699395132121154" lon="20.01641783542546"><ele>478.4</ele><time>2026-04-16T09:39:13.998Z</time></trkpt><trkpt lat="49.69930864673069" lon="20.016420007194142"><ele>480.6</ele><time>2026-04-16T09:39:15.998Z</time></trkpt><trkpt lat="49.69924208387764" lon="20.01643668032"><ele>482.8</ele><time>2026-04-16T09:39:17.998Z</time></trkpt><trkpt lat="49.6991797729581" lon="20.01658225872699"><ele>485.0</ele><time>2026-04-16T09:39:20.998Z</time></trkpt><trkpt lat="49.69914917456248" lon="20.016740336307087"><ele>485.0</ele><time>2026-04-16T09:39:22.998Z</time></trkpt><trkpt lat="49.69905780441083" lon="20.016844287922723"><ele>485.0</ele><time>2026-04-16T09:39:24.998Z</time></trkpt><trkpt lat="49.6989500290233" lon="20.0169050539278"><ele>485.0</ele><time>2026-04-16T09:39:26.998Z</time></trkpt><trkpt lat="49.69884256671833" lon="20.016962766864204"><ele>485.0</ele><time>2026-04-16T09:39:28.998Z</time></trkpt><trkpt lat="49.698733158449635" lon="20.017038543294856"><ele>485.0</ele><time>2026-04-16T09:39:30.998Z</time></trkpt><trkpt lat="49.698637049546896" lon="20.017098165656403"><ele>485.0</ele><time>2026-04-16T09:39:32.998Z</time></trkpt><trkpt lat="49.698542337352045" lon="20.01713364086226"><ele>485.0</ele><time>2026-04-16T09:39:34.998Z</time></trkpt><trkpt lat="49.698428517034884" lon="20.017196148829505"><ele>485.0</ele><time>2026-04-16T09:39:36.998Z</time></trkpt><trkpt lat="49.69836653940457" lon="20.017232470271317"><ele>485.0</ele><time>2026-04-16T09:39:37.998Z</time></trkpt><trkpt lat="49.69824539059379" lon="20.017287083951803"><ele>489.6</ele><time>2026-04-16T09:39:39.998Z</time></trkpt><trkpt lat="49.698125131197514" lon="20.017333437337776"><ele>494.2</ele><time>2026-04-16T09:39:41.998Z</time></trkpt><trkpt lat="49.698023826347104" lon="20.017386210366343"><ele>498.79999999999995</ele><time>2026-04-16T09:39:43.998Z</time></trkpt><trkpt lat="49.69794291139171" lon="20.01742126856769"><ele>503.4</ele><time>2026-04-16T09:39:46Z</time></trkpt><trkpt lat="49.697857808516545" lon="20.0174163644271"><ele>508.0</ele><time>2026-04-16T09:39:49Z</time></trkpt><trkpt lat="49.697758132539576" lon="20.01740782182214"><ele>511.59999999999997</ele><time>2026-04-16T09:39:52Z</time></trkpt><trkpt lat="49.697666578071576" lon="20.017385114557683"><ele>515.1999999999999</ele><time>2026-04-16T09:39:54Z</time></trkpt><trkpt lat="49.697568739949574" lon="20.01732232218937"><ele>518.8</ele><time>2026-04-16T09:39:56Z</time></trkpt><trkpt lat="49.69748053044959" lon="20.01723905683137"><ele>522.4</ele><time>2026-04-16T09:39:58Z</time></trkpt><trkpt lat="49.69739952485279" lon="20.017224729283004"><ele>526.0</ele><time>2026-04-16T09:39:59Z</time></trkpt><trkpt lat="49.6973489873183" lon="20.01715234535365"><ele>526.0</ele><time>2026-04-16T09:40:02Z</time></trkpt><trkpt lat="49.69728208619186" lon="20.01712946826211"><ele>526.0</ele><time>2026-04-16T09:40:03Z</time></trkpt><trkpt lat="49.697182228987714" lon="20.01698736258217"><ele>526.0</ele><time>2026-04-16T09:40:05Z</time></trkpt><trkpt lat="49.69714494396652" lon="20.016889003945"><ele>526.0</ele><time>2026-04-16T09:40:08Z</time></trkpt><trkpt lat="49.697081490174966" lon="20.016776496893616"><ele>526.0</ele><time>2026-04-16T09:40:10Z</time></trkpt><trkpt lat="49.69702126173157" lon="20.016667673222088"><ele>529.5</ele><time>2026-04-16T09:40:12Z</time></trkpt><trkpt lat="49.69694389425274" lon="20.016574872839"><ele>533.0</ele><time>2026-04-16T09:40:14Z</time></trkpt><trkpt lat="49.69689756504603" lon="20.016458529387098"><ele>536.5</ele><time>2026-04-16T09:40:16Z</time></trkpt><trkpt lat="49.69688130500119" lon="20.01636171969398"><ele>540.0</ele><time>2026-04-16T09:40:17Z</time></trkpt><trkpt lat="49.69679989334757" lon="20.016306067312804"><ele>543.5</ele><time>2026-04-16T09:40:19Z</time></trkpt><trkpt lat="49.6967423833287" lon="20.016258851718092"><ele>547.0</ele><time>2026-04-16T09:40:20Z</time></trkpt><trkpt lat="49.696677259083664" lon="20.016189974806323"><ele>547.6</ele><time>2026-04-16T09:40:22Z</time></trkpt><trkpt lat="49.69663134345528" lon="20.016041848157005"><ele>548.2</ele><time>2026-04-16T09:40:24.999Z</time></trkpt><trkpt lat="49.696553745511544" lon="20.01592549476028"><ele>548.8</ele><time>2026-04-16T09:40:26.999Z</time></trkpt><trkpt lat="49.696457285111634" lon="20.015834908370774"><ele>549.4</ele><time>2026-04-16T09:40:28.999Z</time></trkpt><trkpt lat="49.69639254074112" lon="20.015729766205745"><ele>550.0</ele><time>2026-04-16T09:40:30.999Z</time></trkpt><trkpt lat="49.69630352541561" lon="20.015658138588655"><ele>554.0</ele><time>2026-04-16T09:40:32.999Z</time></trkpt><trkpt lat="49.69619590012832" lon="20.01562976466927"><ele>558.0</ele><time>2026-04-16T09:40:34.999Z</time></trkpt><trkpt lat="49.696107395594034" lon="20.01553281120324"><ele>562.0</ele><time>2026-04-16T09:40:36.999Z</time></trkpt><trkpt lat="49.696008771291865" lon="20.01544936869731"><ele>566.0</ele><time>2026-04-16T09:40:38.999Z</time></trkpt><trkpt lat="49.695932263239634" lon="20.01550065915253"><ele>570.0</ele><time>2026-04-16T09:40:39.999Z</time></trkpt><trkpt lat="49.695860070706985" lon="20.01541762168327"><ele>570.0</ele><time>2026-04-16T09:40:41.999Z</time></trkpt><trkpt lat="49.69580065881476" lon="20.01531195169614"><ele>570.0</ele><time>2026-04-16T09:40:43.999Z</time></trkpt><trkpt lat="49.69578487487394" lon="20.015168312745065"><ele>570.0</ele><time>2026-04-16T09:40:45.999Z</time></trkpt><trkpt lat="49.69579891709872" lon="20.015035346669634"><ele>570.0</ele><time>2026-04-16T09:40:47.999Z</time></trkpt><trkpt lat="49.69573880061347" lon="20.0149151656646"><ele>570.0</ele><time>2026-04-16T09:40:49.999Z</time></trkpt><trkpt lat="49.69567135038744" lon="20.014899817282217"><ele>570.0</ele><time>2026-04-16T09:40:51.999Z</time></trkpt><trkpt lat="49.69563738269488" lon="20.01475013229127"><ele>573.1666666666666</ele><time>2026-04-16T09:40:53.999Z</time></trkpt><trkpt lat="49.69561674699851" lon="20.01460819261023"><ele>576.3333333333334</ele><time>2026-04-16T09:40:55.999Z</time></trkpt><trkpt lat="49.69564608127769" lon="20.014521623643382"><ele>579.5</ele><time>2026-04-16T09:40:56.999Z</time></trkpt><trkpt lat="49.69569006805274" lon="20.014437751624296"><ele>582.6666666666667</ele><time>2026-04-16T09:40:57.999Z</time></trkpt><trkpt lat="49.69561590120072" lon="20.0144295895731"><ele>585.8333333333334</ele><time>2026-04-16T09:40:59.999Z</time></trkpt><trkpt lat="49.69560328982976" lon="20.014278220211075"><ele>589.0</ele><time>2026-04-16T09:41:01.999Z</time></trkpt><trkpt lat="49.69557738028881" lon="20.014168332584042"><ele>589.0</ele><time>2026-04-16T09:41:05.999Z</time></trkpt><trkpt lat="49.69549926953589" lon="20.014175654150982"><ele>589.0</ele><time>2026-04-16T09:41:07.999Z</time></trkpt><trkpt lat="49.695482363091116" lon="20.014076000772064"><ele>589.0</ele><time>2026-04-16T09:41:27.998Z</time></trkpt><trkpt lat="49.69550720136812" lon="20.013954411881254"><ele>589.0</ele><time>2026-04-16T09:41:29.998Z</time></trkpt><trkpt lat="49.69544128202107" lon="20.01385076615737"><ele>589.0</ele><time>2026-04-16T09:41:31.998Z</time></trkpt><trkpt lat="49.695417650111644" lon="20.013719239262805"><ele>589.0</ele><time>2026-04-16T09:41:33.998Z</time></trkpt><trkpt lat="49.695361748147995" lon="20.013624936504517"><ele>593.1666666666667</ele><time>2026-04-16T09:41:35.998Z</time></trkpt><trkpt lat="49.695363259907516" lon="20.013521292393882"><ele>597.3333333333334</ele><time>2026-04-16T09:41:37.998Z</time></trkpt><trkpt lat="49.69530661049821" lon="20.013379086337917"><ele>601.5</ele><time>2026-04-16T09:41:39.998Z</time></trkpt><trkpt lat="49.69523225208257" lon="20.013303099374124"><ele>605.6666666666666</ele><time>2026-04-16T09:41:41.998Z</time></trkpt><trkpt lat="49.69518095579186" lon="20.013223200639107"><ele>609.8333333333333</ele><time>2026-04-16T09:41:44.998Z</time></trkpt><trkpt lat="49.69525846777626" lon="20.013166482432748"><ele>614.0</ele><time>2026-04-16T09:41:49.998Z</time></trkpt><trkpt lat="49.69533295132127" lon="20.01315894143981"><ele>616.8571428571428</ele><time>2026-04-16T09:41:58Z</time></trkpt><trkpt lat="49.69527362308201" lon="20.01308523561637"><ele>619.7142857142857</ele><time>2026-04-16T09:42:02Z</time></trkpt><trkpt lat="49.69520646459385" lon="20.013121468413654"><ele>622.5714285714286</ele><time>2026-04-16T09:42:04Z</time></trkpt><trkpt lat="49.69513383192434" lon="20.013173030155446"><ele>625.4285714285713</ele><time>2026-04-16T09:42:08Z</time></trkpt><trkpt lat="49.69507847059849" lon="20.01322164133003"><ele>628.2857142857142</ele><time>2026-04-16T09:42:09Z</time></trkpt><trkpt lat="49.69500165994594" lon="20.013190678342593"><ele>631.1428571428571</ele><time>2026-04-16T09:42:17Z</time></trkpt><trkpt lat="49.694937959927316" lon="20.013173276369503"><ele>634.0</ele><time>2026-04-16T09:42:22Z</time></trkpt><trkpt lat="49.694886449435266" lon="20.013266550988767"><ele>634.0</ele><time>2026-04-16T09:42:45.999Z</time></trkpt><trkpt lat="49.694955956303765" lon="20.013293478512747"><ele>634.0</ele><time>2026-04-16T09:43:03.999Z</time></trkpt><trkpt lat="49.69492697873072" lon="20.013380332329337"><ele>634.0</ele><time>2026-04-16T09:43:15.999Z</time></trkpt><trkpt lat="49.69496296961313" lon="20.013296293697906"><ele>634.0</ele><time>2026-04-16T09:43:23.998Z</time></trkpt><trkpt lat="49.69505084316585" lon="20.01325509892173"><ele>634.0</ele><time>2026-04-16T09:43:36.998Z</time></trkpt><trkpt lat="49.6949901251649" lon="20.013289190356385"><ele>634.0</ele><time>2026-04-16T09:43:54.998Z</time></trkpt><trkpt lat="49.69491130629927" lon="20.01331980044808"><ele>634.0</ele><time>2026-04-16T09:44:13Z</time></trkpt><trkpt lat="49.69496227673069" lon="20.013224651095605"><ele>634.0</ele><time>2026-04-16T09:44:24Z</time></trkpt><trkpt lat="49.69502582374887" lon="20.01321588966359"><ele>634.0</ele><time>2026-04-16T09:44:27Z</time></trkpt><trkpt lat="49.69495506269862" lon="20.013192064472257"><ele>634.0</ele><time>2026-04-16T09:44:38.999Z</time></trkpt><trkpt lat="49.69488155023488" lon="20.013246539340482"><ele>634.0</ele><time>2026-04-16T09:44:41.999Z</time></trkpt><trkpt lat="49.69475807667766" lon="20.01331618004599"><ele>634.0</ele><time>2026-04-16T09:44:44.999Z</time></trkpt><trkpt lat="49.69467805744839" lon="20.01334097956324"><ele>634.0</ele><time>2026-04-16T09:44:45.999Z</time></trkpt><trkpt lat="49.694613878989465" lon="20.013349822467056"><ele>634.0</ele><time>2026-04-16T09:44:55.999Z</time></trkpt><trkpt lat="49.69453339909892" lon="20.013347606921364"><ele>634.0</ele><time>2026-04-16T09:45:16.999Z</time></trkpt><trkpt lat="49.694502779327046" lon="20.013241008845874"><ele>634.0</ele><time>2026-04-16T09:45:23.999Z</time></trkpt><trkpt lat="49.69456241513594" lon="20.013201350070254"><ele>634.0</ele><time>2026-04-16T09:45:27.998Z</time></trkpt><trkpt lat="49.69459470503842" lon="20.01335501545921"><ele>634.0</ele><time>2026-04-16T09:45:41.998Z</time></trkpt><trkpt lat="49.69465527860245" lon="20.01338681702268"><ele>634.0</ele><time>2026-04-16T09:45:46.998Z</time></trkpt><trkpt lat="49.69469416154773" lon="20.013288301069846"><ele>634.0</ele><time>2026-04-16T09:46:05Z</time></trkpt><trkpt lat="49.69479591658283" lon="20.013256636086414"><ele>634.0</ele><time>2026-04-16T09:46:07Z</time></trkpt><trkpt lat="49.69476196752866" lon="20.01333877191945"><ele>634.0</ele><time>2026-04-16T09:46:38Z</time></trkpt><trkpt lat="49.69471690126073" lon="20.01341209268923"><ele>634.0</ele><time>2026-04-16T09:46:43.999Z</time></trkpt><trkpt lat="49.69479478188622" lon="20.01335507260378"><ele>634.0</ele><time>2026-04-16T09:47:24.999Z</time></trkpt><trkpt lat="49.694858847193295" lon="20.013329022005"><ele>634.0</ele><time>2026-04-16T09:47:28.999Z</time></trkpt><trkpt lat="49.694943252873635" lon="20.013308579480587"><ele>634.0</ele><time>2026-04-16T09:47:31.999Z</time></trkpt><trkpt lat="49.695001177350726" lon="20.013249885284022"><ele>634.0</ele><time>2026-04-16T09:47:40.998Z</time></trkpt><trkpt lat="49.69506136234401" lon="20.013179443604226"><ele>634.0</ele><time>2026-04-16T09:47:43.998Z</time></trkpt><trkpt lat="49.69513773326972" lon="20.0132286139336"><ele>634.0</ele><time>2026-04-16T09:47:47.998Z</time></trkpt><trkpt lat="49.69520863362039" lon="20.013222778372686"><ele>634.0</ele><time>2026-04-16T09:47:53.998Z</time></trkpt><trkpt lat="49.69521837435098" lon="20.01333276915192"><ele>634.0</ele><time>2026-04-16T09:48:01.998Z</time></trkpt><trkpt lat="49.69517244062268" lon="20.013418729144796"><ele>634.0</ele><time>2026-04-16T09:48:04.998Z</time></trkpt><trkpt lat="49.69520601648964" lon="20.013541120465952"><ele>631.1428571428571</ele><time>2026-04-16T09:48:10Z</time></trkpt><trkpt lat="49.69523866453971" lon="20.013639183325505"><ele>628.2857142857142</ele><time>2026-04-16T09:48:14Z</time></trkpt><trkpt lat="49.695285955047815" lon="20.013706155757912"><ele>625.4285714285713</ele><time>2026-04-16T09:48:16Z</time></trkpt><trkpt lat="49.69531414908899" lon="20.01381328400981"><ele>622.5714285714286</ele><time>2026-04-16T09:48:20Z</time></trkpt><trkpt lat="49.69533548147307" lon="20.013908768133472"><ele>619.7142857142857</ele><time>2026-04-16T09:48:25Z</time></trkpt><trkpt lat="49.69530030479798" lon="20.01400270215201"><ele>616.8571428571428</ele><time>2026-04-16T09:48:27Z</time></trkpt><trkpt lat="49.695353249970935" lon="20.01411630738768"><ele>614.0</ele><time>2026-04-16T09:48:31Z</time></trkpt><trkpt lat="49.69537850762625" lon="20.014210633847103"><ele>610.4285714285713</ele><time>2026-04-16T09:48:36Z</time></trkpt><trkpt lat="49.69544603928028" lon="20.01422782837903"><ele>606.8571428571429</ele><time>2026-04-16T09:48:38Z</time></trkpt><trkpt lat="49.69550312231819" lon="20.014322672776206"><ele>603.2857142857142</ele><time>2026-04-16T09:48:42Z</time></trkpt><trkpt lat="49.69551438410156" lon="20.014423438631987"><ele>599.7142857142857</ele><time>2026-04-16T09:48:46.999Z</time></trkpt><trkpt lat="49.695499906172415" lon="20.014521188431708"><ele>596.1428571428571</ele><time>2026-04-16T09:48:49.999Z</time></trkpt><trkpt lat="49.69555003514448" lon="20.014602974237125"><ele>592.5714285714286</ele><time>2026-04-16T09:48:52.999Z</time></trkpt><trkpt lat="49.69560552871686" lon="20.014681460894355"><ele>589.0</ele><time>2026-04-16T09:48:56.999Z</time></trkpt><trkpt lat="49.69564552798518" lon="20.01477078442395"><ele>589.0</ele><time>2026-04-16T09:49:02.999Z</time></trkpt><trkpt lat="49.69567391234646" lon="20.014862827836513"><ele>589.0</ele><time>2026-04-16T09:49:06.999Z</time></trkpt><trkpt lat="49.69567713783842" lon="20.014988963212083"><ele>589.0</ele><time>2026-04-16T09:49:10.999Z</time></trkpt><trkpt lat="49.695732491522726" lon="20.015037392006075"><ele>589.0</ele><time>2026-04-16T09:49:14.999Z</time></trkpt><trkpt lat="49.695756214842675" lon="20.015128240544037"><ele>589.0</ele><time>2026-04-16T09:49:18.999Z</time></trkpt><trkpt lat="49.695801667272" lon="20.015216489328274"><ele>589.0</ele><time>2026-04-16T09:49:23.999Z</time></trkpt><trkpt lat="49.69583905302706" lon="20.015328473095135"><ele>589.0</ele><time>2026-04-16T09:49:26.999Z</time></trkpt><trkpt lat="49.69589869581392" lon="20.01540771313825"><ele>586.1666666666667</ele><time>2026-04-16T09:49:28.999Z</time></trkpt><trkpt lat="49.69595353418658" lon="20.015466456233856"><ele>583.3333333333334</ele><time>2026-04-16T09:49:30.999Z</time></trkpt><trkpt lat="49.69604415276907" lon="20.01550905620382"><ele>580.5</ele><time>2026-04-16T09:49:33.999Z</time></trkpt><trkpt lat="49.696104635380124" lon="20.015563456065163"><ele>577.6666666666666</ele><time>2026-04-16T09:49:36.999Z</time></trkpt><trkpt lat="49.69618167419327" lon="20.01564405443762"><ele>574.8333333333333</ele><time>2026-04-16T09:49:39.998Z</time></trkpt><trkpt lat="49.696241284139504" lon="20.01570953089474"><ele>572.0</ele><time>2026-04-16T09:49:41.998Z</time></trkpt><trkpt lat="49.69630814423283" lon="20.015781210531443"><ele>568.3333333333333</ele><time>2026-04-16T09:49:44.998Z</time></trkpt><trkpt lat="49.69635956471057" lon="20.015862992438464"><ele>564.6666666666666</ele><time>2026-04-16T09:49:48.998Z</time></trkpt><trkpt lat="49.69641601056989" lon="20.015920710766476"><ele>561.0</ele><time>2026-04-16T09:49:50.998Z</time></trkpt><trkpt lat="49.696476973068265" lon="20.01597596548552"><ele>557.3333333333334</ele><time>2026-04-16T09:49:52.998Z</time></trkpt><trkpt lat="49.696533664047536" lon="20.016072324585362"><ele>553.6666666666667</ele><time>2026-04-16T09:49:55.998Z</time></trkpt><trkpt lat="49.69659457465524" lon="20.0161453412113"><ele>550.0</ele><time>2026-04-16T09:49:57.998Z</time></trkpt><trkpt lat="49.69663957599338" lon="20.016251847766412"><ele>550.0</ele><time>2026-04-16T09:50:00.998Z</time></trkpt><trkpt lat="49.69666024332951" lon="20.01634707391382"><ele>550.0</ele><time>2026-04-16T09:50:02.998Z</time></trkpt><trkpt lat="49.69672804436373" lon="20.016407479453697"><ele>550.0</ele><time>2026-04-16T09:50:05.998Z</time></trkpt><trkpt lat="49.69676542004704" lon="20.016542405208533"><ele>550.0</ele><time>2026-04-16T09:50:08.998Z</time></trkpt><trkpt lat="49.69683493633635" lon="20.016619868900104"><ele>550.0</ele><time>2026-04-16T09:50:11.998Z</time></trkpt><trkpt lat="49.69689524481723" lon="20.016672762402113"><ele>550.0</ele><time>2026-04-16T09:50:13.998Z</time></trkpt><trkpt lat="49.69695003359342" lon="20.01674612844609"><ele>546.0</ele><time>2026-04-16T09:50:17Z</time></trkpt><trkpt lat="49.69702153989463" lon="20.016763775655004"><ele>542.0</ele><time>2026-04-16T09:50:20Z</time></trkpt><trkpt lat="49.6971011738681" lon="20.01677182638432"><ele>538.0</ele><time>2026-04-16T09:50:30Z</time></trkpt><trkpt lat="49.69715251937916" lon="20.0168480005248"><ele>534.0</ele><time>2026-04-16T09:50:33Z</time></trkpt><trkpt lat="49.69719717212392" lon="20.01695076546215"><ele>530.0</ele><time>2026-04-16T09:50:38Z</time></trkpt><trkpt lat="49.69725536839371" lon="20.0170228688296"><ele>526.0</ele><time>2026-04-16T09:50:42Z</time></trkpt><trkpt lat="49.697328004588876" lon="20.017030552594296"><ele>526.0</ele><time>2026-04-16T09:50:46Z</time></trkpt><trkpt lat="49.69734101344222" lon="20.017126115116586"><ele>526.0</ele><time>2026-04-16T09:50:48Z</time></trkpt><trkpt lat="49.69740327308021" lon="20.017178232524362"><ele>526.0</ele><time>2026-04-16T09:50:51Z</time></trkpt><trkpt lat="49.697488920116996" lon="20.01723373105531"><ele>526.0</ele><time>2026-04-16T09:50:54Z</time></trkpt><trkpt lat="49.69756799160479" lon="20.0172773398404"><ele>526.0</ele><time>2026-04-16T09:50:56.999Z</time></trkpt><trkpt lat="49.697643890592246" lon="20.017320874180587"><ele>526.0</ele><time>2026-04-16T09:50:58.999Z</time></trkpt><trkpt lat="49.6977057693492" lon="20.01738879082264"><ele>523.0</ele><time>2026-04-16T09:51:02.999Z</time></trkpt><trkpt lat="49.697779847354646" lon="20.017427965108176"><ele>520.0</ele><time>2026-04-16T09:51:06.999Z</time></trkpt><trkpt lat="49.697872895016744" lon="20.01740234803361"><ele>517.0</ele><time>2026-04-16T09:51:08.999Z</time></trkpt><trkpt lat="49.697973277680504" lon="20.017399171070537"><ele>514.0</ele><time>2026-04-16T09:51:10.999Z</time></trkpt><trkpt lat="49.698056852715396" lon="20.017376026333373"><ele>511.00000000000006</ele><time>2026-04-16T09:51:12.999Z</time></trkpt><trkpt lat="49.69813442190578" lon="20.017355609253247"><ele>508.0</ele><time>2026-04-16T09:51:14.999Z</time></trkpt><trkpt lat="49.698205985194285" lon="20.01732693916676"><ele>508.00000000000006</ele><time>2026-04-16T09:51:16.999Z</time></trkpt><trkpt lat="49.6983048259882" lon="20.017296446522963"><ele>508.0</ele><time>2026-04-16T09:51:18.999Z</time></trkpt><trkpt lat="49.69836589701863" lon="20.017268158740972"><ele>508.0</ele><time>2026-04-16T09:51:20.999Z</time></trkpt><trkpt lat="49.69845971804485" lon="20.017232362427087"><ele>508.0</ele><time>2026-04-16T09:51:22.999Z</time></trkpt><trkpt lat="49.69853871852834" lon="20.017184852442128"><ele>508.00000000000006</ele><time>2026-04-16T09:51:24.999Z</time></trkpt><trkpt lat="49.69862263697362" lon="20.017147465073954"><ele>508.0</ele><time>2026-04-16T09:51:26.999Z</time></trkpt><trkpt lat="49.698689763096176" lon="20.017096052235942"><ele>504.1666666666667</ele><time>2026-04-16T09:51:29.999Z</time></trkpt><trkpt lat="49.698771881887296" lon="20.0170449519357"><ele>500.33333333333337</ele><time>2026-04-16T09:51:32.999Z</time></trkpt><trkpt lat="49.69885261641343" lon="20.01698078995641"><ele>496.5</ele><time>2026-04-16T09:51:35.999Z</time></trkpt><trkpt lat="49.698929332388644" lon="20.016916468288475"><ele>492.66666666666663</ele><time>2026-04-16T09:51:38.999Z</time></trkpt><trkpt lat="49.69899369129057" lon="20.016870528261848"><ele>488.8333333333333</ele><time>2026-04-16T09:51:40.999Z</time></trkpt><trkpt lat="49.699064724684085" lon="20.016826176534188"><ele>485.0</ele><time>2026-04-16T09:51:42.999Z</time></trkpt><trkpt lat="49.699132422661606" lon="20.016758879464657"><ele>484.99999999999994</ele><time>2026-04-16T09:51:44.999Z</time></trkpt><trkpt lat="49.699196980698574" lon="20.01667383672413"><ele>485.0</ele><time>2026-04-16T09:51:46.999Z</time></trkpt><trkpt lat="49.69923451939079" lon="20.016535255967696"><ele>485.0</ele><time>2026-04-16T09:51:49.998Z</time></trkpt><trkpt lat="49.699282766637985" lon="20.016450338862626"><ele>485.0</ele><time>2026-04-16T09:51:51.998Z</time></trkpt><trkpt lat="49.69936934887237" lon="20.016414875774544"><ele>484.99999999999994</ele><time>2026-04-16T09:51:54.998Z</time></trkpt><trkpt lat="49.69945524805271" lon="20.016442196474188"><ele>485.0</ele><time>2026-04-16T09:51:56.998Z</time></trkpt><trkpt lat="49.69952398314794" lon="20.016462296786095"><ele>483.4285714285715</ele><time>2026-04-16T09:51:58.998Z</time></trkpt><trkpt lat="49.69959199176365" lon="20.016455512970857"><ele>481.8571428571429</ele><time>2026-04-16T09:52:01.998Z</time></trkpt><trkpt lat="49.699648337992194" lon="20.01638608822161"><ele>480.2857142857143</ele><time>2026-04-16T09:52:03.998Z</time></trkpt><trkpt lat="49.69973052892347" lon="20.01634320081049"><ele>478.7142857142857</ele><time>2026-04-16T09:52:05.998Z</time></trkpt><trkpt lat="49.699800707537754" lon="20.01633381109968"><ele>477.1428571428571</ele><time>2026-04-16T09:52:07.998Z</time></trkpt><trkpt lat="49.69987017154691" lon="20.016325007293354"><ele>475.5714285714285</ele><time>2026-04-16T09:52:09.998Z</time></trkpt><trkpt lat="49.69993253052185" lon="20.016364810694657"><ele>473.99999999999994</ele><time>2026-04-16T09:52:14.998Z</time></trkpt><trkpt lat="49.699996696606775" lon="20.016384916135888"><ele>474.0</ele><time>2026-04-16T09:52:17.998Z</time></trkpt><trkpt lat="49.70009139490326" lon="20.016366607475373"><ele>474.0</ele><time>2026-04-16T09:52:23Z</time></trkpt><trkpt lat="49.7001829424401" lon="20.01637510903412"><ele>474.0</ele><time>2026-04-16T09:52:25Z</time></trkpt><trkpt lat="49.70028705370643" lon="20.0163666380535"><ele>474.0</ele><time>2026-04-16T09:52:27Z</time></trkpt><trkpt lat="49.70039536585658" lon="20.016358357133946"><ele>474.0</ele><time>2026-04-16T09:52:29Z</time></trkpt><trkpt lat="49.70049260812932" lon="20.0163373116035"><ele>471.4</ele><time>2026-04-16T09:52:31Z</time></trkpt><trkpt lat="49.700594161391514" lon="20.016336842748043"><ele>468.79999999999995</ele><time>2026-04-16T09:52:33Z</time></trkpt><trkpt lat="49.700676673720224" lon="20.016330516537284"><ele>466.20000000000005</ele><time>2026-04-16T09:52:35Z</time></trkpt><trkpt lat="49.70077716221056" lon="20.016301233403134"><ele>463.6</ele><time>2026-04-16T09:52:37Z</time></trkpt><trkpt lat="49.700851160466016" lon="20.016287429608717"><ele>461.0</ele><time>2026-04-16T09:52:39Z</time></trkpt><trkpt lat="49.70094263370669" lon="20.016286979998817"><ele>461.0</ele><time>2026-04-16T09:52:42Z</time></trkpt><trkpt lat="49.70103129936336" lon="20.01629023873227"><ele>461.00000000000006</ele><time>2026-04-16T09:52:44Z</time></trkpt><trkpt lat="49.701099953856904" lon="20.016299470209592"><ele>461.0</ele><time>2026-04-16T09:52:46Z</time></trkpt><trkpt lat="49.70116267766018" lon="20.016270112003074"><ele>461.0</ele><time>2026-04-16T09:52:51Z</time></trkpt><trkpt lat="49.70123563746491" lon="20.01621929711853"><ele>461.00000000000006</ele><time>2026-04-16T09:52:54Z</time></trkpt><trkpt lat="49.70130417682605" lon="20.016214648722332"><ele>461.0</ele><time>2026-04-16T09:52:56Z</time></trkpt><trkpt lat="49.70136810747672" lon="20.016170199669663"><ele>461.0</ele><time>2026-04-16T09:52:58Z</time></trkpt><trkpt lat="49.70142222578545" lon="20.016110481270328"><ele>459.20000000000005</ele><time>2026-04-16T09:52:59.999Z</time></trkpt><trkpt lat="49.70148012406769" lon="20.015998158117725"><ele>457.40000000000003</ele><time>2026-04-16T09:53:01.999Z</time></trkpt><trkpt lat="49.7015342494051" lon="20.015861224692568"><ele>455.6</ele><time>2026-04-16T09:53:03.999Z</time></trkpt><trkpt lat="49.70156348010696" lon="20.015703803114814"><ele>453.8</ele><time>2026-04-16T09:53:05.999Z</time></trkpt><trkpt lat="49.7015959317814" lon="20.015546578966124"><ele>452.0</ele><time>2026-04-16T09:53:07.999Z</time></trkpt><trkpt lat="49.70160278012977" lon="20.015380917983656"><ele>451.99999999999994</ele><time>2026-04-16T09:53:09.999Z</time></trkpt><trkpt lat="49.701586171344715" lon="20.015229368677968"><ele>452.0</ele><time>2026-04-16T09:53:11.999Z</time></trkpt><trkpt lat="49.70158953036699" lon="20.015112855069482"><ele>452.0</ele><time>2026-04-16T09:53:13.999Z</time></trkpt><trkpt lat="49.70161753890553" lon="20.015018063070237"><ele>452.0</ele><time>2026-04-16T09:53:15.999Z</time></trkpt><trkpt lat="49.701661471154495" lon="20.014936304236976"><ele>451.99999999999994</ele><time>2026-04-16T09:53:17.999Z</time></trkpt><trkpt lat="49.70171998001826" lon="20.014800932352763"><ele>452.0</ele><time>2026-04-16T09:53:20.999Z</time></trkpt><trkpt lat="49.7017730246189" lon="20.01464057029056"><ele>452.0</ele><time>2026-04-16T09:53:22.999Z</time></trkpt><trkpt lat="49.70182953081639" lon="20.014488798699368"><ele>452.00000000000006</ele><time>2026-04-16T09:53:24.999Z</time></trkpt><trkpt lat="49.7018798897515" lon="20.0143495635156"><ele>452.00000000000006</ele><time>2026-04-16T09:53:26.999Z</time></trkpt><trkpt lat="49.701930688972425" lon="20.014212682073016"><ele>452.0</ele><time>2026-04-16T09:53:28.999Z</time></trkpt><trkpt lat="49.701975034560284" lon="20.014061708032838"><ele>452.0</ele><time>2026-04-16T09:53:30.999Z</time></trkpt><trkpt lat="49.7020318732788" lon="20.013923163236374"><ele>452.0</ele><time>2026-04-16T09:53:32.999Z</time></trkpt><trkpt lat="49.70209382563995" lon="20.013778933580195"><ele>452.00000000000006</ele><time>2026-04-16T09:53:34.999Z</time></trkpt><trkpt lat="49.702163445323194" lon="20.013629478509767"><ele>452.00000000000006</ele><time>2026-04-16T09:53:36.999Z</time></trkpt><trkpt lat="49.70222248928737" lon="20.013480027087297"><ele>452.0</ele><time>2026-04-16T09:53:38.999Z</time></trkpt><trkpt lat="49.70225935861202" lon="20.013337965672644"><ele>452.0</ele><time>2026-04-16T09:53:40.999Z</time></trkpt><trkpt lat="49.7022730148214" lon="20.013195624713482"><ele>452.6</ele><time>2026-04-16T09:53:42.999Z</time></trkpt><trkpt lat="49.702280726986565" lon="20.013082154170256"><ele>453.20000000000005</ele><time>2026-04-16T09:53:44.999Z</time></trkpt><trkpt lat="49.70230698957977" lon="20.01292057050114"><ele>453.8</ele><time>2026-04-16T09:53:46.999Z</time></trkpt><trkpt lat="49.702322845337115" lon="20.012762814480176"><ele>454.4</ele><time>2026-04-16T09:53:48.999Z</time></trkpt><trkpt lat="49.70232748490544" lon="20.012612054911514"><ele>455.0</ele><time>2026-04-16T09:53:50.999Z</time></trkpt><trkpt lat="49.702337326425294" lon="20.012455144663384"><ele>457.0</ele><time>2026-04-16T09:53:52.998Z</time></trkpt><trkpt lat="49.702346355992475" lon="20.012327539103435"><ele>459.0</ele><time>2026-04-16T09:53:54.998Z</time></trkpt><trkpt lat="49.702373540176886" lon="20.012204779312736"><ele>461.0</ele><time>2026-04-16T09:53:56.998Z</time></trkpt><trkpt lat="49.702402745331376" lon="20.012059587865004"><ele>463.0</ele><time>2026-04-16T09:53:58.998Z</time></trkpt><trkpt lat="49.7024611768285" lon="20.01189519613213"><ele>465.0</ele><time>2026-04-16T09:54:00.998Z</time></trkpt><trkpt lat="49.70251222341649" lon="20.01176834885307"><ele>467.5</ele><time>2026-04-16T09:54:02.998Z</time></trkpt><trkpt lat="49.70256816243754" lon="20.011632274620144"><ele>470.0</ele><time>2026-04-16T09:54:04.998Z</time></trkpt><trkpt lat="49.702622680559635" lon="20.011523556653206"><ele>472.5</ele><time>2026-04-16T09:54:06.998Z</time></trkpt><trkpt lat="49.70266551892381" lon="20.01142720659787"><ele>475.0</ele><time>2026-04-16T09:54:08.998Z</time></trkpt><trkpt lat="49.70272494180905" lon="20.01131660658619"><ele>477.5</ele><time>2026-04-16T09:54:10.998Z</time></trkpt><trkpt lat="49.702761363542066" lon="20.01120719201013"><ele>480.0</ele><time>2026-04-16T09:54:12.998Z</time></trkpt><trkpt lat="49.70277767720074" lon="20.011096129981436"><ele>475.0</ele><time>2026-04-16T09:54:14.998Z</time></trkpt><trkpt lat="49.70279559464881" lon="20.010998808139654"><ele>470.0</ele><time>2026-04-16T09:54:17.998Z</time></trkpt><trkpt lat="49.702795905851126" lon="20.010879647413592"><ele>465.0</ele><time>2026-04-16T09:54:20.998Z</time></trkpt><trkpt lat="49.70284539360887" lon="20.0107509016734"><ele>460.0</ele><time>2026-04-16T09:54:22.998Z</time></trkpt><trkpt lat="49.70290376244058" lon="20.01062425838089"><ele>455.0</ele><time>2026-04-16T09:54:24.998Z</time></trkpt><trkpt lat="49.70295657956525" lon="20.010499391704254"><ele>450.0</ele><time>2026-04-16T09:54:27Z</time></trkpt><trkpt lat="49.703010200878715" lon="20.010372505477708"><ele>450.0</ele><time>2026-04-16T09:54:29Z</time></trkpt><trkpt lat="49.703058558437036" lon="20.010256830807865"><ele>450.0</ele><time>2026-04-16T09:54:31Z</time></trkpt><trkpt lat="49.70309923970909" lon="20.01014073374338"><ele>450.0</ele><time>2026-04-16T09:54:33Z</time></trkpt><trkpt lat="49.70315479730394" lon="20.01001528949911"><ele>450.0</ele><time>2026-04-16T09:54:35Z</time></trkpt><trkpt lat="49.703189903700235" lon="20.00987890310038"><ele>450.0</ele><time>2026-04-16T09:54:37Z</time></trkpt><trkpt lat="49.70322443203621" lon="20.00972747849234"><ele>451.1666666666667</ele><time>2026-04-16T09:54:39Z</time></trkpt><trkpt lat="49.70325798882097" lon="20.00958776016595"><ele>452.33333333333337</ele><time>2026-04-16T09:54:41Z</time></trkpt><trkpt lat="49.70324553611874" lon="20.009450280891336"><ele>453.5</ele><time>2026-04-16T09:54:43Z</time></trkpt><trkpt lat="49.703230887494556" lon="20.00932163966242"><ele>454.6666666666667</ele><time>2026-04-16T09:54:45Z</time></trkpt><trkpt lat="49.70322428220186" lon="20.009196973474587"><ele>455.83333333333337</ele><time>2026-04-16T09:54:47Z</time></trkpt><trkpt lat="49.70323683418021" lon="20.00908826638527"><ele>457.0</ele><time>2026-04-16T09:54:50Z</time></trkpt><trkpt lat="49.703278696908" lon="20.00901410160958"><ele>457.33333333333337</ele><time>2026-04-16T09:54:53Z</time></trkpt><trkpt lat="49.70331499992779" lon="20.008934532932823"><ele>457.6666666666667</ele><time>2026-04-16T09:54:55Z</time></trkpt><trkpt lat="49.70337539030546" lon="20.00882451660447"><ele>458.0</ele><time>2026-04-16T09:54:58Z</time></trkpt><trkpt lat="49.70339127281905" lon="20.00869430417144"><ele>458.33333333333337</ele><time>2026-04-16T09:55:00Z</time></trkpt><trkpt lat="49.703405744756715" lon="20.008550913823814"><ele>458.6666666666667</ele><time>2026-04-16T09:55:02Z</time></trkpt><trkpt lat="49.7034218644144" lon="20.0084043060745"><ele>459.0</ele><time>2026-04-16T09:55:04Z</time></trkpt><trkpt lat="49.70343640638823" lon="20.008248246721507"><ele>460.8333333333333</ele><time>2026-04-16T09:55:05.999Z</time></trkpt><trkpt lat="49.703456515159885" lon="20.00809255183541"><ele>462.66666666666663</ele><time>2026-04-16T09:55:07.999Z</time></trkpt><trkpt lat="49.70347581162577" lon="20.00797863728642"><ele>464.5</ele><time>2026-04-16T09:55:09.999Z</time></trkpt><trkpt lat="49.70350064256114" lon="20.00786488076226"><ele>466.3333333333333</ele><time>2026-04-16T09:55:11.999Z</time></trkpt><trkpt lat="49.70354374621776" lon="20.00770545716293"><ele>468.16666666666663</ele><time>2026-04-16T09:55:13.999Z</time></trkpt><trkpt lat="49.70357770139135" lon="20.007620887340355"><ele>470.0</ele><time>2026-04-16T09:55:14.999Z</time></trkpt><trkpt lat="49.70362746890269" lon="20.00747009984713"><ele>464.8</ele><time>2026-04-16T09:55:16.999Z</time></trkpt><trkpt lat="49.70366238125521" lon="20.00733320514793"><ele>459.6</ele><time>2026-04-16T09:55:18.999Z</time></trkpt><trkpt lat="49.703696362753114" lon="20.007232120697036"><ele>454.4</ele><time>2026-04-16T09:55:20.999Z</time></trkpt><trkpt lat="49.7037396643765" lon="20.00710257348732"><ele>449.2</ele><time>2026-04-16T09:55:22.999Z</time></trkpt><trkpt lat="49.70377251522663" lon="20.006957649541835"><ele>444.0</ele><time>2026-04-16T09:55:24.999Z</time></trkpt><trkpt lat="49.703817018968934" lon="20.00681109588751"><ele>444.0</ele><time>2026-04-16T09:55:26.999Z</time></trkpt><trkpt lat="49.70384985256183" lon="20.006679163104014"><ele>444.0</ele><time>2026-04-16T09:55:28.999Z</time></trkpt><trkpt lat="49.70387646794402" lon="20.006561038251984"><ele>444.0</ele><time>2026-04-16T09:55:30.999Z</time></trkpt><trkpt lat="49.703897052132675" lon="20.006432927560198"><ele>444.0</ele><time>2026-04-16T09:55:33.999Z</time></trkpt><trkpt lat="49.70387077518504" lon="20.00633702339332"><ele>444.0</ele><time>2026-04-16T09:55:36.999Z</time></trkpt><trkpt lat="49.70383113137082" lon="20.006260620223905"><ele>444.0</ele><time>2026-04-16T09:55:39.999Z</time></trkpt><trkpt lat="49.70380752960756" lon="20.00616064769825"><ele>444.6</ele><time>2026-04-16T09:55:41.999Z</time></trkpt><trkpt lat="49.70379083355108" lon="20.006005554343478"><ele>445.2</ele><time>2026-04-16T09:55:43.999Z</time></trkpt><trkpt lat="49.70381077640829" lon="20.00585889217921"><ele>445.80000000000007</ele><time>2026-04-16T09:55:45.999Z</time></trkpt><trkpt lat="49.703834175795194" lon="20.005722421570187"><ele>446.40000000000003</ele><time>2026-04-16T09:55:47.999Z</time></trkpt><trkpt lat="49.703860130757484" lon="20.005569356940107"><ele>447.0</ele><time>2026-04-16T09:55:49.999Z</time></trkpt><trkpt lat="49.703884823638994" lon="20.005404581023793"><ele>447.8</ele><time>2026-04-16T09:55:51.999Z</time></trkpt><trkpt lat="49.703913792911614" lon="20.00525351310568"><ele>448.6</ele><time>2026-04-16T09:55:53.999Z</time></trkpt><trkpt lat="49.703945950094656" lon="20.005098643334524"><ele>449.40000000000003</ele><time>2026-04-16T09:55:55.999Z</time></trkpt><trkpt lat="49.7039890959677" lon="20.004952925967718"><ele>450.20000000000005</ele><time>2026-04-16T09:55:57.998Z</time></trkpt><trkpt lat="49.70402634971034" lon="20.00482660708378"><ele>451.0</ele><time>2026-04-16T09:55:59.998Z</time></trkpt><trkpt lat="49.7040877133624" lon="20.004668620215075"><ele>452.20000000000005</ele><time>2026-04-16T09:56:02.998Z</time></trkpt><trkpt lat="49.70413465380433" lon="20.004512446830837"><ele>453.40000000000003</ele><time>2026-04-16T09:56:04.998Z</time></trkpt><trkpt lat="49.70415657322045" lon="20.00435673362829"><ele>454.6</ele><time>2026-04-16T09:56:06.998Z</time></trkpt><trkpt lat="49.704186122349725" lon="20.004208976872842"><ele>455.8</ele><time>2026-04-16T09:56:08.998Z</time></trkpt><trkpt lat="49.7042114615126" lon="20.00405892169468"><ele>457.0</ele><time>2026-04-16T09:56:10.998Z</time></trkpt><trkpt lat="49.70421700939696" lon="20.00389613200877"><ele>457.83333333333337</ele><time>2026-04-16T09:56:12.998Z</time></trkpt><trkpt lat="49.704204851892705" lon="20.003730792665188"><ele>458.6666666666667</ele><time>2026-04-16T09:56:14.998Z</time></trkpt><trkpt lat="49.70414994801953" lon="20.00362238233864"><ele>459.5</ele><time>2026-04-16T09:56:16.998Z</time></trkpt><trkpt lat="49.70409391134878" lon="20.003563607442867"><ele>460.33333333333337</ele><time>2026-04-16T09:56:18.998Z</time></trkpt><trkpt lat="49.70403932650244" lon="20.00346205851093"><ele>461.1666666666667</ele><time>2026-04-16T09:56:20.998Z</time></trkpt><trkpt lat="49.70402895353729" lon="20.003331646479573"><ele>462.0</ele><time>2026-04-16T09:56:22.998Z</time></trkpt><trkpt lat="49.704058962331004" lon="20.00316405958832"><ele>463.20000000000005</ele><time>2026-04-16T09:56:24.998Z</time></trkpt><trkpt lat="49.70407768502476" lon="20.003027561438316"><ele>464.40000000000003</ele><time>2026-04-16T09:56:26.998Z</time></trkpt><trkpt lat="49.704135497912446" lon="20.00288501345256"><ele>465.59999999999997</ele><time>2026-04-16T09:56:28.998Z</time></trkpt><trkpt lat="49.704183209144496" lon="20.002776859044708"><ele>466.79999999999995</ele><time>2026-04-16T09:56:30.998Z</time></trkpt><trkpt lat="49.704218175019044" lon="20.00263277347755"><ele>468.0</ele><time>2026-04-16T09:56:33Z</time></trkpt><trkpt lat="49.70426457002478" lon="20.002481500577346"><ele>469.0</ele><time>2026-04-16T09:56:35Z</time></trkpt><trkpt lat="49.704284945127355" lon="20.0023315413019"><ele>469.99999999999994</ele><time>2026-04-16T09:56:37Z</time></trkpt><trkpt lat="49.70432967799796" lon="20.00218655459423"><ele>470.99999999999994</ele><time>2026-04-16T09:56:39Z</time></trkpt><trkpt lat="49.70436245854806" lon="20.00203150710666"><ele>472.0</ele><time>2026-04-16T09:56:41Z</time></trkpt><trkpt lat="49.7043876694419" lon="20.00186422698891"><ele>473.0</ele><time>2026-04-16T09:56:43Z</time></trkpt><trkpt lat="49.70440671777847" lon="20.001702001670314"><ele>467.59999999999997</ele><time>2026-04-16T09:56:45Z</time></trkpt><trkpt lat="49.7044359517584" lon="20.00153265271046"><ele>462.19999999999993</ele><time>2026-04-16T09:56:47Z</time></trkpt><trkpt lat="49.70444818378207" lon="20.00135559888754"><ele>456.8</ele><time>2026-04-16T09:56:49Z</time></trkpt><trkpt lat="49.704462312354906" lon="20.001210012313372"><ele>451.4</ele><time>2026-04-16T09:56:51Z</time></trkpt><trkpt lat="49.70448068356844" lon="20.00107616106491"><ele>446.0</ele><time>2026-04-16T09:56:53Z</time></trkpt><trkpt lat="49.70450435320795" lon="20.000911174288202"><ele>447.0</ele><time>2026-04-16T09:56:55Z</time></trkpt><trkpt lat="49.70455400053802" lon="20.00074621754186"><ele>448.0</ele><time>2026-04-16T09:56:57Z</time></trkpt><trkpt lat="49.704595458144986" lon="20.000594736017856"><ele>449.0</ele><time>2026-04-16T09:56:59Z</time></trkpt><trkpt lat="49.70463540725119" lon="20.000438831104898"><ele>450.0</ele><time>2026-04-16T09:57:01Z</time></trkpt><trkpt lat="49.70464941598512" lon="20.000268710008807"><ele>451.0</ele><time>2026-04-16T09:57:03Z</time></trkpt><trkpt lat="49.70468017152305" lon="20.000114615033876"><ele>451.00000000000006</ele><time>2026-04-16T09:57:05Z</time></trkpt><trkpt lat="49.70466691777497" lon="19.999967754132353"><ele>451.0</ele><time>2026-04-16T09:57:07Z</time></trkpt><trkpt lat="49.704689785993686" lon="19.9998449164589"><ele>451.0</ele><time>2026-04-16T09:57:09Z</time></trkpt><trkpt lat="49.70467795799569" lon="19.999731611628867"><ele>451.0</ele><time>2026-04-16T09:57:11Z</time></trkpt><trkpt lat="49.70470794031942" lon="19.999645234480216"><ele>451.00000000000006</ele><time>2026-04-16T09:57:12.999Z</time></trkpt><trkpt lat="49.704704446702024" lon="19.999522248126475"><ele>451.0</ele><time>2026-04-16T09:57:15.999Z</time></trkpt><trkpt lat="49.704714733929805" lon="19.999396373600877"><ele>451.00000000000006</ele><time>2026-04-16T09:57:17.999Z</time></trkpt><trkpt lat="49.70474099994405" lon="19.99927156507185"><ele>451.0</ele><time>2026-04-16T09:57:19.999Z</time></trkpt><trkpt lat="49.70475050490654" lon="19.99914813795601"><ele>451.0</ele><time>2026-04-16T09:57:21.999Z</time></trkpt><trkpt lat="49.704734421799124" lon="19.99903672265367"><ele>451.0</ele><time>2026-04-16T09:57:23.999Z</time></trkpt><trkpt lat="49.70476296997962" lon="19.99890054219926"><ele>451.00000000000006</ele><time>2026-04-16T09:57:25.999Z</time></trkpt><trkpt lat="49.704805254226734" lon="19.99877127283273"><ele>451.0</ele><time>2026-04-16T09:57:28.999Z</time></trkpt><trkpt lat="49.704863037088074" lon="19.998656849520366"><ele>451.33333333333337</ele><time>2026-04-16T09:57:31.999Z</time></trkpt><trkpt lat="49.70494963165742" lon="19.99871117884916"><ele>451.6666666666667</ele><time>2026-04-16T09:58:39Z</time></trkpt><trkpt lat="49.70491221294608" lon="19.998616956975937"><ele>452.0</ele><time>2026-04-16T09:59:08Z</time></trkpt><trkpt lat="49.7049167801369" lon="19.998484402732178"><ele>452.33333333333337</ele><time>2026-04-16T09:59:24.999Z</time></trkpt><trkpt lat="49.7049876809184" lon="19.998480890577365"><ele>452.6666666666667</ele><time>2026-04-16T09:59:29.999Z</time></trkpt><trkpt lat="49.70502815811145" lon="19.99858521739593"><ele>453.0</ele><time>2026-04-16T09:59:38.999Z</time></trkpt><trkpt lat="49.705102390926726" lon="19.998667256497168"><ele>453.0</ele><time>2026-04-16T09:59:41.999Z</time></trkpt><trkpt lat="49.70516989965874" lon="19.998726932067196"><ele>453.0</ele><time>2026-04-16T09:59:44.999Z</time></trkpt><trkpt lat="49.70524742911422" lon="19.998771850103036"><ele>453.0</ele><time>2026-04-16T09:59:46.999Z</time></trkpt><trkpt lat="49.705307227955444" lon="19.9988069145193"><ele>453.0</ele><time>2026-04-16T09:59:48.999Z</time></trkpt><trkpt lat="49.705378574111634" lon="19.9988486723784"><ele>453.0</ele><time>2026-04-16T09:59:50.999Z</time></trkpt><trkpt lat="49.70544924677934" lon="19.9989034280121"><ele>453.0</ele><time>2026-04-16T09:59:52.999Z</time></trkpt><trkpt lat="49.70553092457342" lon="19.998942017161674"><ele>450.8571428571428</ele><time>2026-04-16T09:59:54.999Z</time></trkpt><trkpt lat="49.70558457399415" lon="19.998994257817678"><ele>448.71428571428567</ele><time>2026-04-16T09:59:56.999Z</time></trkpt><trkpt lat="49.70566638043772" lon="19.999021303661262"><ele>446.57142857142856</ele><time>2026-04-16T09:59:59.999Z</time></trkpt><trkpt lat="49.705714736303385" lon="19.99908738165144"><ele>444.4285714285714</ele><time>2026-04-16T10:00:01.999Z</time></trkpt><trkpt lat="49.70576840097862" lon="19.999145707245436"><ele>442.2857142857142</ele><time>2026-04-16T10:00:03.999Z</time></trkpt><trkpt lat="49.705843336815505" lon="19.999141484586744"><ele>440.14285714285717</ele><time>2026-04-16T10:00:05.999Z</time></trkpt><trkpt lat="49.70592709661725" lon="19.99919287296202"><ele>438.0</ele><time>2026-04-16T10:00:08.999Z</time></trkpt><trkpt lat="49.705995572314635" lon="19.999188238368617"><ele>436.8571428571429</ele><time>2026-04-16T10:00:10.998Z</time></trkpt><trkpt lat="49.70605799937566" lon="19.999211973644933"><ele>435.71428571428567</ele><time>2026-04-16T10:00:12.998Z</time></trkpt><trkpt lat="49.706130138572746" lon="19.999229290011"><ele>434.57142857142856</ele><time>2026-04-16T10:00:14.998Z</time></trkpt><trkpt lat="49.70619983135025" lon="19.99926750517588"><ele>433.42857142857144</ele><time>2026-04-16T10:00:16.998Z</time></trkpt><trkpt lat="49.70627322248631" lon="19.999262588849376"><ele>432.28571428571433</ele><time>2026-04-16T10:00:18.998Z</time></trkpt><trkpt lat="49.70633986902743" lon="19.99928382614725"><ele>431.1428571428571</ele><time>2026-04-16T10:00:20.998Z</time></trkpt><trkpt lat="49.7064156598738" lon="19.999285430534435"><ele>430.0</ele><time>2026-04-16T10:00:22.998Z</time></trkpt><trkpt lat="49.706501372741265" lon="19.999277898793412"><ele>429.00000000000006</ele><time>2026-04-16T10:00:24.998Z</time></trkpt><trkpt lat="49.70658333047567" lon="19.999279285676508"><ele>428.0</ele><time>2026-04-16T10:00:26.998Z</time></trkpt><trkpt lat="49.706670913650065" lon="19.999316556290136"><ele>427.0</ele><time>2026-04-16T10:00:28.998Z</time></trkpt><trkpt lat="49.70675795955906" lon="19.999339147963756"><ele>426.0</ele><time>2026-04-16T10:00:30.998Z</time></trkpt><trkpt lat="49.70683770340524" lon="19.99935991844227"><ele>425.00000000000006</ele><time>2026-04-16T10:00:32.998Z</time></trkpt><trkpt lat="49.706904321171315" lon="19.99940578329958"><ele>424.0</ele><time>2026-04-16T10:00:34.998Z</time></trkpt><trkpt lat="49.70695272885947" lon="19.999483946105936"><ele>423.83333333333337</ele><time>2026-04-16T10:00:36.998Z</time></trkpt><trkpt lat="49.70699397480351" lon="19.999598636577108"><ele>423.6666666666667</ele><time>2026-04-16T10:00:38.998Z</time></trkpt><trkpt lat="49.70705980154524" lon="19.99969233847873"><ele>423.5</ele><time>2026-04-16T10:00:41.998Z</time></trkpt><trkpt lat="49.707125934005354" lon="19.999702327878865"><ele>423.33333333333337</ele><time>2026-04-16T10:00:43.998Z</time></trkpt><trkpt lat="49.70721256273024" lon="19.999765410306548"><ele>423.1666666666667</ele><time>2026-04-16T10:00:47Z</time></trkpt><trkpt lat="49.70727940073533" lon="19.999773039934585"><ele>423.0</ele><time>2026-04-16T10:00:49Z</time></trkpt><trkpt lat="49.70734985531889" lon="19.99978723917634"><ele>423.0</ele><time>2026-04-16T10:00:51Z</time></trkpt><trkpt lat="49.70742006252783" lon="19.9998267283055"><ele>423.0</ele><time>2026-04-16T10:00:55Z</time></trkpt><trkpt lat="49.70748418738789" lon="19.999780242116366"><ele>423.0</ele><time>2026-04-16T10:00:57Z</time></trkpt><trkpt lat="49.70756483271835" lon="19.99970201494837"><ele>423.0</ele><time>2026-04-16T10:00:59Z</time></trkpt><trkpt lat="49.70759674280221" lon="19.999599321414163"><ele>423.0</ele><time>2026-04-16T10:01:01Z</time></trkpt><trkpt lat="49.707581574162525" lon="19.99947417601921"><ele>423.0</ele><time>2026-04-16T10:01:04Z</time></trkpt><trkpt lat="49.70755466698631" lon="19.99937810524931"><ele>423.0</ele><time>2026-04-16T10:01:06Z</time></trkpt><trkpt lat="49.70752207445992" lon="19.999277311344954"><ele>423.0</ele><time>2026-04-16T10:01:09Z</time></trkpt><trkpt lat="49.70763466383107" lon="19.999217209945495"><ele>423.0</ele><time>2026-04-16T10:01:13Z</time></trkpt><trkpt lat="49.70773628798327" lon="19.999253694963468"><ele>423.0</ele><time>2026-04-16T10:01:16Z</time></trkpt><trkpt lat="49.70780837200541" lon="19.999278678469008"><ele>423.0</ele><time>2026-04-16T10:01:18Z</time></trkpt><trkpt lat="49.707888340344034" lon="19.999265225416373"><ele>421.1666666666667</ele><time>2026-04-16T10:01:21Z</time></trkpt><trkpt lat="49.70795726163251" lon="19.99921355911335"><ele>419.33333333333337</ele><time>2026-04-16T10:01:23Z</time></trkpt><trkpt lat="49.7080185760725" lon="19.999131753749772"><ele>417.5</ele><time>2026-04-16T10:01:24.999Z</time></trkpt><trkpt lat="49.70806240376298" lon="19.998993610205932"><ele>415.6666666666667</ele><time>2026-04-16T10:01:26.999Z</time></trkpt><trkpt lat="49.70804789484475" lon="19.99889755457016"><ele>413.83333333333337</ele><time>2026-04-16T10:01:28.999Z</time></trkpt><trkpt lat="49.70810762018976" lon="19.99876134996706"><ele>412.0</ele><time>2026-04-16T10:01:30.999Z</time></trkpt><trkpt lat="49.70816888125405" lon="19.998650138962276"><ele>411.6</ele><time>2026-04-16T10:01:32.999Z</time></trkpt><trkpt lat="49.70823534917259" lon="19.99852488521726"><ele>411.20000000000005</ele><time>2026-04-16T10:01:34.999Z</time></trkpt><trkpt lat="49.70828784463478" lon="19.998358267768346"><ele>410.8</ele><time>2026-04-16T10:01:36.999Z</time></trkpt><trkpt lat="49.70831479363462" lon="19.998215333406524"><ele>410.4</ele><time>2026-04-16T10:01:38.999Z</time></trkpt><trkpt lat="49.708334579235455" lon="19.998106687454477"><ele>410.0</ele><time>2026-04-16T10:01:40.999Z</time></trkpt><trkpt lat="49.70836729662734" lon="19.998018811230512"><ele>410.0</ele><time>2026-04-16T10:01:41.999Z</time></trkpt><trkpt lat="49.70838750990296" lon="19.99786114017112"><ele>410.0</ele><time>2026-04-16T10:01:43.999Z</time></trkpt><trkpt lat="49.70841039150564" lon="19.997717213934067"><ele>410.0</ele><time>2026-04-16T10:01:45.999Z</time></trkpt><trkpt lat="49.708443643605094" lon="19.997561561551176"><ele>410.0</ele><time>2026-04-16T10:01:47.999Z</time></trkpt><trkpt lat="49.708463497129706" lon="19.99744485172442"><ele>410.0</ele><time>2026-04-16T10:01:49.999Z</time></trkpt><trkpt lat="49.708501955634716" lon="19.997275122820202"><ele>409.99999999999994</ele><time>2026-04-16T10:01:51.999Z</time></trkpt><trkpt lat="49.70852412686772" lon="19.997171475256156"><ele>410.0</ele><time>2026-04-16T10:01:53.999Z</time></trkpt><trkpt lat="49.708550847412624" lon="19.997044642784775"><ele>410.0</ele><time>2026-04-16T10:01:55.999Z</time></trkpt><trkpt lat="49.708579166864666" lon="19.996903218570104"><ele>410.0</ele><time>2026-04-16T10:01:57.999Z</time></trkpt><trkpt lat="49.70863704274017" lon="19.99678504850801"><ele>409.99999999999994</ele><time>2026-04-16T10:02:00.999Z</time></trkpt><trkpt lat="49.70866167680936" lon="19.996680526360052"><ele>410.0</ele><time>2026-04-16T10:02:02.999Z</time></trkpt><trkpt lat="49.70871722976863" lon="19.99661456457977"><ele>409.99999999999994</ele><time>2026-04-16T10:02:04.999Z</time></trkpt><trkpt lat="49.70876810583128" lon="19.99652099343811"><ele>410.0</ele><time>2026-04-16T10:02:08.999Z</time></trkpt><trkpt lat="49.70881719028291" lon="19.996417751193004"><ele>410.0</ele><time>2026-04-16T10:02:11.999Z</time></trkpt><trkpt lat="49.708810453021904" lon="19.99627350798833"><ele>410.0</ele><time>2026-04-16T10:02:14.999Z</time></trkpt><trkpt lat="49.708760015083136" lon="19.99620709051369"><ele>409.99999999999994</ele><time>2026-04-16T10:02:16.998Z</time></trkpt><trkpt lat="49.70877330308456" lon="19.996091697564317"><ele>410.0</ele><time>2026-04-16T10:02:19.998Z</time></trkpt><trkpt lat="49.708815557726936" lon="19.995977155369552"><ele>409.99999999999994</ele><time>2026-04-16T10:02:22.998Z</time></trkpt><trkpt lat="49.70887762946418" lon="19.995887010465143"><ele>410.0</ele><time>2026-04-16T10:02:24.998Z</time></trkpt><trkpt lat="49.708933434347266" lon="19.99581043505844"><ele>410.0</ele><time>2026-04-16T10:02:26.998Z</time></trkpt><trkpt lat="49.7090010988102" lon="19.995703279045777"><ele>410.0</ele><time>2026-04-16T10:02:28.998Z</time></trkpt><trkpt lat="49.709043103342125" lon="19.99557231111914"><ele>409.99999999999994</ele><time>2026-04-16T10:02:30.998Z</time></trkpt><trkpt lat="49.709097823751954" lon="19.995468844233265"><ele>410.0</ele><time>2026-04-16T10:02:33.998Z</time></trkpt><trkpt lat="49.70912491419609" lon="19.995370848365454"><ele>410.14285714285717</ele><time>2026-04-16T10:02:36.998Z</time></trkpt><trkpt lat="49.709156885491446" lon="19.995264269526974"><ele>410.2857142857143</ele><time>2026-04-16T10:02:40.998Z</time></trkpt><trkpt lat="49.70920692135014" lon="19.995200961279483"><ele>410.42857142857144</ele><time>2026-04-16T10:02:42.998Z</time></trkpt><trkpt lat="49.7092176142232" lon="19.995101685402187"><ele>410.57142857142856</ele><time>2026-04-16T10:02:45.998Z</time></trkpt><trkpt lat="49.70923535159576" lon="19.994999216768324"><ele>410.71428571428567</ele><time>2026-04-16T10:02:48.998Z</time></trkpt><trkpt lat="49.70930785680442" lon="19.994973009706293"><ele>410.85714285714283</ele><time>2026-04-16T10:03:01Z</time></trkpt><trkpt lat="49.70937525890819" lon="19.995049042561778"><ele>411.0</ele><time>2026-04-16T10:03:04Z</time></trkpt><trkpt lat="49.70944907896435" lon="19.995068994227086"><ele>410.57142857142856</ele><time>2026-04-16T10:03:08Z</time></trkpt><trkpt lat="49.709521347527726" lon="19.995080772856518"><ele>410.1428571428571</ele><time>2026-04-16T10:03:10Z</time></trkpt><trkpt lat="49.70958375219024" lon="19.995049580353285"><ele>409.7142857142857</ele><time>2026-04-16T10:03:12Z</time></trkpt><trkpt lat="49.709640604321635" lon="19.994975773835222"><ele>409.2857142857143</ele><time>2026-04-16T10:03:14Z</time></trkpt><trkpt lat="49.70969746797596" lon="19.994903041506277"><ele>408.8571428571429</ele><time>2026-04-16T10:03:16Z</time></trkpt><trkpt lat="49.709733645845766" lon="19.994822299388446"><ele>408.42857142857144</ele><time>2026-04-16T10:03:18Z</time></trkpt><trkpt lat="49.70975706839342" lon="19.994724142874432"><ele>408.0</ele><time>2026-04-16T10:03:20Z</time></trkpt><trkpt lat="49.70978126778004" lon="19.994588580810056"><ele>408.0</ele><time>2026-04-16T10:03:22Z</time></trkpt><trkpt lat="49.70980336324347" lon="19.994453277656888"><ele>408.0</ele><time>2026-04-16T10:03:24Z</time></trkpt><trkpt lat="49.70980498877063" lon="19.994317814159437"><ele>408.0</ele><time>2026-04-16T10:03:26Z</time></trkpt><trkpt lat="49.709807046696184" lon="19.994218334880898"><ele>408.0</ele><time>2026-04-16T10:03:28Z</time></trkpt><trkpt lat="49.709818580781146" lon="19.994066256210907"><ele>408.0</ele><time>2026-04-16T10:03:30Z</time></trkpt><trkpt lat="49.7098364852356" lon="19.993902840024845"><ele>408.0</ele><time>2026-04-16T10:03:31.999Z</time></trkpt><trkpt lat="49.70987310868085" lon="19.993750577016947"><ele>408.4</ele><time>2026-04-16T10:03:33.999Z</time></trkpt><trkpt lat="49.70991734046716" lon="19.993604597541868"><ele>408.79999999999995</ele><time>2026-04-16T10:03:35.999Z</time></trkpt><trkpt lat="49.70996484657758" lon="19.9934515587173"><ele>409.2</ele><time>2026-04-16T10:03:37.999Z</time></trkpt><trkpt lat="49.710001227546755" lon="19.993272673479908"><ele>409.6</ele><time>2026-04-16T10:03:39.999Z</time></trkpt><trkpt lat="49.7100400754981" lon="19.99318268172778"><ele>410.0</ele><time>2026-04-16T10:03:40.999Z</time></trkpt><trkpt lat="49.71006751974092" lon="19.993093138705195"><ele>409.99999999999994</ele><time>2026-04-16T10:03:41.999Z</time></trkpt><trkpt lat="49.71009767093504" lon="19.993005789809512"><ele>410.0</ele><time>2026-04-16T10:03:42.999Z</time></trkpt><trkpt lat="49.710121619941475" lon="19.99291514342428"><ele>410.0</ele><time>2026-04-16T10:03:43.999Z</time></trkpt><trkpt lat="49.71018180686735" lon="19.992736936001144"><ele>410.0</ele><time>2026-04-16T10:03:45.999Z</time></trkpt><trkpt lat="49.710206443540955" lon="19.992637617092733"><ele>409.99999999999994</ele><time>2026-04-16T10:03:46.999Z</time></trkpt><trkpt lat="49.71023641309725" lon="19.992541687976804"><ele>410.0</ele><time>2026-04-16T10:03:47.999Z</time></trkpt><trkpt lat="49.71025728147315" lon="19.992447446866475"><ele>409.0</ele><time>2026-04-16T10:03:48.999Z</time></trkpt><trkpt lat="49.710293669965395" lon="19.992350932885746"><ele>408.0</ele><time>2026-04-16T10:03:49.999Z</time></trkpt><trkpt lat="49.7103551111235" lon="19.992175853710105"><ele>407.0</ele><time>2026-04-16T10:03:51.999Z</time></trkpt><trkpt lat="49.71039915460448" lon="19.99203452250918"><ele>406.0</ele><time>2026-04-16T10:03:53.999Z</time></trkpt><trkpt lat="49.710442240654174" lon="19.991887645485352"><ele>405.0</ele><time>2026-04-16T10:03:55.999Z</time></trkpt><trkpt lat="49.71047136967485" lon="19.991787246138685"><ele>404.99999999999994</ele><time>2026-04-16T10:03:56.999Z</time></trkpt><trkpt lat="49.7105042658224" lon="19.99168988601495"><ele>405.0</ele><time>2026-04-16T10:03:57.999Z</time></trkpt><trkpt lat="49.71053704620978" lon="19.991591007622485"><ele>405.0</ele><time>2026-04-16T10:03:58.999Z</time></trkpt><trkpt lat="49.710568192293096" lon="19.991497997658296"><ele>405.0</ele><time>2026-04-16T10:03:59.999Z</time></trkpt><trkpt lat="49.710597907713726" lon="19.991395617423454"><ele>405.0</ele><time>2026-04-16T10:04:00.999Z</time></trkpt><trkpt lat="49.71063283785319" lon="19.99129055292795"><ele>404.99999999999994</ele><time>2026-04-16T10:04:01.999Z</time></trkpt><trkpt lat="49.71066071544099" lon="19.991199779146786"><ele>405.0</ele><time>2026-04-16T10:04:02.999Z</time></trkpt><trkpt lat="49.71068357476253" lon="19.991088137118105"><ele>405.4285714285714</ele><time>2026-04-16T10:04:03.999Z</time></trkpt><trkpt lat="49.71071468902532" lon="19.990986135804672"><ele>405.85714285714283</ele><time>2026-04-16T10:04:04.999Z</time></trkpt><trkpt lat="49.710743285843854" lon="19.99088350382084"><ele>406.2857142857143</ele><time>2026-04-16T10:04:05.999Z</time></trkpt><trkpt lat="49.7107712354528" lon="19.990777872789636"><ele>406.71428571428567</ele><time>2026-04-16T10:04:06.999Z</time></trkpt><trkpt lat="49.71080407283018" lon="19.990675106478918"><ele>407.14285714285717</ele><time>2026-04-16T10:04:07.999Z</time></trkpt><trkpt lat="49.7108395725158" lon="19.99057624742482"><ele>407.57142857142856</ele><time>2026-04-16T10:04:08.999Z</time></trkpt><trkpt lat="49.710867633053226" lon="19.990474111602463"><ele>408.0</ele><time>2026-04-16T10:04:09.999Z</time></trkpt><trkpt lat="49.7109017963376" lon="19.990370119226196"><ele>408.3333333333333</ele><time>2026-04-16T10:04:10.999Z</time></trkpt><trkpt lat="49.71093686709975" lon="19.99025551758589"><ele>408.66666666666663</ele><time>2026-04-16T10:04:11.999Z</time></trkpt><trkpt lat="49.71097384428087" lon="19.990151702784438"><ele>409.0</ele><time>2026-04-16T10:04:12.999Z</time></trkpt><trkpt lat="49.71100248860299" lon="19.990040191994215"><ele>409.3333333333333</ele><time>2026-04-16T10:04:13.999Z</time></trkpt><trkpt lat="49.711030380672554" lon="19.989929383946226"><ele>409.66666666666663</ele><time>2026-04-16T10:04:14.999Z</time></trkpt><trkpt lat="49.71106146909187" lon="19.989817086810998"><ele>410.0</ele><time>2026-04-16T10:04:15.999Z</time></trkpt><trkpt lat="49.71109004458709" lon="19.989706444211617"><ele>409.3333333333333</ele><time>2026-04-16T10:04:16.999Z</time></trkpt><trkpt lat="49.71112018968005" lon="19.98958779475945"><ele>408.66666666666663</ele><time>2026-04-16T10:04:17.999Z</time></trkpt><trkpt lat="49.71114792407894" lon="19.989473026013037"><ele>408.0</ele><time>2026-04-16T10:04:18.999Z</time></trkpt><trkpt lat="49.71117393206321" lon="19.989359304204708"><ele>407.33333333333337</ele><time>2026-04-16T10:04:19.999Z</time></trkpt><trkpt lat="49.71120685067602" lon="19.989239573284955"><ele>406.6666666666667</ele><time>2026-04-16T10:04:20.999Z</time></trkpt><trkpt lat="49.7112344257762" lon="19.98912178643246"><ele>406.0</ele><time>2026-04-16T10:04:21.999Z</time></trkpt><trkpt lat="49.711259651894835" lon="19.98901228216396"><ele>406.00000000000006</ele><time>2026-04-16T10:04:22.999Z</time></trkpt><trkpt lat="49.711282160308585" lon="19.988901583775725"><ele>406.0</ele><time>2026-04-16T10:04:23.998Z</time></trkpt><trkpt lat="49.711308209300576" lon="19.988794090602358"><ele>406.0</ele><time>2026-04-16T10:04:24.998Z</time></trkpt><trkpt lat="49.7113297949439" lon="19.988686577241236"><ele>406.0</ele><time>2026-04-16T10:04:25.998Z</time></trkpt><trkpt lat="49.711359934421054" lon="19.988568335413635"><ele>406.00000000000006</ele><time>2026-04-16T10:04:26.998Z</time></trkpt><trkpt lat="49.71137660692561" lon="19.98845911059818"><ele>406.0</ele><time>2026-04-16T10:04:27.998Z</time></trkpt><trkpt lat="49.711397191316586" lon="19.98834098441761"><ele>406.50000000000006</ele><time>2026-04-16T10:04:28.998Z</time></trkpt><trkpt lat="49.711412879441376" lon="19.98821952040236"><ele>407.0</ele><time>2026-04-16T10:04:29.998Z</time></trkpt><trkpt lat="49.71142472144383" lon="19.988093361555716"><ele>407.5</ele><time>2026-04-16T10:04:30.998Z</time></trkpt><trkpt lat="49.71143712947717" lon="19.987957660557054"><ele>408.0</ele><time>2026-04-16T10:04:31.998Z</time></trkpt><trkpt lat="49.71143555419893" lon="19.98782539379652"><ele>408.50000000000006</ele><time>2026-04-16T10:04:32.998Z</time></trkpt><trkpt lat="49.711434555226774" lon="19.98769253894598"><ele>409.0</ele><time>2026-04-16T10:04:33.998Z</time></trkpt><trkpt lat="49.71143163616131" lon="19.987565259573504"><ele>408.50000000000006</ele><time>2026-04-16T10:04:34.998Z</time></trkpt><trkpt lat="49.711428587132055" lon="19.987442102398514"><ele>408.0</ele><time>2026-04-16T10:04:35.998Z</time></trkpt><trkpt lat="49.71142408478189" lon="19.9873196487135"><ele>407.5</ele><time>2026-04-16T10:04:36.998Z</time></trkpt><trkpt lat="49.71141997541544" lon="19.987195908306578"><ele>407.0</ele><time>2026-04-16T10:04:37.998Z</time></trkpt><trkpt lat="49.711419151401266" lon="19.9870620095999"><ele>406.50000000000006</ele><time>2026-04-16T10:04:38.998Z</time></trkpt><trkpt lat="49.71142528349261" lon="19.986936853345288"><ele>406.0</ele><time>2026-04-16T10:04:39.998Z</time></trkpt><trkpt lat="49.711447257872095" lon="19.986812053115372"><ele>406.00000000000006</ele><time>2026-04-16T10:04:40.998Z</time></trkpt><trkpt lat="49.711472919697066" lon="19.986706536885876"><ele>406.0</ele><time>2026-04-16T10:04:41.998Z</time></trkpt><trkpt lat="49.71151144291321" lon="19.986602045038705"><ele>406.0</ele><time>2026-04-16T10:04:42.998Z</time></trkpt><trkpt lat="49.711556786621024" lon="19.986514359399916"><ele>406.0</ele><time>2026-04-16T10:04:43.998Z</time></trkpt><trkpt lat="49.7116194606993" lon="19.986436945921778"><ele>406.00000000000006</ele><time>2026-04-16T10:04:44.998Z</time></trkpt><trkpt lat="49.71168437936151" lon="19.98636665620261"><ele>406.0</ele><time>2026-04-16T10:04:45.998Z</time></trkpt><trkpt lat="49.7117472170509" lon="19.98629236817381"><ele>405.50000000000006</ele><time>2026-04-16T10:04:46.998Z</time></trkpt><trkpt lat="49.71181874109807" lon="19.98622675158495"><ele>405.0</ele><time>2026-04-16T10:04:47.998Z</time></trkpt><trkpt lat="49.711887948937076" lon="19.986146357533183"><ele>404.5</ele><time>2026-04-16T10:04:48.998Z</time></trkpt><trkpt lat="49.71195937728953" lon="19.986085743952188"><ele>404.0</ele><time>2026-04-16T10:04:49.998Z</time></trkpt><trkpt lat="49.712024290094064" lon="19.986012997339525"><ele>403.50000000000006</ele><time>2026-04-16T10:04:50.998Z</time></trkpt><trkpt lat="49.71209778941559" lon="19.985931436786718"><ele>403.0</ele><time>2026-04-16T10:04:51.998Z</time></trkpt><trkpt lat="49.71216809670289" lon="19.985862515420276"><ele>403.00000000000006</ele><time>2026-04-16T10:04:52.998Z</time></trkpt><trkpt lat="49.71224586141152" lon="19.985795884946103"><ele>403.0</ele><time>2026-04-16T10:04:53.998Z</time></trkpt><trkpt lat="49.712322185058504" lon="19.98573584055167"><ele>403.0</ele><time>2026-04-16T10:04:54.998Z</time></trkpt><trkpt lat="49.712407100333465" lon="19.985672303815292"><ele>403.0</ele><time>2026-04-16T10:04:55.998Z</time></trkpt><trkpt lat="49.712483001245104" lon="19.985606382358867"><ele>403.00000000000006</ele><time>2026-04-16T10:04:57Z</time></trkpt><trkpt lat="49.71255186090932" lon="19.985544546891962"><ele>403.0</ele><time>2026-04-16T10:04:58Z</time></trkpt><trkpt lat="49.712613937587335" lon="19.985478060951138"><ele>403.0</ele><time>2026-04-16T10:04:59Z</time></trkpt><trkpt lat="49.71266259474682" lon="19.985401491281277"><ele>403.0</ele><time>2026-04-16T10:05:00Z</time></trkpt><trkpt lat="49.71272277103197" lon="19.98533737525846"><ele>403.0</ele><time>2026-04-16T10:05:01Z</time></trkpt><trkpt lat="49.712780513807616" lon="19.985275418677077"><ele>403.0</ele><time>2026-04-16T10:05:02Z</time></trkpt><trkpt lat="49.712839913162995" lon="19.98521335203317"><ele>403.0</ele><time>2026-04-16T10:05:03Z</time></trkpt><trkpt lat="49.712901806683924" lon="19.98514763232994"><ele>403.0</ele><time>2026-04-16T10:05:04Z</time></trkpt><trkpt lat="49.71295890370379" lon="19.98508185549844"><ele>403.0</ele><time>2026-04-16T10:05:05Z</time></trkpt><trkpt lat="49.713016901115225" lon="19.985021594773"><ele>402.7142857142857</ele><time>2026-04-16T10:05:06Z</time></trkpt><trkpt lat="49.713068859279176" lon="19.984962124461045"><ele>402.4285714285714</ele><time>2026-04-16T10:05:07Z</time></trkpt><trkpt lat="49.71312827555575" lon="19.984898803629815"><ele>402.1428571428571</ele><time>2026-04-16T10:05:08Z</time></trkpt><trkpt lat="49.71318023477082" lon="19.984834947052775"><ele>401.8571428571429</ele><time>2026-04-16T10:05:09Z</time></trkpt><trkpt lat="49.71323596701306" lon="19.984782486295813"><ele>401.57142857142856</ele><time>2026-04-16T10:05:10Z</time></trkpt><trkpt lat="49.71329869992193" lon="19.98473173034206"><ele>401.2857142857143</ele><time>2026-04-16T10:05:11Z</time></trkpt><trkpt lat="49.713352491520865" lon="19.984668462561345"><ele>401.0</ele><time>2026-04-16T10:05:12Z</time></trkpt><trkpt lat="49.713416619268486" lon="19.984633224334935"><ele>400.99999999999994</ele><time>2026-04-16T10:05:13Z</time></trkpt><trkpt lat="49.71347878552525" lon="19.984589042535955"><ele>401.0</ele><time>2026-04-16T10:05:14Z</time></trkpt><trkpt lat="49.71354090375422" lon="19.984549287425185"><ele>401.0</ele><time>2026-04-16T10:05:15Z</time></trkpt><trkpt lat="49.71365931797402" lon="19.98446011645557"><ele>401.0</ele><time>2026-04-16T10:05:17Z</time></trkpt><trkpt lat="49.713723489321644" lon="19.98440132509455"><ele>400.99999999999994</ele><time>2026-04-16T10:05:18Z</time></trkpt><trkpt lat="49.71378558507604" lon="19.984343545762513"><ele>401.0</ele><time>2026-04-16T10:05:19Z</time></trkpt><trkpt lat="49.71385603467976" lon="19.984290936750565"><ele>399.99999999999994</ele><time>2026-04-16T10:05:20Z</time></trkpt><trkpt lat="49.713916990863154" lon="19.98423287196966"><ele>399.0</ele><time>2026-04-16T10:05:21Z</time></trkpt><trkpt lat="49.713974817398004" lon="19.98416242116481"><ele>398.0</ele><time>2026-04-16T10:05:22Z</time></trkpt><trkpt lat="49.71402898451808" lon="19.984085647061903"><ele>397.0</ele><time>2026-04-16T10:05:23Z</time></trkpt><trkpt lat="49.71409277875948" lon="19.984004254954037"><ele>395.99999999999994</ele><time>2026-04-16T10:05:24Z</time></trkpt><trkpt lat="49.714152478261084" lon="19.983927700415148"><ele>395.0</ele><time>2026-04-16T10:05:25Z</time></trkpt><trkpt lat="49.71420320417229" lon="19.98384508876852"><ele>394.99999999999994</ele><time>2026-04-16T10:05:26Z</time></trkpt><trkpt lat="49.71424989913619" lon="19.983760559388074"><ele>395.0</ele><time>2026-04-16T10:05:27Z</time></trkpt><trkpt lat="49.71429668197666" lon="19.983672963195083"><ele>395.0</ele><time>2026-04-16T10:05:28Z</time></trkpt><trkpt lat="49.71434245796554" lon="19.983579287601657"><ele>395.0</ele><time>2026-04-16T10:05:29Z</time></trkpt><trkpt lat="49.71437847816378" lon="19.983473054369036"><ele>394.99999999999994</ele><time>2026-04-16T10:05:30Z</time></trkpt><trkpt lat="49.714415264734434" lon="19.983363479244936"><ele>395.0</ele><time>2026-04-16T10:05:31Z</time></trkpt><trkpt lat="49.71444913344973" lon="19.983251447037304"><ele>394.16666666666663</ele><time>2026-04-16T10:05:31.999Z</time></trkpt><trkpt lat="49.7144868047378" lon="19.983132862978803"><ele>393.3333333333333</ele><time>2026-04-16T10:05:32.999Z</time></trkpt><trkpt lat="49.71450571011039" lon="19.983003937514905"><ele>392.5</ele><time>2026-04-16T10:05:33.999Z</time></trkpt><trkpt lat="49.71454579557478" lon="19.98288193704658"><ele>391.66666666666663</ele><time>2026-04-16T10:05:34.999Z</time></trkpt><trkpt lat="49.71458527873105" lon="19.982749604326393"><ele>390.8333333333333</ele><time>2026-04-16T10:05:35.999Z</time></trkpt><trkpt lat="49.71461416044173" lon="19.982629484620873"><ele>390.0</ele><time>2026-04-16T10:05:36.999Z</time></trkpt><trkpt lat="49.71465392793853" lon="19.98250698636989"><ele>389.1666666666667</ele><time>2026-04-16T10:05:37.999Z</time></trkpt><trkpt lat="49.71468620845805" lon="19.982393481950258"><ele>388.33333333333337</ele><time>2026-04-16T10:05:38.999Z</time></trkpt><trkpt lat="49.71473860184453" lon="19.982249505471035"><ele>387.5</ele><time>2026-04-16T10:05:39.999Z</time></trkpt><trkpt lat="49.71478038128998" lon="19.98206761528557"><ele>386.6666666666667</ele><time>2026-04-16T10:05:41.999Z</time></trkpt><trkpt lat="49.714797880154656" lon="19.981964208674658"><ele>385.83333333333337</ele><time>2026-04-16T10:05:42.999Z</time></trkpt><trkpt lat="49.7148259534623" lon="19.981875147208328"><ele>385.0</ele><time>2026-04-16T10:05:43.999Z</time></trkpt><trkpt lat="49.71487284774747" lon="19.981716873245087"><ele>383.8</ele><time>2026-04-16T10:05:45.999Z</time></trkpt><trkpt lat="49.71491897158562" lon="19.981553062385583"><ele>382.6</ele><time>2026-04-16T10:05:47.999Z</time></trkpt><trkpt lat="49.71489950608348" lon="19.98137804525131"><ele>381.4</ele><time>2026-04-16T10:05:49.999Z</time></trkpt><trkpt lat="49.71481943919361" lon="19.98126908143006"><ele>380.2</ele><time>2026-04-16T10:05:51.999Z</time></trkpt><trkpt lat="49.714750039000776" lon="19.981223524923692"><ele>379.0</ele><time>2026-04-16T10:05:52.999Z</time></trkpt><trkpt lat="49.714680365486565" lon="19.981178404496962"><ele>379.0</ele><time>2026-04-16T10:05:53.999Z</time></trkpt><trkpt lat="49.71460757343647" lon="19.981124296462752"><ele>379.0</ele><time>2026-04-16T10:05:54.999Z</time></trkpt><trkpt lat="49.71453407459933" lon="19.98104976769846"><ele>379.0</ele><time>2026-04-16T10:05:55.999Z</time></trkpt><trkpt lat="49.714463303297556" lon="19.980980421363054"><ele>379.0</ele><time>2026-04-16T10:05:56.999Z</time></trkpt><trkpt lat="49.71439722284604" lon="19.980895246003723"><ele>379.0</ele><time>2026-04-16T10:05:57.999Z</time></trkpt><trkpt lat="49.71433103991971" lon="19.980814563007144"><ele>379.0</ele><time>2026-04-16T10:05:58.999Z</time></trkpt><trkpt lat="49.71426383726177" lon="19.980721790304493"><ele>379.3333333333333</ele><time>2026-04-16T10:05:59.999Z</time></trkpt><trkpt lat="49.71420777467497" lon="19.980645672426668"><ele>379.66666666666663</ele><time>2026-04-16T10:06:00.999Z</time></trkpt><trkpt lat="49.714123421550894" lon="19.980538486742905"><ele>380.0</ele><time>2026-04-16T10:06:02.999Z</time></trkpt><trkpt lat="49.71405613045578" lon="19.98047673392917"><ele>380.3333333333333</ele><time>2026-04-16T10:06:04.999Z</time></trkpt><trkpt lat="49.71396880281463" lon="19.98041700777946"><ele>380.6666666666667</ele><time>2026-04-16T10:06:06.999Z</time></trkpt><trkpt lat="49.71393142537702" lon="19.98032207462742"><ele>381.0</ele><time>2026-04-16T10:07:59.999Z</time></trkpt><trkpt lat="49.713880036623266" lon="19.98041131910252"><ele>381.0</ele><time>2026-04-16T10:08:03.999Z</time></trkpt><trkpt lat="49.71375889698312" lon="19.980428449210514"><ele>381.0</ele><time>2026-04-16T10:08:06.999Z</time></trkpt><trkpt lat="49.713867548822385" lon="19.980413662683937"><ele>381.0</ele><time>2026-04-16T10:08:19.999Z</time></trkpt><trkpt lat="49.71391466466595" lon="19.980348679932487"><ele>381.0</ele><time>2026-04-16T10:09:02.998Z</time></trkpt><trkpt lat="49.71397499469532" lon="19.98031017941841"><ele>381.0</ele><time>2026-04-16T10:10:22.999Z</time></trkpt><trkpt lat="49.71406638813006" lon="19.980265036812813"><ele>381.0</ele><time>2026-04-16T10:10:25.999Z</time></trkpt><trkpt lat="49.714003143787544" lon="19.980328353066195"><ele>381.0</ele><time>2026-04-16T10:10:35.999Z</time></trkpt><trkpt lat="49.713899521028395" lon="19.980314607929984"><ele>381.0</ele><time>2026-04-16T10:12:53.998Z</time></trkpt><trkpt lat="49.71396967194057" lon="19.980332452580832"><ele>381.0</ele><time>2026-04-16T10:14:01.999Z</time></trkpt><trkpt lat="49.71390642071841" lon="19.980368560633014"><ele>381.0</ele><time>2026-04-16T10:14:15.999Z</time></trkpt><trkpt lat="49.7138527185293" lon="19.98031468653601"><ele>381.0</ele><time>2026-04-16T10:16:37.999Z</time></trkpt><trkpt lat="49.71394226914331" lon="19.980309725745116"><ele>381.0</ele><time>2026-04-16T10:17:06.998Z</time></trkpt><trkpt lat="49.71388137281723" lon="19.980380184444453"><ele>381.0</ele><time>2026-04-16T10:18:19.999Z</time></trkpt><trkpt lat="49.71392546680787" lon="19.9803082156951"><ele>381.0</ele><time>2026-04-16T10:18:41.999Z</time></trkpt><trkpt lat="49.71385317920094" lon="19.98036006025324"><ele>381.0</ele><time>2026-04-16T10:20:14Z</time></trkpt><trkpt lat="49.71399690087848" lon="19.98040340565977"><ele>381.0</ele><time>2026-04-16T10:20:50.999Z</time></trkpt><trkpt lat="49.71391373062673" lon="19.98032044422541"><ele>381.0</ele><time>2026-04-16T10:21:00.999Z</time></trkpt><trkpt lat="49.713986091124504" lon="19.980335744572955"><ele>381.0</ele><time>2026-04-16T10:25:03.999Z</time></trkpt><trkpt lat="49.71393170088494" lon="19.98039158509996"><ele>381.0</ele><time>2026-04-16T10:25:57Z</time></trkpt><trkpt lat="49.7139082625193" lon="19.980285801928197"><ele>381.0</ele><time>2026-04-16T10:26:19Z</time></trkpt></trkseg></trk></gpx>